[[{"header":{"parameterUnit":"m.s-1","parameterCategory":1,"la1":30.6,"la2":29.2853,"lo1":-89.7004,"lo2":-87.6739,"dx":0.0162,"dy":0.0183,"nx":112,"ny":82,"refTime":"2022-12-04T06:00:00:Z","depth":0,"parameterNumber":2,"parameterNumberName":"U-component_of_WINDS"},"data":[0.0,0.0,0.0,0.0,0.0,0.0,0.0,0.0,0.0,0.0,0.0,0.0,0.0,0.0,0.0,0.0,0.0,0.0,0.0,0.0,0.0,0.0,0.0,0.0,0.0,0.0,0.0,0.0,0.0,0.0,0.0,0.0,0.0,0.0,0.0,0.0,0.0,0.0,0.0,0.0,0.0,0.0,0.0,0.0,0.0,0.0,0.0,0.0,0.0,0.0,0.0,0.0,0.0,0.0,0.0,0.0,0.0,0.0,0.0,0.0,0.0,0.0,0.0,0.0,0.0,0.0,0.0,0.0,0.0,0.0,0.0,0.0,0.0,0.0,0.0,0.0,0.0,0.0,0.0,0.0,0.0,0.0,0.0,0.0,0.0,0.0,0.0,0.0,0.0,0.0,-3.4473,-3.3867,-3.5117,-3.5975,-3.5914,-3.4372,-3.333,-3.3128,0.0,0.0,0.0,0.0,0.0,0.0,0.0,0.0,0.0,0.0,0.0,0.0,0.0,0.0,0.0,0.0,0.0,0.0,0.0,0.0,0.0,0.0,0.0,0.0,0.0,0.0,0.0,0.0,0.0,0.0,0.0,0.0,0.0,0.0,0.0,0.0,0.0,0.0,0.0,0.0,0.0,0.0,0.0,0.0,0.0,0.0,0.0,0.0,0.0,0.0,0.0,0.0,0.0,0.0,0.0,0.0,0.0,0.0,0.0,0.0,0.0,0.0,0.0,0.0,0.0,0.0,0.0,0.0,0.0,0.0,0.0,0.0,0.0,0.0,0.0,0.0,0.0,0.0,0.0,0.0,0.0,0.0,0.0,0.0,0.0,0.0,0.0,0.0,0.0,0.0,0.0,0.0,0.0,0.0,0.0,0.0,0.0,0.0,0.0,0.0,0.0,0.0,0.0,0.0,-3.4922,-3.5547,-3.584,-3.5996,-3.5995,-3.5004,-3.4047,-3.3236,0.0,0.0,0.0,0.0,0.0,0.0,0.0,0.0,0.0,0.0,0.0,0.0,0.0,0.0,0.0,0.0,0.0,0.0,0.0,0.0,0.0,0.0,0.0,0.0,0.0,0.0,0.0,0.0,0.0,0.0,0.0,0.0,0.0,0.0,0.0,0.0,0.0,0.0,0.0,0.0,0.0,0.0,0.0,0.0,0.0,0.0,0.0,0.0,0.0,0.0,0.0,0.0,0.0,0.0,0.0,0.0,0.0,0.0,0.0,0.0,0.0,0.0,0.0,0.0,0.0,0.0,0.0,0.0,0.0,0.0,0.0,0.0,0.0,0.0,0.0,0.0,0.0,0.0,0.0,0.0,0.0,0.0,0.0,0.0,0.0,0.0,0.0,0.0,0.0,0.0,0.0,0.0,0.0,0.0,0.0,0.0,0.0,0.0,0.0,0.0,0.0,0.0,0.0,-3.3984,-3.5039,-3.5918,-3.5996,-3.5996,-3.5996,-3.5147,-3.4195,-3.3254,-3.1928,0.0,0.0,0.0,0.0,0.0,0.0,0.0,0.0,0.0,0.0,0.0,0.0,0.0,0.0,0.0,0.0,0.0,0.0,0.0,0.0,0.0,0.0,0.0,0.0,0.0,0.0,0.0,0.0,0.0,0.0,0.0,0.0,0.0,0.0,0.0,0.0,0.0,0.0,0.0,0.0,0.0,0.0,0.0,0.0,0.0,0.0,0.0,0.0,0.0,0.0,0.0,0.0,0.0,0.0,0.0,0.0,0.0,0.0,0.0,0.0,0.0,0.0,0.0,0.0,0.0,0.0,0.0,0.0,0.0,0.0,0.0,0.0,0.0,0.0,0.0,0.0,0.0,0.0,0.0,0.0,0.0,0.0,0.0,0.0,0.0,0.0,0.0,0.0,0.0,0.0,0.0,0.0,0.0,0.0,0.0,0.0,0.0,0.0,0.0,0.0,0.0,0.0,-3.4824,-3.5039,-3.5918,-3.5996,-3.5996,-3.5996,-3.5346,-3.4441,-3.3276,-3.2527,0.0,0.0,0.0,0.0,0.0,0.0,0.0,0.0,0.0,0.0,0.0,0.0,0.0,0.0,0.0,0.0,0.0,0.0,0.0,0.0,0.0,0.0,0.0,0.0,0.0,0.0,0.0,0.0,0.0,0.0,0.0,0.0,0.0,0.0,0.0,0.0,0.0,0.0,0.0,0.0,0.0,0.0,0.0,0.0,0.0,0.0,0.0,0.0,0.0,0.0,0.0,0.0,0.0,0.0,0.0,0.0,0.0,0.0,0.0,0.0,0.0,0.0,0.0,0.0,0.0,0.0,0.0,0.0,0.0,0.0,0.0,0.0,0.0,0.0,0.0,0.0,0.0,0.0,0.0,0.0,0.0,0.0,0.0,0.0,0.0,0.0,0.0,0.0,0.0,0.0,0.0,0.0,0.0,0.0,0.0,0.0,0.0,0.0,0.0,0.0,0.0,0.0,-3.5195,-3.5039,-3.5918,-3.5996,-3.5996,-3.5996,-3.5937,-3.5127,-3.3318,-3.3147,0.0,0.0,0.0,0.0,0.0,0.0,0.0,0.0,0.0,0.0,0.0,0.0,0.0,0.0,0.0,0.0,0.0,0.0,0.0,0.0,0.0,0.0,0.0,0.0,0.0,0.0,0.0,0.0,0.0,0.0,0.0,0.0,0.0,0.0,0.0,0.0,0.0,0.0,0.0,0.0,0.0,0.0,0.0,0.0,0.0,0.0,0.0,0.0,0.0,0.0,0.0,0.0,0.0,0.0,0.0,0.0,0.0,0.0,0.0,0.0,0.0,0.0,0.0,0.0,0.0,0.0,0.0,0.0,0.0,0.0,0.0,0.0,0.0,0.0,0.0,0.0,0.0,0.0,0.0,0.0,0.0,0.0,0.0,0.0,0.0,0.0,0.0,0.0,0.0,0.0,0.0,0.0,0.0,0.0,0.0,0.0,0.0,0.0,0.0,0.0,0.0,0.0,-3.5371,-3.5644,-3.5957,-3.5996,-3.5996,-3.5996,-3.5996,-3.5211,-3.3372,0.0,0.0,0.0,0.0,0.0,0.0,0.0,0.0,0.0,0.0,0.0,0.0,0.0,0.0,0.0,0.0,0.0,0.0,0.0,0.0,0.0,0.0,0.0,0.0,0.0,0.0,0.0,0.0,0.0,0.0,0.0,0.0,0.0,0.0,0.0,0.0,0.0,0.0,0.0,0.0,0.0,0.0,0.0,0.0,0.0,0.0,0.0,0.0,0.0,0.0,0.0,0.0,0.0,0.0,0.0,0.0,0.0,0.0,0.0,0.0,0.0,0.0,0.0,0.0,0.0,0.0,0.0,0.0,0.0,0.0,0.0,0.0,0.0,0.0,0.0,0.0,0.0,0.0,0.0,0.0,0.0,0.0,0.0,0.0,0.0,0.0,0.0,0.0,0.0,0.0,0.0,0.0,0.0,0.0,0.0,0.0,0.0,0.0,0.0,0.0,0.0,0.0,-3.4629,-3.5469,-3.5898,-3.5625,-3.582,-3.5996,-3.5996,-3.5996,-3.5349,-3.3805,0.0,0.0,0.0,0.0,0.0,0.0,0.0,0.0,0.0,0.0,0.0,0.0,0.0,0.0,0.0,0.0,0.0,0.0,0.0,0.0,0.0,0.0,0.0,0.0,0.0,0.0,0.0,0.0,0.0,0.0,0.0,0.0,0.0,0.0,0.0,0.0,0.0,0.0,0.0,0.0,0.0,0.0,0.0,0.0,0.0,0.0,0.0,0.0,0.0,0.0,0.0,0.0,0.0,0.0,0.0,0.0,0.0,0.0,0.0,0.0,0.0,0.0,0.0,0.0,0.0,0.0,0.0,0.0,0.0,0.0,0.0,0.0,0.0,0.0,0.0,0.0,0.0,0.0,0.0,0.0,0.0,0.0,0.0,0.0,0.0,0.0,0.0,0.0,0.0,0.0,0.0,0.0,0.0,0.0,0.0,0.0,0.0,0.0,0.0,0.0,0.0,0.0,-3.4707,-3.5469,-3.5664,-3.4785,-3.5488,-3.5996,-3.5996,-3.5996,-3.5604,0.0,0.0,0.0,0.0,0.0,0.0,0.0,0.0,0.0,0.0,0.0,0.0,0.0,0.0,0.0,0.0,0.0,0.0,0.0,0.0,0.0,0.0,0.0,0.0,0.0,0.0,0.0,0.0,0.0,0.0,0.0,0.0,0.0,0.0,0.0,0.0,0.0,0.0,0.0,0.0,0.0,0.0,0.0,0.0,0.0,0.0,0.0,0.0,0.0,0.0,0.0,0.0,0.0,0.0,0.0,0.0,0.0,0.0,0.0,0.0,0.0,0.0,0.0,0.0,0.0,0.0,0.0,0.0,0.0,0.0,0.0,0.0,0.0,0.0,0.0,0.0,0.0,0.0,0.0,0.0,0.0,0.0,0.0,0.0,0.0,0.0,0.0,0.0,0.0,0.0,0.0,0.0,0.0,0.0,0.0,0.0,0.0,0.0,0.0,0.0,0.0,0.0,0.0,-3.4707,-3.5469,-3.5664,-3.4785,-3.5488,-3.5996,-3.5996,-3.5996,-3.5625,-3.4724,0.0,0.0,0.0,0.0,0.0,0.0,0.0,0.0,0.0,0.0,0.0,0.0,0.0,0.0,0.0,0.0,0.0,0.0,0.0,0.0,0.0,0.0,0.0,0.0,0.0,0.0,0.0,0.0,0.0,0.0,0.0,0.0,0.0,0.0,0.0,0.0,0.0,0.0,0.0,0.0,0.0,0.0,0.0,0.0,0.0,0.0,0.0,0.0,0.0,0.0,0.0,0.0,0.0,0.0,0.0,0.0,0.0,0.0,0.0,0.0,0.0,0.0,0.0,0.0,0.0,0.0,0.0,0.0,0.0,0.0,0.0,0.0,0.0,0.0,0.0,0.0,0.0,0.0,0.0,0.0,0.0,0.0,0.0,0.0,0.0,0.0,0.0,0.0,0.0,0.0,0.0,0.0,0.0,0.0,0.0,0.0,0.0,0.0,0.0,0.0,0.0,0.0,-3.4234,-3.5164,-3.5434,-3.4273,-3.523,-3.5973,-3.5996,-3.5996,-3.5781,-3.5254,0.0,0.0,0.0,0.0,0.0,0.0,0.0,0.0,0.0,0.0,0.0,0.0,0.0,0.0,0.0,0.0,0.0,0.0,0.0,0.0,0.0,0.0,0.0,0.0,0.0,0.0,0.0,0.0,0.0,0.0,0.0,0.0,0.0,0.0,0.0,0.0,0.0,0.0,0.0,0.0,0.0,0.0,0.0,0.0,0.0,0.0,0.0,0.0,0.0,0.0,0.0,0.0,0.0,0.0,0.0,0.0,0.0,0.0,0.0,0.0,0.0,0.0,0.0,0.0,0.0,0.0,0.0,0.0,0.0,0.0,0.0,0.0,0.0,0.0,0.0,0.0,0.0,0.0,0.0,0.0,0.0,0.0,0.0,0.0,0.0,0.0,0.0,0.0,0.0,0.0,0.0,0.0,0.0,0.0,0.0,0.0,0.0,0.0,0.0,0.0,0.0,0.0,-3.364,-3.4759,-3.5112,-3.3576,-3.4883,-3.5913,-3.5975,-3.5975,-3.5975,-3.5975,0.0,0.0,0.0,0.0,0.0,0.0,0.0,0.0,0.0,0.0,0.0,0.0,0.0,0.0,0.0,0.0,0.0,0.0,0.0,0.0,0.0,0.0,0.0,0.0,0.0,0.0,0.0,0.0,0.0,0.0,0.0,0.0,0.0,0.0,0.0,0.0,0.0,0.0,0.0,0.0,0.0,0.0,0.0,0.0,0.0,0.0,0.0,0.0,0.0,0.0,0.0,0.0,0.0,0.0,0.0,0.0,0.0,0.0,0.0,0.0,-3.571,-3.5566,0.0,0.0,0.0,0.0,0.0,0.0,0.0,0.0,0.0,0.0,0.0,0.0,0.0,0.0,0.0,0.0,0.0,0.0,0.0,0.0,0.0,0.0,0.0,0.0,0.0,0.0,0.0,0.0,0.0,0.0,0.0,0.0,0.0,0.0,0.0,0.0,0.0,0.0,0.0,0.0,-3.4392,-3.5091,-3.5321,-3.4344,-3.5145,-3.5758,-3.5755,-3.5758,-3.5758,-3.5758,-3.5859,0.0,0.0,0.0,0.0,0.0,0.0,0.0,0.0,0.0,0.0,0.0,0.0,0.0,0.0,0.0,0.0,0.0,0.0,0.0,0.0,0.0,0.0,0.0,0.0,0.0,0.0,0.0,0.0,0.0,0.0,0.0,0.0,0.0,0.0,0.0,0.0,0.0,0.0,0.0,0.0,0.0,0.0,0.0,0.0,0.0,0.0,0.0,0.0,0.0,0.0,0.0,0.0,0.0,0.0,0.0,0.0,0.0,0.0,0.0,-3.518,-3.5141,0.0,0.0,0.0,0.0,0.0,0.0,0.0,0.0,0.0,0.0,0.0,0.0,0.0,0.0,0.0,0.0,0.0,0.0,0.0,0.0,0.0,0.0,0.0,0.0,0.0,0.0,0.0,0.0,0.0,0.0,0.0,0.0,0.0,0.0,0.0,0.0,0.0,0.0,0.0,0.0,-3.447,-3.4748,-3.4831,-3.4458,-3.5146,-3.5652,-3.57,-3.5707,-3.5707,-3.5707,-3.6156,0.0,0.0,0.0,0.0,0.0,0.0,0.0,0.0,0.0,0.0,0.0,0.0,0.0,0.0,0.0,0.0,0.0,0.0,0.0,0.0,0.0,0.0,0.0,0.0,0.0,0.0,0.0,0.0,0.0,0.0,0.0,0.0,0.0,0.0,0.0,0.0,0.0,0.0,0.0,0.0,0.0,0.0,0.0,0.0,0.0,0.0,0.0,0.0,0.0,0.0,0.0,0.0,0.0,-3.4548,-3.4548,-3.4548,-3.4548,-3.4548,-3.4548,-3.4548,-3.4601,-3.4714,-3.4944,0.0,0.0,0.0,0.0,0.0,0.0,0.0,0.0,0.0,0.0,0.0,0.0,0.0,0.0,0.0,0.0,0.0,0.0,0.0,0.0,0.0,0.0,-3.2634,-3.3417,-3.4071,-3.4342,-3.3727,0.0,0.0,0.0,0.0,0.0,0.0,0.0,0.0,0.0,0.0,0.0,-3.4496,-3.4326,-3.4276,-3.4499,-3.5148,-3.5601,-3.5663,-3.5671,-3.5671,-3.5671,-3.6491,-3.658,0.0,0.0,0.0,0.0,0.0,0.0,0.0,0.0,0.0,0.0,0.0,0.0,0.0,0.0,0.0,0.0,0.0,0.0,0.0,0.0,0.0,0.0,0.0,0.0,0.0,0.0,0.0,0.0,0.0,0.0,0.0,0.0,-3.8594,-3.8747,0.0,0.0,0.0,0.0,0.0,0.0,0.0,0.0,0.0,0.0,0.0,0.0,0.0,-3.397,-3.4081,-3.397,-3.3915,-3.3915,-3.3915,-3.3915,-3.3915,-3.3915,-3.3915,-3.3915,-3.3915,0.0,-3.4694,-3.4734,0.0,0.0,0.0,0.0,0.0,0.0,0.0,0.0,0.0,0.0,0.0,0.0,0.0,0.0,0.0,0.0,0.0,0.0,0.0,0.0,0.0,0.0,-3.504,-3.5175,-3.5277,-3.5329,-3.5213,-3.4739,-3.4331,-3.4331,-3.4331,-3.4588,0.0,0.0,0.0,0.0,0.0,0.0,-3.5245,-3.4674,-3.4501,-3.5264,-3.5438,-3.5528,-3.5528,-3.5534,-3.5534,-3.5534,-3.64,-3.6527,-3.5655,-3.6624,0.0,0.0,0.0,0.0,0.0,0.0,0.0,0.0,0.0,0.0,0.0,0.0,0.0,0.0,0.0,0.0,0.0,0.0,0.0,0.0,0.0,0.0,0.0,0.0,0.0,0.0,0.0,0.0,0.0,-3.8277,-3.8578,-3.8283,-3.853,-3.8707,0.0,0.0,0.0,0.0,0.0,0.0,0.0,0.0,0.0,-3.4305,-3.4305,-3.4449,-3.4763,-3.4763,-3.4918,-3.5202,-3.5202,-3.5202,-3.5183,-3.4706,-3.4472,-3.4454,-3.4009,-3.3941,-3.4208,-3.4364,-3.4412,-3.4483,0.0,0.0,0.0,0.0,-3.4879,-3.4879,-3.424,-3.467,-3.5417,-3.5087,0.0,0.0,0.0,0.0,0.0,0.0,0.0,-3.4522,-3.4902,-3.4627,-3.4513,-3.5492,-3.5006,-3.4587,-3.552,-3.5138,-3.4698,-3.4999,-3.467,-3.4747,-3.6043,-3.5889,0.0,0.0,0.0,-3.4364,-3.4732,-3.443,-3.4526,-3.5404,-3.55,-3.55,-3.55,-3.55,-3.5692,-3.6154,-3.6556,-3.6832,-3.6948,-3.6957,-3.6948,0.0,0.0,0.0,0.0,0.0,0.0,0.0,0.0,0.0,0.0,0.0,0.0,0.0,0.0,0.0,0.0,0.0,0.0,0.0,0.0,0.0,0.0,0.0,0.0,0.0,0.0,0.0,0.0,-3.8066,-3.8168,-3.7755,-3.8083,-3.8318,0.0,0.0,0.0,0.0,0.0,0.0,-3.5335,-3.4924,-3.4694,-3.4694,-3.4694,-3.4889,-3.5299,-3.5299,-3.5497,-3.59,-3.59,-3.59,-3.5863,-3.503,-3.4648,-3.4611,-3.3807,-3.3462,-3.3504,-3.3924,-3.4216,-3.4494,-3.5443,-3.5571,-3.5249,-3.5445,-3.5765,-3.6024,-3.5518,-3.6019,-3.681,-3.6284,-3.6155,-3.6096,-3.5503,0.0,0.0,0.0,0.0,-3.5235,-3.5235,-3.4754,-3.4593,-3.5897,-3.5256,-3.4691,-3.5945,-3.5409,-3.4803,-3.5215,-3.476,-3.478,-3.6235,-3.5833,0.0,-3.5576,-3.4684,-3.4071,-3.4308,-3.4128,-3.432,-3.5201,-3.5297,-3.532,-3.5383,-3.541,-3.5736,-3.6554,-3.6784,-3.7195,-3.7847,-3.7557,-3.7321,-3.7176,0.0,0.0,0.0,0.0,0.0,0.0,0.0,0.0,0.0,0.0,0.0,0.0,0.0,0.0,0.0,0.0,0.0,0.0,0.0,0.0,0.0,0.0,0.0,0.0,0.0,0.0,0.0,0.0,0.0,-3.7229,-3.7266,0.0,0.0,0.0,0.0,-3.604,-3.5969,-3.5579,-3.4765,-3.4712,-3.4694,-3.4694,-3.4694,-3.4712,-3.473,-3.473,-3.4748,-3.4783,-3.4783,-3.4783,-3.4765,-3.4021,-3.3667,-3.3632,-3.2887,-3.2567,-3.2632,-3.3476,-3.4261,-3.5,-3.5374,-3.5956,-3.6677,-3.7461,-3.7274,-3.6733,-3.7188,-3.6912,-3.638,-3.658,-3.6824,-3.7024,-3.6986,-3.6968,0.0,0.0,-3.6968,-3.6968,-3.6968,-3.6949,-3.693,-3.7024,-3.6986,-3.693,-3.7024,-3.5762,-3.4634,-3.4724,-3.4696,-3.4932,-3.579,0.0,-3.4989,-3.5752,-3.4497,-3.3742,-3.4583,-3.3959,-3.3761,-3.4659,-3.4734,-3.4832,-3.5096,-3.5122,-3.5456,-3.6278,-3.7041,-3.7488,-3.7526,-3.8279,-3.8452,-3.7957,-3.7144,0.0,0.0,0.0,0.0,0.0,0.0,0.0,0.0,0.0,0.0,0.0,0.0,0.0,0.0,0.0,0.0,0.0,0.0,0.0,0.0,0.0,0.0,0.0,0.0,0.0,0.0,0.0,0.0,-3.6724,-3.6999,0.0,-3.7209,-3.7209,-3.7085,-3.6766,-3.6404,-3.6103,-3.5804,-3.5483,-3.5276,-3.5276,-3.5276,-3.5425,-3.5787,-3.5787,-3.5982,-3.6305,-3.6305,-3.6305,-3.6287,-3.5473,-3.5083,-3.5048,-3.4253,-3.3934,-3.3934,-3.4257,-3.4263,-3.4183,-3.5124,-3.5688,-3.5992,-3.6638,-3.7013,-3.7239,-3.7426,-3.7658,-3.7768,-3.7362,-3.692,-3.6602,-3.6602,-3.6602,-3.6682,-3.7201,-3.7349,-3.7349,-3.7349,-3.7349,-3.7349,-3.7349,-3.696,-3.6719,-3.7251,-3.6478,-3.5699,-3.5731,-3.4716,-3.4297,-3.5667,-3.5222,-3.4807,-3.508,-3.4627,-3.4146,-3.3901,-3.407,-3.4363,-3.4675,-3.4694,-3.4951,-3.557,-3.5618,-3.6176,-3.7499,-3.7869,-3.836,-3.9128,-3.8918,-3.8809,-3.8834,-3.8527,-3.8623,0.0,0.0,0.0,0.0,0.0,0.0,0.0,0.0,0.0,0.0,0.0,0.0,0.0,0.0,0.0,0.0,0.0,0.0,0.0,0.0,0.0,0.0,0.0,0.0,0.0,-3.6457,-3.6522,-3.6182,-3.644,-3.6646,-3.6646,-3.6646,-3.6646,-3.6646,-3.6333,-3.6139,-3.6139,-3.5788,-3.56,-3.56,-3.56,-3.5783,-3.6118,-3.6139,-3.6312,-3.6646,-3.6646,-3.6646,-3.6629,-3.5787,-3.5438,-3.5386,-3.46,-3.4269,-3.4286,-3.453,-3.4338,-3.3995,-3.4887,-3.5411,-3.5677,-3.6043,-3.6499,-3.7005,-3.7295,-3.7961,-3.8566,-3.7875,-3.7409,-3.711,-3.711,-3.711,-3.7221,-3.7734,-3.7915,-3.7915,-3.7915,-3.7915,-3.7915,-3.7915,-3.7496,-3.7257,-3.7804,-3.7272,-3.6703,-3.6703,-3.5458,-3.482,-3.6201,-3.5771,-3.5423,-3.596,-3.5598,-3.513,-3.4827,-3.5044,-3.5236,-3.5236,-3.5236,-3.5495,-3.6111,-3.6423,-3.7042,-3.81,-3.842,-3.894,-3.9735,-3.9478,-3.934,-3.9363,-3.9095,-3.9219,-3.9744,0.0,0.0,0.0,0.0,0.0,0.0,0.0,0.0,0.0,0.0,0.0,0.0,0.0,0.0,0.0,0.0,0.0,0.0,0.0,0.0,0.0,0.0,0.0,-3.56,-3.56,-3.56,-3.56,-3.56,-3.56,-3.56,-3.56,-3.56,-3.56,-3.5616,-3.5633,-3.5633,-3.565,-3.5667,-3.5667,-3.565,-3.565,-3.5667,-3.565,-3.565,-3.5667,-3.5667,-3.5667,-3.565,-3.4928,-3.4607,-3.4556,-3.3829,-3.3508,-3.3558,-3.4252,-3.4523,-3.4546,-3.4693,-3.5241,-3.5931,-3.5931,-3.5949,-3.6055,-3.6907,-3.7843,-3.8562,-3.8048,-3.8234,-3.8643,-3.8643,-3.8643,-3.8676,-3.8658,-3.8692,-3.8692,-3.8692,-3.8707,-3.8707,-3.8707,-3.8707,-3.8707,-3.8707,-3.8098,-3.7547,-3.7547,-3.6923,-3.6611,-3.7345,-3.6831,-3.6835,-3.8395,-3.7294,0.0,-3.7364,-3.6795,-3.6303,-3.6321,-3.634,-3.6445,-3.6749,-3.7482,-3.7928,-3.7928,-3.8664,-3.9087,-3.9099,-3.9849,-4.0034,-3.9503,-3.8757,-3.8361,-3.8339,0.0,0.0,0.0,0.0,0.0,0.0,0.0,0.0,0.0,0.0,0.0,0.0,0.0,0.0,0.0,0.0,0.0,0.0,0.0,0.0,0.0,-3.6129,-3.56,-3.56,-3.56,-3.56,-3.56,-3.56,-3.56,-3.56,-3.56,-3.56,-3.56,-3.6146,-3.6468,-3.6468,-3.6992,-3.728,-3.728,-3.6738,-3.6721,-3.7256,-3.6738,-3.6738,-3.728,-3.728,-3.728,-3.7256,-3.706,-3.6975,-3.6924,-3.618,-3.5881,-3.5847,-3.5453,-3.5295,-3.535,-3.578,-3.6078,-3.6312,-3.6703,-3.6836,-3.6889,-3.7121,-3.7396,-3.7578,-3.7433,-3.7488,-3.7614,-3.7614,-3.7614,-3.7685,-3.8032,-3.8115,-3.82,-3.8611,-3.8707,-3.8707,-3.8707,-3.8707,-3.8707,-3.8707,-3.8524,-3.8377,-3.8377,-3.8193,-3.7734,-3.678,-3.645,-3.645,-3.689,-3.6578,-3.6376,-3.6597,-3.6431,-3.6505,-3.7107,-3.718,-3.743,-3.8088,-3.8346,-3.849,-3.849,-3.8678,-3.8898,-3.9099,-3.9303,-3.9462,-3.9557,-3.9976,-3.9863,0.0,0.0,0.0,0.0,0.0,0.0,0.0,0.0,0.0,0.0,0.0,0.0,0.0,0.0,0.0,0.0,0.0,0.0,0.0,0.0,0.0,0.0,-3.5889,-3.5184,-3.5184,-3.5407,-3.56,-3.56,-3.56,-3.5588,-3.5596,-3.5606,-3.5604,-3.5613,-3.6026,-3.629,-3.629,-3.6687,-3.6934,-3.6934,-3.6505,-3.6638,-3.7385,-3.6967,-3.7129,-3.7905,-3.7905,-3.7704,-3.7402,-3.7402,-3.7402,-3.7368,-3.6933,-3.6767,-3.6761,-3.6299,-3.591,-3.5644,0.0,0.0,0.0,0.0,-3.6684,-3.6843,-3.6603,-3.6825,-3.7154,-3.6941,-3.7018,-3.7209,-3.7209,-3.7209,-3.7266,-3.7524,-3.7614,-3.7685,-3.7999,-3.8066,-3.8066,-3.8066,-3.8066,-3.8066,-3.8066,-3.8066,-3.8066,-3.8066,-3.8066,0.0,-3.7096,-3.7171,-3.7422,-3.7753,-3.7514,-3.7422,-3.7753,-3.7514,-3.7477,-3.7936,-3.7991,-3.8193,-3.867,-3.9019,0.0,0.0,0.0,-3.9421,-3.9922,-4.027,0.0,0.0,0.0,-4.0405,-3.9216,-4.0064,0.0,0.0,-3.9726,-3.9712,0.0,0.0,0.0,0.0,0.0,0.0,0.0,0.0,0.0,0.0,0.0,0.0,0.0,0.0,0.0,0.0,-3.5616,-3.4734,-3.48,-3.5324,-3.5625,-3.5396,-3.5599,-3.5669,-3.5497,-3.5578,-3.5607,-3.5596,-3.5696,-3.5728,-3.5728,-3.5808,0.0,0.0,0.0,-3.6088,-3.6816,-3.6734,-3.7101,-3.7883,-3.7883,-3.7511,-3.6816,-3.6816,-3.6816,-3.6816,-3.6734,-3.6729,-3.678,-3.6696,-3.6184,-3.5492,-3.5577,-3.56,-3.56,-3.56,-3.5898,-3.6245,-3.5761,0.0,0.0,-3.646,-3.6623,-3.702,-3.702,-3.702,-3.702,-3.7078,-3.7097,-3.7116,-3.7173,-3.7209,-3.7209,-3.7209,-3.7209,-3.7209,-3.7209,-3.7209,-3.7209,-3.7209,-3.7209,-3.7323,-3.7755,-3.8267,-3.8865,-3.9662,-3.9166,-3.8964,-3.9662,-3.9148,-3.8726,-3.8836,-3.8836,0.0,-3.8836,-3.9478,-3.9588,-3.8891,-3.9588,-4.0359,-4.1058,-4.1791,-4.1827,-4.1113,-4.1095,-4.0398,-3.8982,-3.968,-4.0029,-4.006,-4.0646,-4.0471,0.0,0.0,0.0,0.0,0.0,0.0,0.0,0.0,0.0,0.0,0.0,0.0,0.0,0.0,0.0,-3.6621,-3.5974,-3.5583,-3.6057,-3.6231,-3.5739,-3.4173,-3.5481,-3.6031,-3.488,-3.5273,-3.5609,-3.5616,-3.6155,-3.6502,-3.6502,-3.7045,-3.7377,-3.7377,-3.6789,-3.6858,-3.756,-3.6998,-3.7081,-3.7818,-3.7818,0.0,-3.7605,-3.7605,-3.7605,-3.7544,-3.6966,-3.6712,-3.6671,-3.6084,-3.5414,-3.4847,-3.5385,-3.56,-3.56,-3.56,-3.5667,-3.5739,-3.5644,-3.5739,-3.5898,-3.5805,-3.581,-3.592,-3.592,-3.592,0.0,-3.6437,-3.6542,-3.6643,-3.7095,-3.7209,-3.7209,-3.7209,-3.7209,-3.7209,-3.7209,-3.7209,-3.7209,-3.7209,-3.7209,-3.7229,-3.7323,-3.7738,-3.8254,-3.8844,-3.8799,-3.8762,-3.8909,-3.8799,-3.8946,-3.9588,-3.9662,-3.9662,-3.9662,-3.9808,-3.9827,-3.968,-4.0432,-4.093,-4.1095,-4.1242,-4.126,-4.1095,-4.1095,-4.0948,-4.0636,-4.0783,-4.0873,-4.0873,-4.0996,-4.0948,0.0,0.0,0.0,0.0,0.0,0.0,0.0,0.0,0.0,0.0,0.0,-3.8395,-3.8361,0.0,-3.6799,-3.7058,-3.6508,-3.6176,-3.646,-3.6819,-3.6542,-3.5222,-3.5685,-3.5857,-3.5112,-3.5357,-3.5544,-3.5534,-3.5904,-3.609,-3.609,-3.6445,-3.6662,-3.6662,-3.629,-3.6441,-3.7203,-3.6827,-3.7049,-3.7793,-3.7793,-3.7602,-3.7203,-3.7203,-3.7203,-3.7188,-3.6812,-3.6664,-3.6632,-3.5535,-3.4711,-3.4137,-3.4471,-3.48,-3.5098,-3.5098,-3.5299,-3.56,-3.56,-3.56,-3.56,-3.56,-3.56,-3.56,-3.56,-3.56,-3.5667,-3.592,-3.6006,-3.6054,-3.6316,-3.6399,-3.6399,-3.6399,-3.6399,-3.6399,-3.6399,-3.6399,-3.6399,-3.6399,-3.6399,-3.6481,-3.6764,-3.7001,-3.7341,-3.7861,-3.7948,-3.7948,-3.7948,-3.815,-3.8445,-3.8846,-3.9132,-3.946,-3.9863,-4.0267,-4.0506,-4.0506,-4.1258,-4.1699,-4.1699,-4.2084,-4.2121,-4.1717,-4.1699,-4.1515,-4.1095,-4.1515,-4.1699,-4.1717,-4.2121,-4.2084,0.0,0.0,0.0,0.0,0.0,0.0,0.0,-3.9649,-3.9682,-3.9068,-3.8768,-3.8619,-3.8553,-3.7962,-3.7488,-3.751,-3.7048,-3.672,-3.6842,-3.7382,-3.7544,-3.6944,-3.6358,-3.5841,-3.5522,-3.5508,-3.5491,-3.5492,-3.5504,-3.5504,-3.5504,-3.5504,-3.5504,-3.5504,-3.5504,-3.5782,-3.6384,-3.6384,-3.6722,-3.7354,-3.7354,-3.7025,-3.6384,-3.6384,-3.6384,-3.6384,-3.6384,-3.6433,-3.6356,-3.497,-3.4064,-3.354,-3.3282,-3.3608,-3.4235,-3.4358,-3.4823,-3.5407,-3.5407,-3.5492,-3.56,-3.56,-3.56,-3.56,-3.56,-3.56,-3.56,-3.56,-3.56,-3.56,-3.56,-3.56,-3.56,-3.56,-3.56,-3.56,-3.56,-3.56,-3.56,-3.56,-3.56,-3.5739,-3.6182,-3.6228,-3.646,-3.7097,-3.7209,-3.7209,-3.7209,-3.7524,-3.7827,-3.7953,-3.8369,-3.8931,-3.975,-4.0638,-4.1164,-4.1164,-4.2016,-4.2525,-4.2525,-4.3149,-4.3185,-4.2543,-4.244,-4.2059,-4.1401,-4.2059,-4.2388,-4.2406,-4.3151,-4.3149,-3.8227,-3.9648,-4.0899,-4.1728,-4.1491,-4.1068,0.0,-3.9924,-3.8908,-3.8826,-3.8209,-3.7642,-3.7642,-3.7084,-3.6832,-3.7405,-3.7392,-3.7526,-3.8112,-3.8247,-3.8266,-3.8185,-3.7701,-3.6892,-3.5608,-3.5514,-3.5512,-3.5504,-3.5504,-3.5504,-3.5504,-3.5504,-3.5504,-3.5504,-3.5504,-3.5537,-3.5619,-3.5619,-3.5683,-3.5765,-3.5765,-3.5701,-3.5619,-3.5619,-3.5619,-3.5606,-3.5631,-3.5625,-3.5545,-3.4177,-3.3584,-3.3404,-3.2192,-3.2188,-3.2895,-3.3479,-3.4137,-3.4712,-3.4712,-3.5098,-3.56,-3.56,-3.56,-3.56,-3.56,-3.56,-3.56,-3.56,-3.56,-3.56,-3.56,-3.56,-3.56,-3.56,-3.56,-3.56,-3.56,-3.56,-3.56,-3.56,-3.56,-3.5622,-3.5672,-3.5694,-3.6032,-3.7039,-3.7209,-3.7209,-3.7209,-3.7247,-3.7514,-3.8185,-3.8294,-3.8652,-3.9396,-4.0629,-4.1378,-4.1378,-4.2611,-4.3369,-4.3369,-4.346,-4.346,-4.3369,-4.2905,-4.2607,-4.2517,-4.2607,-4.2662,-4.2681,-4.3231,-4.346,-3.9884,-4.1035,-4.1914,-4.2219,-4.2066,-4.1589,-4.0665,-4.0249,-3.9792,-3.8885,-3.839,-3.8263,-3.8654,-3.8121,-3.7819,-3.8501,-3.8587,-3.8676,-3.8945,-3.899,-3.899,-3.899,-3.8435,-3.754,-3.6196,-3.6073,-3.5923,-3.5534,-3.5504,-3.5504,-3.5504,-3.5504,-3.5504,-3.5504,-3.5504,-3.5504,-3.5504,-3.5504,-3.5504,-3.5504,-3.5504,-3.5504,-3.5504,-3.5504,-3.5504,-3.5489,-3.5495,-3.5289,-3.4865,-3.4319,-3.3621,-3.2863,-3.2315,-3.2028,-3.2064,-3.2761,-3.3443,-3.4012,-3.4012,-3.4471,-3.5028,-3.5028,-3.5276,-3.56,-3.56,-3.56,-3.56,-3.56,-3.56,-3.56,-3.56,-3.56,-3.56,-3.56,-3.56,-3.56,-3.56,-3.56,-3.56,-3.56,-3.56,-3.56,-3.56,-3.56,-3.5761,-3.6207,-3.627,-3.627,-3.627,-3.6925,-3.7769,-3.8826,-3.936,-3.9767,-4.0064,-4.104,-4.1627,-4.1627,-4.2187,-4.2523,-4.2523,-4.2523,-4.2523,-4.2523,-4.2284,-4.2183,-4.2183,-4.2183,-4.2362,-4.2711,-4.2939,-4.3196,-4.1457,-4.2202,-4.2658,-4.2861,-4.276,-4.2301,-4.1097,-4.0918,-4.0637,-3.9421,-3.8975,-3.8953,-3.9443,-3.9067,-3.8841,-3.9298,-3.9388,-3.9388,-3.9388,-3.9388,-3.9388,-3.9388,-3.8975,-3.8242,-3.712,-3.6686,-3.6297,-3.5804,-3.5609,-3.5504,-3.5504,-3.5504,-3.5504,-3.5504,-3.5504,-3.5504,-3.5504,-3.5504,-3.5504,-3.5504,-3.5504,-3.5504,-3.5504,-3.5504,-3.5504,-3.5504,-3.5504,-3.522,-3.4741,-3.4593,-3.3918,-3.3021,-3.2632,-3.2183,-3.1837,-3.2153,-3.2734,-3.3313,-3.3313,-3.3761,-3.4333,-3.4333,-3.464,-3.5091,-3.527,-3.5316,-3.5362,-3.5538,-3.56,-3.56,-3.56,-3.56,-3.56,-3.56,-3.56,-3.56,-3.56,-3.56,-3.56,-3.56,-3.56,-3.56,-3.56,-3.56,-3.5667,-3.591,-3.5943,-3.5943,-3.5943,-3.7086,-3.8281,-3.9172,-3.9988,-4.0464,-4.0464,-4.113,-4.1556,-4.1556,-4.1707,-4.181,-4.181,-4.181,-4.181,-4.181,-4.1643,-4.1556,-4.1556,-4.1556,-4.1789,-4.2203,-4.2362,-4.2656,-4.3149,-4.3341,-4.3555,-4.4344,-4.3944,-4.3334,-4.3238,-4.2014,-4.0865,-4.066,-3.9949,-3.94,-3.9415,-3.9394,-3.9394,-3.9388,-3.9388,-3.9388,-3.9388,-3.9388,-3.9388,-3.9388,-3.9394,-3.911,-3.8407,-3.721,-3.6477,-3.6462,-3.5863,-3.5504,-3.5504,-3.5504,-3.5504,-3.5504,-3.5504,-3.5504,-3.5504,-3.5504,-3.5504,-3.5504,-3.5504,-3.5504,-3.5504,-3.5504,-3.5504,-3.5504,-3.5504,-3.5489,-3.5429,-3.4788,-3.4488,-3.4324,-3.3021,-3.2497,-3.2378,-3.1764,-3.2007,-3.2641,-3.2641,-3.3066,-3.3633,-3.3633,-3.3633,-3.3786,-3.4431,-3.4624,-3.4759,-3.5424,-3.56,-3.56,-3.56,-3.56,-3.56,-3.56,-3.56,-3.56,-3.56,-3.56,-3.56,-3.56,-3.56,-3.56,-3.56,-3.56,-3.5853,-3.666,-3.6761,-3.6761,-3.6761,-3.8048,-3.8969,-3.9028,-3.9671,-4.0112,-4.0112,-4.0607,-4.0926,-4.0926,-4.1468,-4.181,-4.181,-4.181,-4.181,-4.181,-4.1223,-4.0926,-4.0926,-4.0926,-4.0926,-4.0972,-4.1556,-4.1853,-4.3978,-4.4198,-4.4248,-4.4547,-4.4412,-4.3877,-4.272,-4.2012,-4.1307,-4.0085,-3.961,-3.9559,-3.9993,-3.9709,-3.9574,-3.9993,-3.9709,-3.9388,-3.9388,-3.9388,-3.9388,-3.9388,-3.9388,-3.9334,-3.9095,-3.8272,-3.7569,-3.7135,-3.6507,-3.6148,-3.6148,-3.5744,-3.5504,-3.5504,-3.5504,-3.5504,-3.5504,-3.5504,-3.5504,-3.5504,-3.5504,-3.5504,-3.5504,-3.5504,-3.5504,-3.5504,-3.5504,-3.5504,-3.5489,-3.525,-3.4891,-3.4414,-3.3499,-3.2901,-3.2407,-3.175,-3.1668,-3.1881,-3.1881,-3.2355,-3.2949,-3.2949,-3.3235,-3.3633,-3.3862,-3.3937,-3.3987,-3.4227,-3.4592,-3.4941,-3.4941,-3.527,-3.56,-3.56,-3.56,-3.56,-3.56,-3.56,-3.56,-3.56,-3.56,-3.56,-3.56,-3.6045,-3.6806,-3.8058,-3.7838,-3.7702,-3.8193,-3.8684,-3.9174,-3.969,-3.996,-4.0096,-4.0096,-4.0279,-4.0368,-4.0368,-4.0546,-4.0666,-4.0666,-4.0666,-4.0666,-4.0666,-4.0466,-4.0368,-4.0368,-4.0368,-4.0552,-4.0903,-4.111,-4.1424,-4.4479,-4.4615,-4.4615,-4.4615,-4.4615,-4.415,-4.241,-4.1997,-4.1511,-3.9773,-3.9604,-3.9903,-4.0322,-4.0053,-3.9993,-4.0651,-4.0202,-3.9768,-3.9768,-3.9768,-3.9679,-3.9454,-3.9388,-3.9388,-3.9388,-3.902,-3.8482,-3.7808,-3.718,-3.6716,-3.6492,-3.6088,-3.5744,-3.5519,-3.5504,-3.5504,-3.5504,-3.5504,-3.5504,-3.5504,-3.5504,-3.5504,-3.5504,-3.5504,-3.5504,-3.5504,-3.5504,-3.5504,-3.5504,-3.5504,-3.525,-3.4786,-3.4098,-3.344,-3.2781,-3.2093,-3.1705,-3.1511,-3.1511,-3.1796,-3.2203,-3.2203,-3.2489,-3.2891,-3.3156,-3.3235,-3.3287,-3.3531,-3.3912,-3.4235,-3.4235,-3.4568,-3.4887,-3.4887,-3.4887,-3.4887,-3.4887,-3.4887,-3.4887,-3.4887,-3.4887,-3.497,-3.5195,-3.6302,-3.759,-3.8811,-3.8819,-3.8853,-3.9326,-3.9402,-3.9571,-4.0045,-4.0096,-4.0096,-4.0096,-4.0096,-4.0096,-4.0096,-4.0096,-4.0096,-4.0096,-4.0096,-4.0096,-4.0096,-4.0096,-4.0096,-4.0096,-4.0096,-4.0286,-4.0607,-4.0607,-4.0821,-4.4547,-4.4581,-4.4615,-4.4615,-4.457,-4.4093,-4.2379,-4.1965,-4.1461,-3.9783,-3.9963,-4.0427,0.0,-4.0442,-4.0621,-4.1265,-4.0801,-4.0352,-4.0352,-4.0352,-4.0113,-3.9499,-3.9388,0.0,0.0,-3.9388,-3.9155,-3.8497,-3.7838,-3.721,-3.6611,-3.6522,-3.6207,-3.5579,-3.5519,-3.5504,-3.5504,-3.5504,-3.5504,-3.5504,-3.5504,-3.5504,-3.5504,-3.5504,-3.5504,-3.5504,-3.5504,-3.5504,-3.5504,-3.5504,-3.5504,-3.5429,-3.4741,-3.4129,-3.3469,-3.2766,-3.2108,-3.16,-3.157,-3.1525,-3.1511,-3.1511,-3.1511,-3.164,-3.2327,-3.2532,-3.2668,-3.3313,-3.3521,-3.3547,-3.3547,-3.3556,-3.3582,-3.3582,-3.3582,-3.3582,-3.3582,-3.3582,-3.3582,-3.3582,-3.364,-3.3886,-3.4595,-3.6393,-3.8018,-3.8824,-3.9581,-4.0045,-4.0096,-4.0096,-4.0096,-4.0096,-4.0096,-4.0096,-4.0096,-4.0096,-4.0096,-4.0096,-4.0096,-4.0096,-4.0096,-4.0096,-4.0096,-4.0096,-4.0096,-4.0096,-4.0096,-4.0096,-4.0096,-4.0096,-4.0096,-4.0096,-4.3724,-4.413,-4.4615,-4.4615,-4.4093,-4.3336,-4.2252,-4.1511,-4.0864,-4.0278,-4.0277,-4.0696,-4.1722,-4.1055,-4.0621,-4.1265,-4.0412,-3.9664,-3.9664,-3.9664,-3.9604,-3.9403,0.0,-3.9388,-3.9388,-3.9388,-3.9313,-3.917,-3.8527,-3.8078,-3.7913,-3.7,-3.6417,-3.6237,-3.5759,-3.5504,-3.5504,-3.5504,-3.5504,-3.5504,-3.5504,-3.5504,-3.5504,-3.5504,-3.5504,-3.5504,-3.5504,-3.5504,-3.5504,-3.5504,-3.5504,-3.5429,-3.4741,-3.4414,-3.4114,-3.2946,-3.2721,-3.2916,-3.2437,-3.1914,-3.1511,-3.1511,-3.1511,-3.1539,-3.171,-3.1768,-3.1824,-3.2007,-3.2422,-3.2841,-3.2841,-3.3251,-3.3582,-3.3582,-3.3582,-3.3582,-3.3582,-3.3582,-3.3582,-3.3582,-3.4014,-3.4739,-3.597,-3.6621,-3.7233,-3.8005,-3.8728,-3.9437,-4.002,-4.0096,-4.0096,-4.0096,-4.0096,-4.0096,-4.0096,-4.0096,-4.0096,-4.0096,-4.0096,-4.0096,-4.0096,-4.0096,-4.0096,-4.0096,-4.0096,-4.0096,-4.0096,-4.0096,-4.0096,-4.0096,-4.0096,-4.0096,-4.3842,-4.4248,-4.4615,-4.4615,-4.4224,-4.3598,-4.2639,-4.2053,-4.1454,-4.0586,-4.0621,-4.1055,-4.1826,-4.1085,-4.0711,-4.1692,-4.0711,-3.9843,-3.9843,-3.9843,-3.9738,0.0,-3.9388,0.0,-3.9388,-3.9388,-3.9388,-3.9388,-3.9065,-3.8706,-3.8407,-3.7704,-3.7075,-3.6507,-3.6133,-3.5804,-3.5504,-3.5504,-3.5504,-3.5504,-3.5504,-3.5504,-3.5504,-3.5504,-3.5504,-3.5504,-3.5504,-3.5504,-3.5504,-3.5504,-3.5504,-3.5474,-3.5085,-3.4773,-3.4459,-3.3993,-3.3679,-3.3484,-3.341,-3.2946,-3.2318,-3.2034,-3.1735,-3.1511,-3.1511,-3.1511,-3.1511,-3.1511,-3.1796,-3.212,-3.212,-3.2394,-3.2691,-3.2691,-3.2691,-3.2691,-3.2691,-3.2897,-3.3193,-3.3504,-3.411,-3.4896,-3.6038,-3.6445,-3.6909,-3.7684,-3.8149,-3.8596,-3.9022,-3.9679,-3.9952,-3.961,-3.9901,-3.9825,-3.9146,-3.9705,-3.9952,-3.961,-3.9901,-4.0096,-4.0096,-4.0096,-4.0096,-4.0096,-4.0096,-4.0096,-4.0096,-4.0096,-4.0096,-4.0096,-4.0096,-4.0096,-4.4124,-4.4445,-4.4615,-4.4615,-4.4514,-4.419,-4.3218,-4.2842,-4.2291,-4.0825,-4.0905,-4.128,-4.1369,-4.0846,-4.0771,-4.1961,0.0,-4.0277,-4.0277,-4.0277,-4.0053,-3.9448,-3.9388,-3.9388,-3.9388,-3.9265,-3.9265,-3.9388,-3.9265,-3.8996,-3.8556,-3.8437,-3.7759,-3.6339,-3.6205,-3.5892,-3.5326,-3.5294,-3.5294,-3.5294,-3.5294,-3.5294,-3.5326,-3.5439,-3.5504,-3.5504,-3.5504,-3.5504,-3.5504,-3.5504,-3.5504,-3.5504,-3.5504,-3.513,-3.4713,-3.5295,-3.4816,-3.3963,-3.4474,-3.4233,-3.3619,-3.2781,-3.2108,-3.1615,-3.1525,-3.1511,-3.1511,-3.1511,-3.1511,-3.1511,-3.1511,-3.1511,-3.1511,-3.1511,-3.157,-3.163,-3.163,-3.2153,-3.2841,-3.3499,-3.4114,-3.4723,-3.5461,-3.6091,-3.6676,-3.7383,-3.7589,-3.7632,-3.7632,-3.8914,-3.9532,-3.8827,-3.9385,-3.9252,-3.7892,-3.9119,-3.9636,-3.8935,-3.9662,-4.0096,-4.0096,-4.0096,-4.0096,-4.0096,-4.0096,-4.0096,-4.0096,-4.0096,-4.0096,-4.0096,-4.0096,-4.0096,-4.2658,-4.3633,-4.4615,-4.4615,-4.4064,-4.3427,-4.3089,-4.1996,0.0,0.0,-4.0876,-4.0726,-4.128,-4.0846,-4.0472,-4.0711,-4.0098,-3.9553,-3.9553,-3.9553,-3.9544,0.0,-3.9388,-3.9388,-3.9388,-3.8583,-3.8472,-3.9337,-3.8583,-3.8413,-3.9173,-3.8691,-3.7451,-3.5348,-3.4714,-3.4395,-3.4245,-3.4245,-3.4245,-3.4245,-3.4245,-3.4245,-3.4279,-3.5133,-3.5504,-3.5504,-3.5504,-3.5504,-3.5504,-3.5504,-3.5504,-3.5504,-3.5504,-3.5429,-3.534,-3.5459,-3.5699,-3.5908,-3.5474,-3.525,-3.4861,-3.3095,-3.2407,-3.2213,-3.1675,-3.1511,-3.1511,-3.1511,-3.1511,-3.1511,-3.1511,-3.1511,-3.1511,-3.1511,-3.1914,-3.2318,-3.2318,-3.2856,-3.3514,-3.4219,-3.4429,-3.4715,-3.5398,-3.5625,-3.5733,-3.5878,-3.6415,-3.6813,-3.6813,-3.7616,-3.8149,-3.8007,-3.8121,-3.8092,-3.7822,-3.8608,-3.9059,-3.8908,-3.9662,-4.0096,-4.0096,-4.0096,-4.0096,-4.0096,-4.0096,-4.0096,-4.0096,-4.0096,-4.0096,-4.0096,-4.0096,-4.0096,-4.2777,-4.3707,-4.4615,-4.4615,-4.4298,-4.3803,-4.3154,0.0,0.0,0.0,-4.0621,-4.0502,-4.0816,-4.0337,-4.0008,-4.0337,-3.9843,-3.9388,-3.9388,-3.9388,-3.9388,-3.9388,-3.9388,-3.9388,-3.9388,-3.8435,-3.7994,-3.8546,-3.7572,-3.7686,-3.9301,-3.822,-3.6686,-3.4735,-3.4043,-3.3565,-3.3276,-3.3276,-3.3276,-3.3276,-3.3276,-3.3276,-3.3276,-3.3754,-3.3973,-3.3973,-3.3973,-3.4259,-3.4725,-3.4725,-3.5019,-3.5504,-3.5504,-3.5504,-3.5594,-3.6252,-3.6492,-3.6537,-3.6881,-3.6567,-3.5804,-3.4502,-3.3365,-3.2452,-3.2108,-3.178,-3.1511,-3.1511,-3.1511,-3.1511,-3.1511,-3.1765,-3.2019,-3.2019,-3.2512,-3.3125,-3.3469,-3.3784,-3.4203,-3.4876,-3.5011,-3.5115,-3.5444,-3.5504,-3.5504,-3.5504,-3.5814,-3.6023,-3.6023,-3.6368,-3.6738,-3.713,-3.7544,-3.7472,-3.6662,-3.7645,-3.8145,-3.7729,-3.8469,-3.8914,-3.8914,-3.8914,-3.8914,-3.8914,-3.9279,-3.9489,-3.9489,-3.9901,-4.0096,-4.0096,-4.0096,-4.0096,-4.3223,-4.3995,-4.4615,-4.4615,-4.435,-4.3914,-4.317,-4.2633,0.0,-4.0674,-4.0292,-4.0187,-4.0187,-3.9768,-3.9553,-4.0113,-3.9873,-3.9574,-3.9403,-3.9508,-3.9574,0.0,-3.9544,0.0,-3.9068,-3.8237,-3.7615,-3.7472,-3.6682,-3.693,-3.8605,-3.7083,-3.5531,-3.4128,-3.3451,-3.285,-3.2321,-3.2321,-3.2321,-3.2321,-3.2321,-3.2321,-3.2321,-3.25,-3.2593,-3.2593,-3.2593,-3.3031,-3.3705,-3.391,-3.4476,-3.518,-3.518,-3.518,-3.5314,-3.6442,-3.6594,-3.6361,-3.756,-3.733,-3.6372,-3.5714,-3.4247,-3.2721,-3.2721,-3.2138,-3.157,-3.1854,-3.1824,-3.175,-3.1884,-3.2303,-3.2766,-3.2901,-3.332,-3.3888,-3.4578,-3.4728,-3.4861,-3.54,-3.5504,-3.5504,-3.5504,-3.5504,-3.5504,-3.5504,-3.5504,-3.5504,-3.5504,-3.5504,-3.5733,-3.6306,-3.6935,-3.6814,-3.5587,-3.6768,-3.7263,-3.6646,-3.7368,-3.7793,-3.7793,-3.7793,-3.7793,-3.7793,-3.8358,-3.8663,-3.8663,-3.9463,-3.9833,-3.985,-4.002,-4.0096,-4.3375,-4.3995,-4.4615,-4.4615,-4.3545,-4.2588,-4.2928,0.0,-4.009,-4.0347,-3.9933,-3.9514,-3.9514,-3.9454,-3.9403,-3.9463,-3.9963,-4.0113,-3.9514,-3.9933,-4.0083,-3.9448,0.0,0.0,-3.8089,-3.7543,-3.6979,-3.6397,-3.6251,-3.629,-3.6487,-3.4965,-3.3767,-3.3144,-3.247,-3.1874,-3.1328,-3.1315,-3.1315,-3.1315,-3.1315,-3.1315,-3.1352,-3.2213,-3.2593,-3.2593,-3.2593,-3.2629,-3.2784,-3.3671,-3.4061,-3.4129,-3.4129,-3.4129,-3.4216,-3.4943,-3.5195,-3.5285,-3.6312,-3.6582,-3.6372,-3.5714,-3.4562,-3.341,-3.341,-3.2497,-3.175,-3.2976,-3.2886,-3.2557,-3.3155,-3.3365,-3.3559,-3.4189,-3.4369,-3.4608,-3.5265,-3.5415,-3.5429,-3.5489,-3.5504,-3.5504,-3.5504,-3.5504,-3.5504,-3.5504,-3.5504,-3.5504,-3.5504,-3.5504,-3.5537,-3.5587,-3.5683,-3.5651,-3.5504,-3.6259,-3.6676,-3.66,-3.7368,-3.7793,-3.7793,-3.7793,-3.7793,-3.7793,-3.7879,-3.7892,-3.7892,-3.8635,-3.9016,-3.9032,-3.9756,-4.0096,-4.3274,-4.3639,-4.3876,-4.3876,-4.3058,-4.2157,-4.182,0.0,-4.022,-3.986,-3.9604,-3.9388,-3.9388,-3.9388,-3.9388,-3.9388,-3.9634,-3.9858,-3.9993,-4.0232,-4.0307,-4.0038,-4.0247,-3.9743,0.0,-3.7091,-3.5967,-3.447,-3.4332,-3.4332,-3.4332,-3.4357,-3.3759,-3.2575,-3.1957,-3.1367,-3.0855,-3.0509,-3.0343,-3.0343,-3.0343,-3.0343,-3.0381,-3.0746,-3.0921,-3.0921,-3.0921,-3.123,-3.1779,-3.2177,-3.2629,-3.3171,-3.3171,-3.3171,-3.3311,-3.4544,-3.4998,-3.521,-3.6575,-3.6791,-3.6447,-3.6178,-3.5175,-3.4114,-3.4114,-3.344,-3.2826,-3.335,-3.3305,-3.3155,-3.3425,-3.3784,-3.4262,-3.4936,-3.51,-3.5175,-3.5444,-3.5504,-3.5504,-3.5504,-3.5504,-3.5504,-3.5504,-3.5504,-3.5504,-3.5504,-3.5504,-3.5504,-3.5504,-3.5504,-3.5504,-3.5504,-3.5504,-3.5504,-3.5504,-3.5782,-3.5943,-3.5943,-3.6258,-3.6399,-3.6399,-3.6399,-3.6399,-3.6399,-3.6844,-3.7084,-3.7084,-3.7847,-3.8469,-3.8908,-3.9236,-3.9636,-4.3217,-4.3223,-4.3081,-4.3081,-4.2292,-4.142,0.0,0.0,-3.9845,-3.9238,-3.911,-3.911,-3.911,-3.911,-3.9185,-3.9394,-3.9304,-3.9387,-3.9846,-3.9789,-3.9715,-3.9662,0.0,-3.9204,-3.731,-3.6017,-3.4678,-3.3197,-3.3124,-3.3124,-3.3124,-3.3839,-3.3598,-3.2227,-3.1675,-3.1135,-3.062,-3.0068,-2.9792,-2.9792,-2.9792,-2.9792,-2.9792,-2.9792,-2.9792,-2.9792,-2.9792,-3.0177,-3.0796,-3.1068,-3.1609,-3.2177,-3.2177,-3.2177,-3.2326,-3.3471,-3.3888,-3.4087,-3.5488,-3.5697,-3.5346,-3.5346,-3.4898,-3.4342,-3.4342,-3.3955,-3.3574,-3.3978,-3.4083,-3.4083,-3.4083,-3.4427,-3.4906,-3.5385,-3.5504,-3.5504,-3.5504,-3.5504,-3.5504,-3.5504,-3.5504,-3.5504,-3.5504,-3.5504,-3.5504,-3.5504,-3.5504,-3.5504,-3.5504,-3.5504,-3.5504,-3.5504,-3.5504,-3.5504,-3.5504,-3.5504,-3.5504,-3.5504,-3.5504,-3.5504,-3.5504,-3.5504,-3.5504,-3.5504,-3.6006,-3.6275,-3.6275,-3.707,-3.7703,-3.823,-3.8453,-3.9005,-4.3217,-4.2878,-4.2303,-4.2303,-4.1099,-4.0094,0.0,-3.9632,-3.8427,-3.8407,-3.8407,-3.8407,-3.8407,-3.8407,-3.8616,-3.9305,-3.9088,-3.8803,-3.8726,-3.8354,-3.8076,0.0,-3.8517,-3.8041,-3.5754,-3.4076,-3.3124,-3.3124,-3.3124,-3.3124,-3.3124,-3.3124,-3.2847,-3.2227,-3.1675,-3.1135,-3.062,-3.0068,-2.9792,-2.9792,-2.9792,-2.9792,-2.9792,-2.9792,-2.9792,-2.9792,-2.9792,-2.9792,-2.9908,-3.0833,-3.1217,-3.1217,-3.1217,-3.1217,-3.1217,-3.1217,-3.1254,-3.1365,-3.2335,-3.2656,-3.2642,-3.2642,-3.3276,-3.4013,-3.4013,-3.3768,-3.3784,-3.5115,-3.5489,-3.5489,-3.5489,-3.5489,-3.5489,-3.5504,-3.5504,-3.5504,-3.5504,-3.5504,-3.5504,-3.5504,-3.5504,-3.5504,-3.5504,-3.5504,-3.5504,-3.5504,-3.5504,-3.5504,-3.5504,-3.5504,-3.5504,-3.5504,-3.5504,-3.5504,-3.5504,-3.5504,-3.5504,-3.5504,-3.5504,-3.5504,-3.5504,-3.5504,-3.5504,-3.5504,-3.5504,-3.5504,-3.5504,-3.6244,-3.6615,-3.663,-3.7456,-3.8206,-4.4012,-4.3656,-4.3064,-4.3064,-4.1811,-4.0623,-4.0863,-3.9583,-3.8392,-3.8392,-3.8033,-3.7853,-3.8302,-3.8392,-3.8616,-3.9305,-3.867,-3.8395,-3.9204,-3.9293,0.0,-3.9086,-3.7875,-3.6484,-3.5092,-3.3815,-3.3124,-3.3124,-3.3124,-3.3124,-3.3124,-3.3124,-3.2993,-3.2805,-3.2252,-3.1687,-3.1148,-3.062,-3.0168,-2.9792,-2.9792,-2.9792,-2.9792,-2.9792,-2.9792,-2.9792,-2.9792,-2.9792,-2.983,-3.0101,-3.0241,-3.0241,-3.0241,-3.0241,-3.0317,-3.097,-3.1217,-3.1315,-3.2285,-3.2593,-3.2593,-3.2593,-3.282,-3.3031,-3.3031,-3.3902,-3.4966,-3.5385,-3.5504,-3.5504,-3.5504,-3.5504,-3.5504,-3.5504,-3.5504,-3.5504,-3.5504,-3.5504,-3.5504,-3.5504,-3.5504,-3.5504,-3.5504,-3.5504,-3.5504,-3.5504,-3.5504,-3.5504,-3.5504,-3.5504,-3.5504,-3.5504,-3.5504,-3.5504,-3.5504,-3.5504,-3.5504,-3.5504,-3.5504,-3.5504,-3.5504,-3.5504,-3.5504,-3.5504,-3.5504,-3.5504,-3.5504,-3.5718,-3.6117,-3.66,-3.7427,-3.8178,-4.4012,-4.3572,-4.2898,-4.2562,-4.1678,-4.0753,-4.0167,-3.918,-3.8257,-3.7764,-3.7345,-3.7255,-3.7898,-3.8018,-3.8212,-3.8708,-3.7904,-3.7615,-3.8835,-3.851,0.0,-3.863,-3.6849,-3.546,-3.5055,-3.4221,-3.3608,-3.3407,-3.3583,-3.352,-3.3106,-3.3269,-3.3294,-3.3124,-3.2516,-3.1951,-3.1399,-3.0871,-3.0331,-2.9792,-2.9792,-2.9792,-2.9792,-2.9792,-2.9792,-2.9792,-2.9792,-2.9792,0.0,-2.9792,-2.9792,-2.9792,-2.9792,-2.9792,-2.9856,-3.0457,-3.0658,-3.0771,-3.1341,-3.1549,-3.1549,-3.1549,-3.1792,-3.2141,-3.25,-3.3429,-3.4476,-3.4839,-3.4953,-3.5019,-3.5392,-3.5504,-3.5504,-3.5504,-3.5504,-3.5504,-3.5504,-3.5504,-3.5504,-3.5504,-3.5504,-3.5504,-3.5504,-3.5504,-3.5504,-3.5504,-3.5504,-3.5504,-3.5504,-3.5504,-3.5504,-3.5504,-3.5504,-3.5504,-3.5504,-3.5504,-3.5504,-3.5504,-3.5504,-3.5504,-3.5504,-3.5504,-3.5504,-3.5504,-3.5504,-3.5504,-3.5504,-3.5504,-3.5733,-3.6196,-3.6971,-3.7682,0.0,-4.2912,-4.2233,-4.139,-4.1061,-4.0579,-3.9038,-3.85,0.0,-3.6731,-3.6492,-3.6671,-3.73,-3.7449,-3.7519,-3.7754,-3.6933,-3.6627,-3.7662,-3.6486,0.0,-3.6932,-3.5718,-3.4921,-3.5395,-3.4981,-3.4512,-3.3997,-3.4399,-3.4236,-3.3257,-3.3608,-3.3621,-3.3156,-3.2579,-3.2001,-3.1449,-3.0934,-3.0394,-2.9854,-2.9817,-2.9792,-2.9792,-2.9792,-2.9792,-2.9792,-2.9792,-2.9792,-2.9792,-2.9792,-2.9792,-2.9792,-2.9792,-2.9792,-2.9792,-2.9792,-2.9792,-2.9792,-2.9792,-2.9792,-2.9792,-2.9792,-3.0381,-3.1241,-3.2141,-3.25,-3.2784,-3.3671,-3.391,-3.4129,-3.5133,-3.5392,-3.5392,-3.5472,-3.5439,-3.5392,-3.5392,-3.5392,-3.5392,-3.5392,-3.5439,-3.5504,-3.5504,-3.5504,-3.5472,-3.5392,-3.5457,-3.5472,-3.5392,-3.5472,-3.5504,-3.5504,-3.5504,-3.5504,-3.5504,-3.5504,-3.5504,-3.5504,-3.5504,-3.5504,-3.5504,-3.5504,-3.5504,-3.5504,-3.5504,-3.5504,-3.5504,-3.5549,-3.5579,-3.5594,-3.6252,-3.6953,-4.2557,0.0,-4.3844,-4.2973,-4.2241,-4.1342,0.0,-3.8488,-3.7419,-3.6656,-3.6492,-3.6671,-3.73,-3.7823,-3.8089,-3.7826,-3.7313,-3.6702,-3.6186,-3.5741,0.0,-3.6554,-3.583,-3.5218,-3.4909,-3.4756,-3.4663,-3.4537,-3.4261,-3.4161,-3.4324,-3.3658,-3.3407,-3.3696,-3.3169,-3.2604,-3.2026,-3.1486,-3.0947,-3.0419,-2.9993,-2.9792,-2.9792,-2.9792,-2.9792,-2.9792,-2.9792,-2.9792,-2.9792,-2.9792,-2.9792,-2.9792,-2.9792,-2.9792,-2.9792,-2.9792,-2.9792,-2.9792,-2.9792,-2.9792,-2.9792,-2.9792,-2.9934,-3.0177,-3.0394,-3.1439,-3.2629,-3.289,-3.2925,-3.3136,-3.4095,-3.4361,-3.4543,-3.5326,-3.4905,-3.4361,-3.4361,-3.4361,-3.4361,-3.4361,-3.4986,-3.5504,-3.5504,-3.5504,-3.5246,-3.4461,-3.5019,-3.5213,-3.4461,-3.5019,-3.5504,-3.5504,-3.5504,-3.5504,-3.5504,-3.5504,-3.5504,-3.5504,-3.5504,-3.5504,-3.5504,-3.5504,-3.5504,-3.5504,-3.5504,-3.5504,-3.5504,-3.6013,-3.6252,-3.6267,-3.6896,-3.7552,-4.1796,-4.2408,-4.2827,-4.1959,-4.11,-4.0099,-3.8578,-3.7582,-3.6881,-3.6552,-3.6492,-3.6776,-3.7689,-3.8153,-3.8267,-3.7893,-3.7186,-3.6415,0.0,0.0,-3.6432,-3.6748,-3.5822,-3.5206,-3.5437,-3.5253,-3.5056,-3.5056,-3.5052,-3.4939,-3.4726,-3.4161,-3.3847,-3.3897,-3.337,-3.2805,-3.2227,-3.1675,-3.1135,-3.0608,-3.0055,-2.9792,-2.9792,-2.9792,-2.9792,-2.9792,-2.9792,-2.9792,-2.9792,-2.9792,-2.9792,-2.9792,-2.9792,-2.9792,-2.9792,-2.9792,-2.9792,-2.9792,-2.9792,-2.9792,-2.9792,-2.9792,-2.9792,-2.9792,-2.9792,-3.0495,-3.1415,-3.1829,-3.196,-3.2177,-3.3101,-3.3345,-3.3484,-3.4056,-3.3754,-3.3345,-3.3345,-3.3345,-3.3345,-3.3345,-3.3788,-3.4158,-3.4158,-3.4158,-3.3973,-3.3429,-3.3822,-3.4109,-3.4027,-3.4476,-3.4986,-3.5439,-3.5504,-3.5504,-3.5504,-3.5504,-3.5504,-3.5504,-3.5504,-3.5504,-3.5504,-3.5504,-3.5504,-3.5504,-3.5504,-3.5654,-3.5953,-3.6312,-3.6626,-3.6926,-3.7569,-3.8048,-4.1035,-4.0936,-4.0693,-4.0049,-3.9392,-3.8473,-3.6999,-3.6626,-3.6626,-3.6626,-3.6716,-3.7105,-3.8182,-3.8361,-3.8155,-3.7652,-3.654,-3.5629,-3.5273,-3.6096,-3.6668,-3.6718,-3.5506,-3.5152,-3.6304,-3.5943,-3.5621,-3.5621,-3.6031,-3.5868,-3.5014,-3.4768,-3.4512,-3.4035,-3.3483,-3.293,-3.2353,-3.18,-3.1248,-3.0733,-3.0181,-2.988,-2.9792,-2.9792,-2.9792,-2.9792,-2.9792,-2.9792,-2.9792,-2.9792,-2.9792,-2.9792,-2.9792,-2.9792,-2.9792,-2.9792,-2.9792,-2.9792,-2.9792,-2.9792,-2.9792,-2.9792,-2.9792,-2.9792,-2.9792,-2.9792,-2.9972,-3.0758,-3.097,-3.1217,-3.2141,-3.2393,-3.2429,-3.2558,-3.25,-3.2393,-3.2393,-3.2393,-3.2393,-3.2393,-3.25,-3.2593,-3.2593,-3.2593,-3.2558,-3.2429,-3.25,-3.2855,-3.3484,-3.3705,-3.4109,-3.4953,-3.5067,-3.5067,-3.5067,-3.5067,-3.5115,-3.5246,-3.5439,-3.5504,-3.5504,-3.5504,-3.5504,-3.5504,-3.5609,-3.5923,-3.6492,-3.672,-3.7045,-3.7584,-3.8242,-3.8542,-4.0282,-3.9766,-3.934,-3.9792,-3.9825,-3.9267,-3.7627,-3.727,-3.727,-3.727,-3.7704,-3.8153,-3.8347,-3.8128,-3.7586,-3.659,-3.4843,-3.3704,-3.4103,-3.3926,-3.409,-3.4938,-3.4853,-3.5152,-3.6304,-3.6329,-3.6279,-3.6279,-3.5881,-3.5805,-3.6141,-3.5228,-3.4675,-3.46,-3.406,-3.3508,-3.2955,-3.2365,-3.1813,-3.126,-3.0733,-3.0244,-2.9792,-2.9792,-2.9792,-2.9792,-2.9792,-2.9792,-2.9792,-2.9792,-2.9792,-2.9792,-2.9792,-2.9792,-2.9792,-2.9792,-2.9792,-2.9792,-2.9792,-2.9792,-2.9792,-2.9792,-2.9792,-2.9792,-2.9792,-2.9792,-2.983,-2.996,-2.9998,-3.0241,-3.118,-3.1426,-3.1609,-3.2429,-3.1997,-3.1426,-3.1426,-3.1426,-3.1426,-3.1426,-3.2069,-3.2593,-3.2593,-3.2593,-3.2321,-3.1536,-3.2105,-3.2393,-3.1706,-3.2321,-3.289,-3.3031,-3.3031,-3.3031,-3.3031,-3.3031,-3.3394,-3.4177,-3.5019,-3.5504,-3.5504,-3.5504,-3.5504,-3.5504,-3.6058,-3.6387,-3.6492,-3.7569,-3.8153,-3.8257,-3.8945,-3.926,-4.0096,-3.9516,-3.8881,-3.8811,-3.8421,-3.7732,-3.6172,-3.6103,-3.6582,-3.727,-3.7659,-3.7973,-3.8317,-3.8261,-3.7607,-3.5975,-3.5467,-3.4936,-3.4022,-3.3935,-3.4161,-3.4618,-3.468,-3.5039,-3.5843,-3.5918,-3.6044,-3.6392,-3.6119,-3.6094,-3.6405,-3.5604,-3.4981,-3.4726,-3.4186,-3.3633,-3.3124,-3.2805,-3.239,-3.1825,-3.1009,-3.0482,-3.0231,-2.993,-2.9792,-2.9792,-2.9792,-2.9792,-2.9792,-2.9792,-2.9792,-2.9792,-2.9792,-2.9792,-2.9792,-2.9792,-2.9792,-2.9792,-2.9792,-2.9792,-2.9792,-2.9792,-2.9792,-2.9792,-2.9792,-2.9792,-2.9792,-2.9792,-2.9792,-2.9895,-3.0317,-3.0457,-3.0558,-3.0983,-3.0784,-3.0457,-3.0457,-3.0457,-3.0457,-3.0457,-3.0771,-3.1095,-3.1095,-3.1095,-3.0945,-3.0533,-3.0809,-3.1119,-3.118,-3.1573,-3.2033,-3.2558,-3.2593,-3.2593,-3.2593,-3.2593,-3.2996,-3.3945,-3.4953,-3.5504,-3.5504,-3.5504,-3.5669,-3.6028,-3.6327,-3.6836,-3.7524,-3.8108,-3.8586,-3.896,-3.9275,-3.9388,-3.9876,-3.9368,-3.869,-3.7732,-3.718,-3.6507,-3.5264,-3.5459,-3.6222,-3.721,-3.7404,-3.753,-3.7961,-3.7753,-3.6931,-3.5094,-3.5548,-3.5617,-3.3946,-3.4073,-3.4387,-3.4512,-3.4525,-3.4756,-3.5433,-3.5495,-3.5768,-3.6367,-3.6405,-3.6405,-3.6405,-3.5968,-3.5382,-3.4705,-3.4311,-3.3771,-3.3124,-3.3124,-3.278,-3.2202,-3.1386,-3.0859,-3.0608,-3.0181,-2.9917,-2.9792,-2.9792,-2.9792,-2.9792,-2.9792,-2.9792,-2.9792,-2.9792,-2.9792,-2.9792,-2.9792,-2.9792,-2.9792,-2.9792,-2.9792,-2.9792,-2.9792,-2.9792,-2.9792,-2.9792,-2.9792,-2.9792,-2.9792,-2.9792,-2.9792,-2.9792,-2.9792,-2.9792,-2.9792,-2.9792,-2.9792,-2.9792,-2.9792,-2.9792,-2.9792,-2.9792,-2.9792,-2.9792,-2.9792,-2.9792,-2.9792,-2.9792,-3.0075,-3.0758,-3.0871,-3.1156,-3.1865,-3.1938,-3.1938,-3.1938,-3.2141,-3.2558,-3.331,-3.4259,-3.492,-3.5133,-3.5281,-3.5755,-3.6477,-3.6776,-3.7419,-3.8392,-3.8556,-3.8901,-3.9388,-3.9388,-3.9388,-3.9193,-3.8935,-3.8536,-3.7068,-3.7111,-3.7307,-3.6526,-3.6821,-3.73,-3.7389,-3.7404,-3.7307,-3.699,-3.5861,-3.4598,-3.3462,-3.3326,-3.3333,-3.3174,-3.3212,-3.3382,-3.3897,-3.396,-3.4374,-3.5395,-3.5495,-3.5768,-3.6367,-3.6405,-3.6405,-3.6405,-3.6367,-3.5818,-3.4705,-3.4675,-3.4161,-3.3124,-3.3124,-3.278,-3.2215,-3.2139,-3.1574,-3.062,-3.057,-3.0281,-2.9792,-2.9792,-2.9792,-2.9792,-2.9792,-2.9792,-2.9792,-2.9792,-2.9792,-2.9792,-2.9792,-2.9792,-2.9792,-2.9792,-2.9792,-2.9792,-2.9792,-2.9792,-2.9792,-2.9792,-2.9792,-2.9792,-2.9792,-2.9792,-2.9792,-2.9792,-2.9792,-2.9792,-2.9792,-2.9792,-2.9792,-2.9792,-2.9792,-2.9792,-2.9792,-2.9792,-2.9792,-2.9792,-2.9792,-2.9792,-2.9792,-2.9792,-2.983,-2.9895,-2.9895,-2.9934,-3.0011,-2.9998,-2.9998,-2.9998,-3.0809,-3.1315,-3.1389,-3.2285,-3.3206,-3.4061,-3.4707,-3.5483,-3.6492,-3.7644,-3.8302,-3.8392,-3.9035,-3.9328,-3.9388,-3.9388,-3.9388,-3.9731,-3.9254,-3.8708,-3.812,-3.8023,-3.7706,-3.6214,-3.6372,-3.6941,-3.733,-3.7105,-3.6827,-3.6764,-3.6029,-3.5098,-3.4116,-3.4037,-3.3869,-3.3197,-3.3124,-3.3199,-3.337,-3.3696,-3.4198,-3.4919,-3.5295,-3.5768,-3.6367,-3.6405,-3.6405,-3.6405,-3.6405,-3.5855,-3.4763,-3.468,-3.4198,-3.3124,-3.3124,-3.3011,-3.2754,-3.239,-3.1825,-3.1085,-3.0758,-3.0319,-2.9792,-2.9792,-2.9792,-2.9792,-2.9792,-2.9792,-2.9792,-2.9792,-2.9792,-2.9792,-2.9792,-2.9792,-2.9792,-2.9792,-2.9792,-2.9792,-2.9792,-2.9792,-2.9792,-2.9792,-2.9792,-2.9792,-2.9792,-2.9792,-2.9792,-2.9792,-2.9792,-2.9792,-2.9792,-2.9792,-2.9792,-2.9792,-2.9792,-2.9792,-2.9792,-2.9792,-2.9792,-2.9792,-2.9792,-2.9792,-2.9792,-2.9792,-2.9792,-2.9792,-2.9792,-2.9792,-2.9792,-2.9792,-2.9792,-2.9792,-3.0139,-3.0458,-3.0816,-3.1921,-3.2915,-3.3612,-3.385,-3.4572,-3.5707,-3.6214,-3.6991,-3.8018,-3.8266,-3.8745,-3.9388,-3.9388,-3.9388,-3.9782,-3.9468,-3.9098,-3.8547,-3.8473,-3.8035,-3.6229,-3.6312,-3.6791,-3.6806,-3.6703,-3.6538,-3.6313,-3.6014,-3.543,-3.4254,-3.4108,-3.3953,-3.3197,-3.3124,-3.3124,-3.3124,-3.3407,-3.3922,-3.465,-3.5019,-3.5579,-3.6355,-3.6405,-3.6405,-3.6405,-3.6405,-3.5855,-3.4763,-3.468,-3.4198,-3.3124,-3.3124,-3.3124,-3.3111,-3.2667,-3.219,-3.1625,-3.1097,-3.057,-3.0043,-2.9867,-2.9792,-2.9792,-2.9792,-2.9792,-2.9792,-2.9792,-2.9792,-2.9792,-2.9792,-2.9792,-2.9792,-2.9792,-2.9792,-2.9792,-2.9792,-2.9792,-2.9792,-2.9792,-2.9792,-2.9792,-2.9792,-2.9792,-2.9792,-2.9792,-2.9792,-2.9792,-2.9792,-2.9792,-2.9792,-2.9792,-2.9792,-2.9792,-2.9792,-2.9792,-2.9792,-2.9792,-2.9792,-2.9792,-2.9792,-2.9792,-2.9792,-2.9792,-2.9792,-2.9792,-2.9792,-2.9792,-2.9792,-2.9792,-2.9955,-3.0218,-3.0595,-3.1638,-3.2519,-3.3173,-3.3414,-3.4093,-3.5303,-3.5496,-3.6343,-3.7791,-3.7791,-3.8345,-3.9388,-3.9388,-3.9388,-3.9156,-3.9495,-3.9703,-3.8012,-3.8149,-3.8296,-3.6845,-3.6971,-3.7045,-3.5789,-3.623,-3.6502,-3.5509,-3.5453,-3.5041,-3.3371,-3.3124,-3.3124,-3.3124,-3.3124,-3.3124,-3.3124,-3.3124,-3.3508,-3.4613,-3.468,-3.5177,-3.6317,-3.6405,-3.6405,-3.6405,-3.6405,-3.5855,-3.4763,-3.468,-3.4198,-3.3124,-3.3124,-3.3124,-3.3124,-3.3124,-3.2767,-3.219,-3.165,-3.111,-3.0583,-3.0043,-2.9792,-2.9792,-2.9792,-2.9792,-2.9792,-2.9792,-2.9792,-2.9792,-2.9792,-2.9792,-2.9792,-2.9792,-2.9792,-2.9792,-2.9792,-2.9792,-2.9792,-2.9792,-2.9792,-2.9792,-2.9792,-2.9792,-2.9792,-2.9792,-2.9792,-2.9792,-2.9792,-2.9792,-2.9792,-2.9792,-2.9792,-2.9792,-2.9792,-2.9792,-2.9792,-2.9792,-2.9792,-2.9792,-2.9792,-2.9792,-2.9792,-2.9792,-2.9792,-2.9792,-2.9792,-2.9792,-2.9792,-2.9804,-3.0306,-3.058,-3.0633,-3.111,-3.1807,-3.2752,-3.341,-3.4246,-3.5239,-3.5882,-3.6682,-3.7791,-3.7791,-3.8345,-3.9388,-3.9388,-3.9388,-4.0438,-3.9863,-3.9181,-3.9195,-3.8505,-3.7669,-3.7233,-3.7285,-3.73,-3.6926,-3.7402,-3.7717,-3.7115,-3.6131,-3.5278,-3.4842,-3.3854,-3.3124,-3.3124,-3.3124,-3.3124,-3.3124,-3.3124,-3.3357,-3.4073,-3.45,-3.5014,-3.573,-3.6144,-3.6405,-3.6405,-3.6405,-3.5855,-3.4763,-3.468,-3.4198,-3.3124,-3.3124,-3.3124,-3.3124,-3.3124,-3.2767,-3.2202,-3.2039,-3.1474,-3.0608,-3.0444,-3.0156,-2.9792,-2.9792,-2.9792,-2.9792,-2.9792,-2.9792,-2.9792,-2.9792,-2.9792,-2.9792,-2.9792,-2.9792,-2.9792,-2.9792,-2.9792,-2.9792,-2.9792,-2.9792,-2.9792,-2.9792,-2.9792,-2.9792,-2.9792,-2.9792,-2.9792,-2.9792,-2.9792,-2.9792,-2.9792,-2.9792,-2.9792,-2.9792,-2.9792,-2.9792,-2.9792,-2.9792,-2.9792,-2.9792,-2.9792,-2.9792,-2.9792,-2.9792,-2.9792,-2.9792,-2.9792,-2.9942,-3.0331,-3.052,-3.0934,-3.1687,-3.1876,-3.2088,-3.2352,-3.2587,-3.2992,-3.3736,-3.3933,-3.4884,-3.6682,-3.6682,-3.761,-3.9388,-3.9388,-3.9388,-4.0629,-4.0267,-3.965,-3.917,-3.8748,-3.8279,-3.7906,-3.7599,-3.7479,-3.7749,-3.8332,-3.8578,-3.7884,-3.6821,-3.5868,-3.5266,-3.4016,-3.3124,-3.3124,-3.3124,-3.3124,-3.3124,-3.3124,-3.3294,-3.3847,-3.4399,-3.4906,-3.5458,-3.6056,-3.6405,-3.6405,-3.6405,-3.5855,-3.4763,-3.468,-3.4198,-3.3124,-3.3124,-3.3124,-3.3124,-3.3124,-3.2893,-3.2554,-3.2315,-3.1738,-3.0896,-3.047,-3.0093,-2.9792,-2.9792,-2.9792,-2.9792,-2.9792,-2.9792,-2.9792,-2.9792,-2.9792,-2.9792,-2.9792,-2.9792,-2.9792,-2.9792,-2.9792,-2.9792,-2.9792,-2.9792,-2.9792,-2.9792,-2.9792,-2.9792,-2.9792,-2.9792,-2.9792,-2.9792,-2.9792,-2.9792,-2.9792,-2.9792,-2.9792,-2.9792,-2.9792,-2.9792,-2.9792,-2.9792,-2.9792,-2.9792,-2.9792,-2.9792,-2.9792,-2.9792,-2.9792,-2.9792,-2.9993,-3.0256,-3.0583,-3.1009,-3.1524,-3.2177,-3.2428,-3.2554,-3.2554,-3.2554,-3.2717,-3.3111,-3.3124,-3.394,-3.5588,-3.5588,-3.6462,-3.813,-3.813,-3.813,-4.018,-4.0603,-4.0481,-3.842,-3.8774,-3.944,-3.8579,-3.7973,-3.7764,-3.8362,-3.899,-3.9104,-3.8144,-3.7579,-3.6727,-3.51,-3.3953,-3.3197,-3.3124,-3.3124,-3.3124,-3.3124,-3.3124,-3.3269,-3.3771,-3.4374,-3.4881,-3.5382,-3.6019,-3.6405,-3.6405,-3.6405,-3.5855,-3.4763,-3.468,-3.4198,-3.3124,-3.3124,-3.3124,-3.3124,-3.3124,-3.3124,-3.3056,-3.2528,-3.1964,-3.1336,-3.0319,-2.9842,-2.9792,-2.9792,-2.9792,-2.9792,-2.9792,-2.9792,-2.9792,-2.9792,-2.9792,-2.9792,-2.9792,-2.9792,-2.9792,-2.9792,-2.9792,-2.9792,-2.9792,-2.9792,-2.9792,-2.9792,-2.9792,-2.9792,-2.9792,-2.9792,-2.9792,-2.9792,-2.9792,-2.9792,-2.9792,-2.9792,-2.9792,-2.9792,-2.9792,-2.9792,-2.9792,-2.9792,-2.9792,-2.9792,-2.9792,-2.9792,-2.9792,-2.9792,-2.9817,-2.9867,-3.0319,-3.0658,-3.0758,-3.165,-3.224,-3.229,-3.278,-3.3124,-3.3124,-3.3124,-3.3124,-3.3124,-3.3124,-3.3641,-3.4705,-3.4705,-3.521,-3.6198,-3.6198,-3.6237,-4.0798,-4.0206,-3.9281,-3.8773,-3.831,-3.8016,-3.8332,-3.8706,-3.9,-3.917,-3.932,-3.9337,-3.9104,-3.8298,-3.7268,-3.6081,-3.5007,-3.4079,-3.324,-3.3124,-3.3124,-3.3124,-3.3124,-3.3174,-3.3244,-3.4148,-3.4731,-3.4843,-3.5805,-3.6405,-3.6405,-3.6405,-3.5855,-3.4763,-3.468,-3.4198,-3.3124,-3.3124,-3.3124,-3.3124,-3.3124,-3.3124,-3.3124,-3.2955,-3.234,-3.1348,-3.0721,-3.0193,-2.9792,-2.9792,-2.9792,-2.9792,-2.9792,-2.9792,-2.9792,-2.9792,-2.9792,-2.9792,-2.9792,-2.9792,-2.9792,-2.9792,-2.9792,-2.9792,-2.9792,-2.9792,-2.9792,-2.9792,-2.9792,-2.9792,-2.9792,-2.9792,-2.9792,-2.9792,-2.9792,-2.9792,-2.9792,-2.9792,-2.9792,-2.9792,-2.9792,-2.9792,-2.9792,-2.9792,-2.9792,-2.9792,-2.9792,-2.9792,-2.9792,-2.9792,-2.9955,-3.0394,-3.0545,-3.0959,-3.18,-3.2077,-3.2403,-3.2867,-3.3048,-3.3124,-3.3124,-3.3124,-3.3124,-3.3124,-3.3124,-3.3641,-3.4705,-3.4705,-3.521,-3.6198,-3.6198,-3.6643,-4.046,-4.0085,-3.9458,-3.9352,-3.8653,-3.814,-3.8717,-3.9155,-3.9388,-3.9388,-3.9388,-3.9388,-3.9388,-3.8509,-3.7472,-3.6369,-3.5359,-3.4304,-3.324,-3.3124,-3.3124,-3.3124,-3.3124,-3.3124,-3.3124,-3.3834,-3.4437,-3.4655,-3.5491,-3.6094,-3.6392,-3.6405,-3.5855,-3.4763,-3.468,-3.4198,-3.3124,-3.3124,-3.3124,-3.3124,-3.3124,-3.3124,-3.3111,-3.2792,-3.219,-3.1361,-3.0834,-3.0306,-2.9792,-2.9792,-2.9792,-2.9792,-2.9792,-2.9792,-2.9792,-2.9792,-2.9792,-2.9792,-2.9792,-2.9792,-2.9792,-2.9792,-2.9792,-2.9792,-2.9792,-2.9792,-2.9792,-2.9792,-2.9792,-2.9792,-2.9792,-2.9792,-2.9792,-2.9792,-2.9792,-2.9792,-2.9792,-2.9792,-2.9792,-2.9792,-2.9792,-2.9792,-2.9792,-2.9792,-2.9792,-2.9792,-2.9792,-2.9792,-2.9792,-3.0018,-3.0294,-3.0583,-3.1072,-3.1612,-3.2164,-3.2466,-3.2754,-3.3056,-3.3124,-3.3124,-3.3124,-3.3124,-3.3124,-3.3124,-3.3124,-3.3398,-3.3911,-3.3911,-3.4178,-3.4719,-3.4719,-3.5007,-3.9757,-3.9893,-3.985,-3.9675,-3.9125,-3.8688,-3.9123,-3.9298,-3.9388,-3.9388,-3.9388,-3.9388,-3.9388,-3.8671,-3.7753,-3.6643,-3.5628,-3.4581,-3.3513,-3.324,-3.3124,-3.3124,-3.3124,-3.3124,-3.3124,-3.3583,-3.4123,-3.4675,-3.5194,-3.578,-3.638,-3.6317,-3.5755,-3.4705,-3.4625,-3.4098,-3.3124,-3.3124,-3.3124,-3.3124,-3.3124,-3.3124,-3.3056,-3.2579,-3.2001,-3.1361,-3.0934,-3.0382,-2.9792,-2.9792,-2.9792,-2.9792,-2.9792,-2.9792,-2.9792,-2.9792,-2.9792,-2.9792,-2.9792,-2.9792,-2.9792,-2.9792,-2.9792,-2.9792,-2.9792,-2.9792,-2.9792,-2.9792,-2.9792,-2.9792,-2.9792,-2.9792,-2.9792,-2.9792,-2.9792,-2.9792,-2.9792,-2.9792,-2.9792,-2.9792,-2.9716,-2.9616,-2.9515,-2.9578,-2.9641,-2.9641,-2.9804,-2.993,-2.993,-3.0419,-3.0783,-3.0884,-3.1687,-3.2252,-3.2353,-3.2805,-3.3124,-3.3124,-3.3124,-3.3124,-3.3124,-3.3124,-3.3124,-3.3124,-3.3124,-3.3124,-3.3124,-3.3124,-3.3124,-3.3124,-3.3124,-3.3197,-3.9106,-3.9099,-3.9024,-3.8929,-3.8764,-3.8598,-3.8542,-3.899,-3.9388,-3.9388,-3.9388,-3.9388,-3.9388,-3.9265,-3.8819,-3.7753,-3.6696,-3.5668,-3.4622,-3.367,-3.3124,-3.3124,-3.3124,-3.3124,-3.3124,-3.3583,-3.4123,-3.4675,-3.5194,-3.578,-3.638,-3.5906,-3.532,-3.4738,-3.4261,-3.3709,-3.3124,-3.3124,-3.3124,-3.3124,-3.3124,-3.3124,-3.3124,-3.3006,-3.2378,-3.1386,-3.1311,-3.0721,-2.9792,-2.9792,-2.9792,-2.9792,-2.9792,-2.9792,-2.9792,-2.9792,-2.9792,-2.9792,-2.9792,-2.9792,-2.9792,-2.9792,-2.9792,-2.9792,-2.9792,-2.9792,-2.9792,-2.9792,-2.9792,-2.9792,-2.9792,-2.9792,-2.9792,-2.9792,-2.9792,-2.9792,-2.9792,-2.9792,-2.9792,-2.9792,-2.939,-2.885,-2.8411,-2.8725,-2.9001,-2.9001,-2.988,-3.0507,-3.0507,-3.0959,-3.1474,-3.1951,-3.2127,-3.2416,-3.2918,-3.3031,-3.3124,-3.3124,-3.3124,-3.3124,-3.3124,-3.3124,-3.3124,-3.3124,-3.3124,-3.3124,-3.3124,-3.3124,-3.3124,-3.3124,-3.3124,-3.3598,-3.8768,-3.9295,-3.9551,-3.945,-3.907,-3.8795,-3.9033,-3.8952,-3.896,-3.9298,-3.9388,-3.9388,-3.9388,-3.9388,-3.9068,-3.7956,-3.6891,-3.5854,-3.4815,-3.3797,-3.3124,-3.3124,-3.3124,-3.3124,-3.3124,-3.3294,-3.3796,-3.4663,-3.4906,-3.5466,-3.6367,-3.5843,-3.5245,-3.4738,-3.4186,-3.3633,-3.3124,-3.3124,-3.3124,-3.3124,-3.3124,-3.3124,-3.3124,-3.3124,-3.2629,-3.1838,-3.1524,-3.0959,-3.0231,-2.9917,-2.9792,-2.9792,-2.9792,-2.9792,-2.9792,-2.9792,-2.9792,-2.9792,-2.9792,-2.9792,-2.9792,-2.9792,-2.9792,-2.9792,-2.9792,-2.9792,-2.9792,-2.9792,-2.9326,-2.8976,-2.9624,-2.9326,-2.9028,-2.9663,-2.9792,-2.9792,-2.9792,-2.9792,-2.9691,-2.9365,-2.885,-2.8398,-2.8147,-2.831,-2.8537,-2.8838,-2.9314,-2.9866,-3.0532,-3.1072,-3.1599,-3.2152,-3.2503,-3.2805,-3.3099,-3.3124,-3.3124,-3.3124,-3.3124,-3.3124,-3.3124,-3.3124,-3.3124,-3.3124,-3.3124,-3.3124,-3.3124,-3.3124,-3.3124,-3.3124,-3.3124,-3.3356,-3.8362,-3.9242,-3.9716,-3.9197,-3.8938,-3.8785,-3.8819,-3.8485,-3.8287,-3.8811,-3.888,-3.888,-3.888,-3.905,-3.8933,-3.8316,-3.7148,-3.6071,-3.5183,-3.4191,-3.3398,-3.3111,-3.3124,-3.3124,-3.3124,-3.3124,-3.3533,-3.4638,-3.468,-3.5203,-3.6355,-3.5843,-3.5245,-3.4738,-3.4186,-3.3633,-3.3124,-3.3124,-3.3124,-3.3124,-3.3124,-3.3124,-3.3124,-3.3124,-3.2842,-3.239,-3.17,-3.1097,-3.057,-3.0018,-2.9792,-2.9792,-2.9792,-2.9792,-2.9792,-2.9792,-2.9792,-2.9792,-2.9792,-2.9792,-2.9792,-2.9792,-2.9792,-2.9792,-2.9792,-2.9792,-2.9792,-2.9792,-2.8976,-2.8347,-2.9495,-2.8937,-2.8386,-2.9534,-2.9792,-2.9792,-2.9792,-2.9679,-2.9402,-2.88,-2.8273,-2.7846,-2.7708,-2.7921,-2.8247,-2.8624,-2.8798,-2.9252,-3.0217,-3.0593,-3.0942,-3.1424,-3.1907,-3.2295,-3.2612,-3.2612,-3.2754,-3.3068,-3.3124,-3.3124,-3.3124,-3.3124,-3.3124,-3.3124,-3.3124,-3.3124,-3.3124,-3.3124,-3.3124,-3.3124,-3.3124,-3.3124,-3.7753,-3.8497,-3.8705,-3.7224,-3.7836,-3.8404,-3.6987,-3.7051,-3.7464,-3.7509,-3.7509,-3.7509,-3.7509,-3.8018,-3.8646,-3.9233,-3.7879,-3.6632,-3.6194,-3.5238,-3.4233,-3.324,-3.3124,-3.3124,-3.3124,-3.3124,-3.3533,-3.4638,-3.468,-3.5203,-3.6355,-3.5843,-3.5245,-3.4738,-3.4186,-3.3633,-3.3124,-3.3124,-3.3124,-3.3124,-3.3124,-3.3124,-3.3124,-3.3124,-3.3056,-3.2968,-3.1863,-3.1097,-3.057,-3.0018,-2.9792,-2.9792,-2.9792,-2.9792,-2.9792,-2.9792,-2.9792,-2.9792,-2.9792,-2.9792,-2.9792,-2.9792,-2.9792,-2.9792,-2.9792,-2.9792,-2.9792,-2.9792,-2.8976,-2.8347,-2.9495,-2.8937,-2.8386,-2.9534,-2.9792,-2.9792,-2.9792,-2.9365,-2.8775,-2.826,-2.7708,-2.719,-2.6663,-2.7419,-2.8109,-2.8147,-2.8578,-2.9082,-2.96,-2.9219,-2.9105,-2.95,-2.9567,-3.0045,-3.1223,-3.1311,-3.1821,-3.3025,-3.3124,-3.3124,-3.3124,-3.3124,-3.3124,-3.3124,-3.3124,-3.3124,-3.3124,-3.3124,-3.3124,-3.3124,-3.3124,-3.3124,-3.711,-3.7736,-3.8141,-3.7555,-3.7785,-3.7975,-3.7358,-3.7368,-3.7501,-3.7417,-3.7404,-3.7404,-3.7404,-3.7599,-3.7838,-3.8093,-3.7396,-3.6759,-3.6599,-3.5516,-3.4553,-3.415,-3.3513,-3.3124,-3.3124,-3.3124,-3.3382,-3.4135,-3.4525,-3.5052,-3.5793,-3.527,-3.4881,-3.4726,-3.3847,-3.3269,-3.3124,-3.3124,-3.3124,-3.3124,-3.3124,-3.3124,-3.3124,-3.3124,-3.3124,-3.3074,-3.2252,-3.1612,-3.1072,-3.0532,-3.0118,-2.9792,-2.9792,-2.9792,-2.9792,-2.9792,-2.9792,-2.9792,-2.9792,-2.9792,-2.9792,-2.9792,-2.9792,-2.9792,-2.9792,-2.9792,-2.9792,-2.9792,-2.8976,-2.8347,-2.9495,-2.845,-2.7371,-2.8438,-2.9275,-2.9792,-2.9792,-2.934,-2.8725,-2.821,-2.7946,-2.7632,-2.7115,-2.7607,-2.7989,-2.7624,-2.7759,-2.7938,-2.8077,-2.8198,-2.8432,-2.8937,-2.9273,-2.959,-3.0,-3.0033,-3.0586,-3.1821,-3.1865,-3.2239,-3.3068,-3.3124,-3.3124,-3.3124,-3.3124,-3.3124,-3.3124,-3.3124,-3.3124,-3.3124,-3.3124,-3.3124,-3.64,-3.6941,-3.7384,-3.6869,-3.7085,-3.7224,-3.6405,-3.6569,-3.6802,-3.6505,-3.6432,-3.6492,-3.6731,-3.6582,-3.6641,-3.73,-3.6998,-3.6714,-3.6777,-3.5712,-3.4847,-3.4733,-3.3755,-3.3124,-3.3124,-3.3124,-3.3307,-3.3859,-3.4412,-3.4876,-3.5207,-3.5056,-3.4781,-3.4462,-3.3558,-3.3124,-3.3124,-3.3124,-3.3124,-3.3124,-3.3124,-3.3124,-3.3124,-3.3124,-3.3124,-3.3056,-3.2667,-3.2077,-3.1348,-3.0834,-3.0281,-2.9792,-2.9792,-2.9792,-2.9792,-2.9792,-2.9792,-2.9792,-2.9792,-2.9792,-2.9792,-2.9792,-2.9792,-2.9792,-2.9792,-2.9534,-2.9236,-2.9236,-2.8398,-2.7815,-2.8949,-2.841,-2.7678,-2.8016,-2.8976,-2.9792,-2.9792,-2.934,-2.8787,-2.8448,-2.7928,-2.7459,-2.7102,-2.7163,-2.716,-2.6784,-2.6576,-2.6504,-2.6633,-2.6726,-2.6935,-2.7508,-2.7936,-2.8355,-2.8773,-2.8819,-2.9315,-3.0541,-3.0989,-3.1589,-3.2426,-3.2884,-3.3124,-3.3124,-3.3124,-3.3124,-3.3124,-3.3124,-3.3124,-3.3124,-3.3124,-3.3124,0.0,0.0,0.0,-3.4951,-3.5643,-3.6082,-3.4017,-3.4562,-3.5312,-3.4668,-3.4533,-3.4711,-3.5385,-3.4966,-3.5162,-3.7045,-3.6866,-3.659,-3.6794,-3.5977,-3.5186,-3.479,-3.3797,-3.3111,-3.3124,-3.3124,-3.3307,-3.3834,-3.4387,-3.47,-3.47,-3.5157,-3.4956,-3.3909,-3.3357,-3.3124,-3.3124,-3.3124,-3.3124,-3.3124,-3.3124,-3.3124,-3.3124,-3.3124,-3.3124,-3.3124,-3.3124,-3.2428,-3.1348,-3.0846,-3.0306,-2.9792,-2.9792,-2.9792,-2.9792,-2.9792,-2.9792,-2.9792,-2.9792,-2.9792,-2.9792,-2.9792,-2.9792,-2.9792,-2.9753,-2.8976,-2.8084,-2.8044,-2.7279,-2.6719,-2.7723,-2.8858,-2.9443,-2.8267,-2.8897,-2.9753,-2.9765,-2.9288,-2.8888,-2.89,-2.7625,-2.6557,-2.6534,-2.6021,-2.5612,-2.5572,-2.513,-2.4933,-2.5317,-2.4821,-2.46,-2.5067,-2.5469,-2.6197,-2.7447,-2.7542,-2.8049,-2.9269,-3.0496,-3.1178,-3.1223,-3.2426,-3.3124,-3.3124,-3.3124,-3.3124,-3.3124,-3.3124,-3.3124,-3.3124,-3.3124,-3.3124,-3.56,0.0,0.0,0.0,0.0,0.0,-3.4378,-3.4912,-3.5507,-3.5274,-3.522,-3.528,-3.5474,-3.5355,-3.54,-3.5953,-3.6282,-3.6694,-3.7144,-3.6744,-3.624,-3.5826,-3.4897,-3.3953,-3.3197,-3.3124,-3.3144,-3.3294,-3.3822,-3.4123,-3.4123,-3.4274,-3.4035,-3.3319,-3.3156,-3.3124,-3.3124,-3.3124,-3.3124,-3.3124,-3.3124,-3.3124,-3.3124,-3.3124,-3.3124,-3.3124,-3.3124,-3.2428,-3.1386,-3.1235,-3.0633,-2.9792,-2.9792,-2.9792,-2.9792,-2.9792,-2.9792,-2.9792,-2.9792,-2.9792,-2.9792,-2.9792,-2.9792,-2.9663,-2.8806,-2.8347,-2.7924,-2.7157,-2.6719,-2.6389,-2.587,-2.7145,-2.8096,-2.6149,-2.7186,-2.8666,-2.9093,-2.8976,-2.8849,-2.8887,-2.8553,-2.8001,-2.7201,-2.6616,-2.5972,-2.5133,-2.5125,-2.5016,-2.4331,-2.4654,-2.4979,-2.5106,-2.5469,-2.583,-2.6197,-2.6245,-2.6754,-2.8002,-2.9223,-3.0271,-3.1178,-3.2426,-3.3124,-3.3124,-3.3124,-3.3124,-3.3124,-3.3124,-3.3124,-3.3124,-3.3124,-3.3124,-3.5515,-3.4911,-3.4184,-3.4172,0.0,0.0,-3.3382,-3.4243,-3.4973,-3.4371,-3.4472,-3.4756,-3.5026,-3.4846,-3.4861,-3.5415,-3.5833,-3.6387,-3.7285,-3.6833,-3.637,-3.6219,-3.5319,-3.4275,-3.3197,-3.3124,-3.3124,-3.3124,-3.3583,-3.3897,-3.3897,-3.3684,-3.3407,-3.3124,-3.3124,-3.3124,-3.3124,-3.3124,-3.3124,-3.3124,-3.3124,-3.3124,-3.3124,-3.3124,-3.3124,-3.3124,-3.3124,-3.2428,-3.1386,-3.1386,-3.0758,-2.9792,-2.9792,-2.9792,-2.9792,-2.9792,-2.9792,-2.9792,-2.9792,-2.9792,-2.9702,-2.9236,-2.9106,-2.8897,-2.7775,-2.7105,-2.6603,-2.5964,-2.5797,-2.5766,-2.5546,-2.6449,-2.7238,-2.6356,-2.7347,-2.8674,-2.9456,-2.9527,-2.935,-2.8958,-2.8128,-2.725,-2.6632,-2.5875,-2.5208,-2.4699,-2.4832,-2.4746,-2.4134,-2.4648,-2.5116,-2.5116,-2.5469,-2.5693,-2.5693,-2.5693,-2.6014,-2.6754,-2.7945,-2.8947,-2.9681,-3.1368,-3.2326,-3.2326,-3.284,-3.3124,-3.3124,-3.3124,-3.3124,-3.3124,-3.3124,-3.3124,-3.5241,-3.4447,-3.3495,-3.3495,-3.3399,0.0,-3.185,-3.3006,-3.3963,-3.2946,-3.32,-3.3814,-3.4503,-3.4053,-3.4023,-3.5295,-3.5385,-3.5759,-3.712,-3.6544,-3.5996,-3.608,-3.5238,-3.4243,-3.3185,-3.3061,-3.3048,-3.3111,-3.3533,-3.3809,-3.3809,-3.3345,-3.3124,-3.3124,-3.3124,-3.3124,-3.3124,-3.3124,-3.3124,-3.3124,-3.3124,-3.3124,-3.3124,-3.3124,-3.3124,-3.3124,-3.3124,-3.2428,-3.1386,-3.1386,-3.0758,-2.9792,-2.9792,-2.9792,-2.9792,-2.9792,-2.9792,-2.9792,-2.9792,-2.9792,-2.9624,-2.8636,-2.8215,-2.7884,-2.6842,-2.5714,-2.4787,-2.467,-2.4702,-2.5041,-2.6058,-2.6307,-2.6595,-2.7683,-2.8326,-2.9068,-3.0258,-3.0331,-2.9938,-2.9059,-2.7101,-2.556,-2.5497,-2.4589,-2.3984,-2.4365,-2.4453,-2.4492,-2.4492,-2.4873,-2.5184,-2.5184,-2.5498,-2.5693,-2.5693,-2.5693,-2.5693,-2.5693,-2.6897,-2.7589,-2.7589,-2.9909,-3.1223,-3.1223,-3.2469,-3.3124,-3.3124,-3.3124,-3.3124,-3.3124,-3.3124,-3.3124,-3.4099,-3.3417,-3.2803,-3.2803,-3.2336,0.0,-3.2257,-3.2617,-3.3125,0.0,-3.4219,-3.4518,-3.5175,-3.4741,-3.4562,-3.537,-3.4592,-3.4532,-3.6402,-3.6522,-3.6143,-3.5561,-3.4873,-3.4085,-3.3194,-3.2654,-3.2579,-3.3043,-3.3224,-3.3244,-3.3244,-3.3174,-3.3124,-3.3124,-3.3124,-3.3124,-3.3124,-3.3124,-3.3124,-3.3124,-3.3124,-3.3124,-3.3124,-3.3124,-3.3124,-3.3124,-3.3124,-3.2428,-3.1386,-3.1386,-3.0758,-2.9792,-2.9792,-2.9792,-2.9792,-2.9792,-2.9792,-2.9792,-2.9792,-2.9792,-2.9753,-2.9534,-2.8858,-2.7884,-2.6842,-2.5714,-2.4628,-2.3671,-2.4082,-2.483,-2.5083,-2.5126,-2.542,-2.6543,-2.7228,-2.8042,-2.9618,-2.9452,-2.8934,-2.883,-2.7642,-2.6452,-2.6041,-2.5053,-2.4316,-2.4404,-2.4717,-2.4941,-2.4941,-2.5332,-2.5557,-2.5557,-2.5635,-2.5693,-2.5693,-2.5693,-2.5693,-2.5693,-2.6897,-2.7589,-2.7589,-2.9909,-3.1223,-3.1223,-3.2469,-3.3124,-3.3124,-3.3124,-3.3124,-3.3124,-3.3124,-3.3124,-3.367,-3.2853,-3.2148,-3.252,0.0,0.0,0.0,-3.2243,-3.2512,-3.2497,-3.3036,-3.3604,-3.3948,-3.3993,-3.4203,-3.4876,-3.4711,-3.4726,-3.54,-3.5774,-3.5707,-3.4923,-3.4596,-3.3848,-3.2373,-3.1976,-3.2039,-3.2604,-3.2918,-3.3124,-3.3124,-3.3124,-3.3124,-3.3124,-3.3124,-3.3124,-3.3124,-3.3124,-3.3124,-3.3124,-3.3124,-3.3124,-3.3124,-3.3124,-3.3124,-3.3124,-3.3124,-3.2428,-3.1386,-3.1386,-3.0758,-2.9792,-2.9792,-2.9792,-2.9792,-2.9792,-2.9792,-2.9792,-2.9792,-2.9443,-2.8858,-2.8331,-2.7371,-2.6232,-2.5136,-2.4392,-2.3833,-2.3266,-2.3507,-2.4211,-2.5336,-2.521,-2.5432,-2.7953,-2.8533,-2.8827,-2.9853,-2.9533,-2.8867,-2.8331,-2.7196,-2.6135,-2.568,-2.5146,-2.4814,-2.5039,-2.5264,-2.54,-2.54,-2.5596,-2.5693,-2.5693,-2.5693,-2.5693,-2.5693,-2.5693,-2.5693,-2.5693,-2.6294,-2.6668,-2.6668,-2.8993,-3.0866,-3.2096,-3.2797,-3.3124,-3.3124,-3.3124,-3.3124,-3.3124,-3.3124,-3.3124,0.0,0.0,0.0,0.0,0.0,-3.1511,0.0,0.0,0.0,0.0,0.0,0.0,0.0,0.0,0.0,-3.4039,0.0,0.0,0.0,-3.4771,0.0,-3.4293,-3.3978,-3.3203,-3.1552,-3.1587,-3.1813,-3.2039,-3.2792,-3.3144,-3.2918,-3.3061,-3.3124,-3.3124,-3.3124,-3.3124,-3.3124,-3.3124,-3.3124,-3.3124,-3.3124,-3.3124,-3.3124,-3.3124,-3.3124,-3.3111,-3.2998,-3.2328,-3.1386,-3.1286,-3.067,-2.9792,-2.9792,-2.9792,-2.9792,-2.9792,-2.9792,-2.9792,-2.9792,-2.9197,-2.8267,-2.7168,-2.5922,-2.4585,-2.343,-2.3091,-2.3091,-2.3091,-2.3091,-2.3551,-2.5641,-2.5504,-2.5738,-2.9407,-3.0036,-2.9904,-3.0331,-2.9857,-2.9039,-2.7814,-2.6572,-2.5625,-2.5254,-2.5195,-2.5322,-2.5635,-2.5693,-2.5693,-2.5693,-2.5693,-2.5693,-2.5693,-2.5693,-2.5693,-2.5693,-2.5693,-2.5693,-2.5693,-2.5693,-2.5693,-2.5693,-2.8075,-3.0316,-3.2339,-3.2612,-3.2742,-3.2742,-3.2742,-3.284,-3.3124,-3.3124,-3.3124,0.0,0.0,0.0,0.0,-3.1553,0.0,0.0,0.0,-3.1735,-3.2168,0.0,0.0,0.0,0.0,0.0,0.0,0.0,0.0,-3.3455,-3.3679,0.0,-3.354,-3.2555,-3.1783,-3.1438,-3.2303,-3.2491,-3.1549,-3.293,-3.337,-3.2365,-3.2805,-3.3124,-3.3124,-3.3124,-3.3124,-3.3124,-3.3124,-3.3124,-3.3124,-3.3124,-3.3124,-3.3124,-3.3124,-3.3124,-3.3056,-3.2528,-3.1964,-3.1348,-3.0896,-3.0344,-2.9792,-2.9792,-2.9792,-2.9792,-2.9792,-2.9792,-2.9792,-2.9792,-2.9702,-2.9417,-2.8307,-2.6479,-2.4585,-2.343,-2.3091,-2.3091,-2.3091,-2.3091,-2.3387,-2.467,-2.4914,-2.5528,-2.841,-2.9463,-2.9904,-3.0331,-2.9857,-2.9039,-2.7814,-2.6572,-2.5674,-2.5625,-2.5615,-2.5625,-2.5684,-2.5693,-2.5693,-2.5693,-2.5693,-2.5693,-2.5693,-2.5693,-2.5693,-2.5693,-2.5693,-2.5693,-2.5693,-2.5693,-2.5693,-2.5693,-2.8075,-2.9544,-2.9818,-3.0866,-3.14,-3.14,-3.14,-3.2008,-3.3124,-3.3124,-3.3124,0.0,0.0,0.0,0.0,0.0,0.0,-3.1511,0.0,-3.1466,0.0,0.0,0.0,0.0,0.0,0.0,0.0,-3.2602,0.0,0.0,0.0,0.0,0.0,0.0,0.0,-3.0579,-3.1461,-3.1775,-3.0997,-3.2491,-3.3068,-3.2252,-3.2441,-3.2729,-3.3111,-3.3124,-3.3124,-3.3124,-3.3124,-3.3124,-3.3124,-3.3124,-3.3124,-3.3124,-3.3124,-3.3124,-3.3086,-3.2466,-3.1901,-3.1348,-3.0834,-2.9901,-2.8806,-2.8806,-2.9236,-2.9702,-2.9067,-2.8806,-2.8727,-2.8079,-2.7879,-2.7718,-2.6573,-2.5126,-2.3714,-2.3266,-2.3091,-2.3091,-2.3091,-2.3091,-2.3517,-2.5305,-2.5797,-2.6568,-2.9637,-3.0532,-3.0549,-2.9952,-2.9625,-2.8808,-2.6897,-2.6062,-2.5693,-2.5693,-2.5693,-2.5693,-2.5693,-2.5693,-2.5693,-2.5693,-2.5693,-2.5693,-2.5693,-2.5693,-2.5693,-2.5693,-2.5693,-2.5693,-2.5693,-2.5693,-2.6014,-2.6754,-2.7814,-2.868,-2.9407,-2.9909,-3.0496,-3.1223,-3.1223,-3.1865,-3.3124,-3.3124,-3.3124,-3.4698,0.0,0.0,0.0,0.0,0.0,0.0,0.0,0.0,0.0,0.0,0.0,0.0,0.0,-3.2153,-3.1988,0.0,-3.2796,0.0,0.0,0.0,0.0,0.0,0.0,0.0,-3.1107,-3.1449,-3.047,-3.2202,-3.2855,-3.1825,-3.2051,-3.2403,-3.283,-3.2993,-3.3124,-3.3124,-3.3124,-3.2927,-3.2556,-3.2927,-3.2939,-3.2612,-3.2939,-3.2852,-3.2364,-3.1806,-3.107,-3.0228,-2.9715,-2.8759,-2.7643,-2.7643,-2.8159,-2.8791,-2.7988,-2.7643,-2.7562,-2.676,-2.6307,-2.5933,-2.542,-2.4296,-2.3091,-2.3091,-2.3091,-2.3091,-2.3091,-2.3299,-2.3973,-2.5599,-2.6472,-2.7544,-2.9885,-3.0692,-3.0555,-2.9194,-2.8912,-2.8262,-2.611,-2.5693,-2.5693,-2.5693,-2.5693,-2.5693,-2.5693,-2.5693,-2.5693,-2.5693,-2.5693,-2.5693,-2.5693,-2.5693,-2.5693,-2.5693,-2.5693,-2.5693,-2.5693,-2.5693,-2.611,-2.703,-2.74,-2.7861,-2.8402,-2.8727,-2.9498,-3.0721,-3.0721,-3.1557,-3.3124,-3.3124,-3.3124,-3.4698,-3.4474,-3.4294,-3.3619,-3.344,-3.326,0.0,0.0,-3.2273,0.0,0.0,0.0,0.0,0.0,-3.1316,-3.0672,0.0,0.0,0.0,0.0,0.0,0.0,0.0,0.0,0.0,0.0,-3.2127,0.0,-3.234,-3.293,-3.0783,-3.165,-3.2227,-3.224,-3.278,-3.3124,-3.3124,-3.3124,-3.2469,-3.1267,-3.2513,-3.2469,-3.1311,-3.2556,-3.2185,-3.0635,-3.0109,-2.8942,-2.74,-2.6873,-2.6618,-2.6554,-2.6554,-2.6565,-2.6607,-2.6554,-2.6554,-2.6565,-2.6513,-2.5766,-2.5041,-2.6099,-2.4935,-2.3091,-2.3091,-2.3091,-2.3091,-2.3091,-2.3877,-2.4745,-2.483,-2.6438,-2.8022,-2.8037,-2.8834,-2.9296,-2.7929,-2.7683,-2.7268,-2.5965,-2.5693,-2.5693,-2.5693,-2.5693,-2.5693,-2.5693,-2.5693,-2.5693,-2.5693,-2.5693,-2.5693,-2.5693,-2.5693,-2.5693,-2.5693,-2.5693,-2.5693,-2.5693,-2.5693,-2.5742,-2.5781,-2.6945,-2.703,-2.583,-2.703,-2.8272,-2.9453,-2.9453,-3.0687,-3.3124,-3.3124,-3.3124,-3.6477,-3.5459,-3.4459,-3.4234,-3.3814,-3.344,-3.3215,0.0,0.0,0.0,0.0,0.0,0.0,-3.1511,-3.1436,-3.1197,-3.1346,0.0,0.0,0.0,0.0,0.0,0.0,0.0,0.0,0.0,0.0,0.0,0.0,0.0,-3.067,-3.0959,-3.1486,-3.219,-3.2403,-3.2692,-3.3124,-3.3124,-3.2884,-3.2469,-3.2884,-3.2884,-3.2426,-3.2052,-3.1399,-3.0513,-2.9152,-2.8089,-2.7262,-2.6726,-2.6058,-2.5378,-2.5378,-2.4925,-2.4349,-2.5094,-2.5378,-2.5462,-2.6224,-2.5263,-2.4006,-2.5891,-2.4978,-2.3091,-2.3091,-2.3091,-2.3091,-2.3091,-2.3387,-2.3844,-2.4585,-2.6195,-2.7835,-2.8897,-2.9671,-2.9878,-2.8987,-2.8179,-2.722,-2.5965,-2.5693,-2.5693,-2.5693,-2.5693,-2.5693,-2.5693,-2.5693,-2.5693,-2.5693,-2.5693,-2.5693,-2.5693,-2.5693,-2.5693,-2.5693,-2.5693,-2.5693,-2.5693,-2.5693,-2.5693,-2.5693,-2.611,-2.6159,-2.5684,-2.611,-2.6935,-2.8226,-2.8993,-3.0226,-3.1865,-3.2711,-3.3269,-3.715,-3.6163,-3.5162,-3.4906,-3.4517,-3.4143,-3.3903,-3.3874,-3.3664,0.0,0.0,0.0,0.0,0.0,-3.178,-3.154,0.0,0.0,0.0,0.0,0.0,0.0,0.0,0.0,0.0,0.0,0.0,0.0,0.0,0.0,0.0,-3.0507,-3.0934,-3.1625,-3.2014,-3.239,-3.2767,-3.2968,-3.2884,-3.2426,-3.2884,-3.2556,-3.1554,-3.1181,-3.0208,-2.8772,-2.7577,-2.6617,-2.5776,-2.5433,-2.4851,-2.4211,-2.4211,-2.3757,-2.3178,-2.392,-2.4211,-2.4425,-2.5975,-2.502,-2.3474,-2.5766,-2.4978,-2.3091,-2.3091,-2.3091,-2.3091,-2.3091,-2.3681,-2.4382,-2.4713,-2.661,-2.8567,-2.9028,-2.9456,-2.956,-2.8894,-2.7814,-2.6668,-2.5878,-2.5693,-2.5693,-2.5693,-2.5693,-2.5693,-2.5693,-2.5693,-2.5693,-2.5693,-2.5693,-2.5693,-2.5693,-2.5693,-2.5693,-2.5693,-2.5693,-2.5693,-2.5693,-2.5693,-2.5693,-2.5693,-2.5693,-2.5693,-2.5693,-2.5693,-2.6342,-2.7589,-2.8366,-2.959,-3.1223,-3.2259,-3.3017]},{"header":{"parameterUnit":"m.s-1","parameterCategory":1,"la1":30.6,"la2":29.2853,"lo1":-89.7004,"lo2":-87.6739,"dx":0.0162,"dy":0.0183,"nx":112,"ny":82,"refTime":"2022-12-04T06:00:00:Z","depth":0,"parameterNumber":3,"parameterNumberName":"V-component_of_WINDS"},"data":[0.0,0.0,0.0,0.0,0.0,0.0,0.0,0.0,0.0,0.0,0.0,0.0,0.0,0.0,0.0,0.0,0.0,0.0,0.0,0.0,0.0,0.0,0.0,0.0,0.0,0.0,0.0,0.0,0.0,0.0,0.0,0.0,0.0,0.0,0.0,0.0,0.0,0.0,0.0,0.0,0.0,0.0,0.0,0.0,0.0,0.0,0.0,0.0,0.0,0.0,0.0,0.0,0.0,0.0,0.0,0.0,0.0,0.0,0.0,0.0,0.0,0.0,0.0,0.0,0.0,0.0,0.0,0.0,0.0,0.0,0.0,0.0,0.0,0.0,0.0,0.0,0.0,0.0,0.0,0.0,0.0,0.0,0.0,0.0,0.0,0.0,0.0,0.0,0.0,0.0,0.0,0.0,0.0,-0.0353,-0.1293,-0.2065,-0.2916,-0.3921,0.0,0.0,0.0,0.0,0.0,0.0,0.0,0.0,0.0,0.0,0.0,0.0,0.0,0.0,0.0,0.0,0.0,0.0,0.0,0.0,0.0,0.0,0.0,0.0,0.0,0.0,0.0,0.0,0.0,0.0,0.0,0.0,0.0,0.0,0.0,0.0,0.0,0.0,0.0,0.0,0.0,0.0,0.0,0.0,0.0,0.0,0.0,0.0,0.0,0.0,0.0,0.0,0.0,0.0,0.0,0.0,0.0,0.0,0.0,0.0,0.0,0.0,0.0,0.0,0.0,0.0,0.0,0.0,0.0,0.0,0.0,0.0,0.0,0.0,0.0,0.0,0.0,0.0,0.0,0.0,0.0,0.0,0.0,0.0,0.0,0.0,0.0,0.0,0.0,0.0,0.0,0.0,0.0,0.0,0.0,0.0,0.0,0.0,0.0,0.0,0.0,0.0,0.0,0.0,0.0,0.0,0.0,-0.0079,-0.0236,-0.1031,-0.1933,-0.2871,0.0,0.0,0.0,0.0,0.0,0.0,0.0,0.0,0.0,0.0,0.0,0.0,0.0,0.0,0.0,0.0,0.0,0.0,0.0,0.0,0.0,0.0,0.0,0.0,0.0,0.0,0.0,0.0,0.0,0.0,0.0,0.0,0.0,0.0,0.0,0.0,0.0,0.0,0.0,0.0,0.0,0.0,0.0,0.0,0.0,0.0,0.0,0.0,0.0,0.0,0.0,0.0,0.0,0.0,0.0,0.0,0.0,0.0,0.0,0.0,0.0,0.0,0.0,0.0,0.0,0.0,0.0,0.0,0.0,0.0,0.0,0.0,0.0,0.0,0.0,0.0,0.0,0.0,0.0,0.0,0.0,0.0,0.0,0.0,0.0,0.0,0.0,0.0,0.0,0.0,0.0,0.0,0.0,0.0,0.0,0.0,0.0,0.0,0.0,0.0,0.0,0.0,0.0,0.0,0.0,0.0,0.0,0.0,0.0,-0.0805,-0.1717,-0.2654,-0.392,0.0,0.0,0.0,0.0,0.0,0.0,0.0,0.0,0.0,0.0,0.0,0.0,0.0,0.0,0.0,0.0,0.0,0.0,0.0,0.0,0.0,0.0,0.0,0.0,0.0,0.0,0.0,0.0,0.0,0.0,0.0,0.0,0.0,0.0,0.0,0.0,0.0,0.0,0.0,0.0,0.0,0.0,0.0,0.0,0.0,0.0,0.0,0.0,0.0,0.0,0.0,0.0,0.0,0.0,0.0,0.0,0.0,0.0,0.0,0.0,0.0,0.0,0.0,0.0,0.0,0.0,0.0,0.0,0.0,0.0,0.0,0.0,0.0,0.0,0.0,0.0,0.0,0.0,0.0,0.0,0.0,0.0,0.0,0.0,0.0,0.0,0.0,0.0,0.0,0.0,0.0,0.0,0.0,0.0,0.0,0.0,0.0,0.0,0.0,0.0,0.0,0.0,0.0,0.0,0.0,0.0,0.0,0.0,-0.0617,-0.1466,-0.2619,-0.3311,0.0,0.0,0.0,0.0,0.0,0.0,0.0,0.0,0.0,0.0,0.0,0.0,0.0,0.0,0.0,0.0,0.0,0.0,0.0,0.0,0.0,0.0,0.0,0.0,0.0,0.0,0.0,0.0,0.0,0.0,0.0,0.0,0.0,0.0,0.0,0.0,0.0,0.0,0.0,0.0,0.0,0.0,0.0,0.0,0.0,0.0,0.0,0.0,0.0,0.0,0.0,0.0,0.0,0.0,0.0,0.0,0.0,0.0,0.0,0.0,0.0,0.0,0.0,0.0,0.0,0.0,0.0,0.0,0.0,0.0,0.0,0.0,0.0,0.0,0.0,0.0,0.0,0.0,0.0,0.0,0.0,0.0,0.0,0.0,0.0,0.0,0.0,0.0,0.0,0.0,0.0,0.0,0.0,0.0,0.0,0.0,0.0,0.0,0.0,0.0,0.0,0.0,0.0,0.0,0.0,0.0,0.0,0.0,-0.0039,-0.0843,-0.2586,-0.2754,0.0,0.0,0.0,0.0,0.0,0.0,0.0,0.0,0.0,0.0,0.0,0.0,0.0,0.0,0.0,0.0,0.0,0.0,0.0,0.0,0.0,0.0,0.0,0.0,0.0,0.0,0.0,0.0,0.0,0.0,0.0,0.0,0.0,0.0,0.0,0.0,0.0,0.0,0.0,0.0,0.0,0.0,0.0,0.0,0.0,0.0,0.0,0.0,0.0,0.0,0.0,0.0,0.0,0.0,0.0,0.0,0.0,0.0,0.0,0.0,0.0,0.0,0.0,0.0,0.0,0.0,0.0,0.0,0.0,0.0,0.0,0.0,0.0,0.0,0.0,0.0,0.0,0.0,0.0,0.0,0.0,0.0,0.0,0.0,0.0,0.0,0.0,0.0,0.0,0.0,0.0,0.0,0.0,0.0,0.0,0.0,0.0,0.0,0.0,0.0,0.0,0.0,0.0,0.0,0.0,0.0,0.0,0.0,0.0,-0.0538,-0.1749,0.0,0.0,0.0,0.0,0.0,0.0,0.0,0.0,0.0,0.0,0.0,0.0,0.0,0.0,0.0,0.0,0.0,0.0,0.0,0.0,0.0,0.0,0.0,0.0,0.0,0.0,0.0,0.0,0.0,0.0,0.0,0.0,0.0,0.0,0.0,0.0,0.0,0.0,0.0,0.0,0.0,0.0,0.0,0.0,0.0,0.0,0.0,0.0,0.0,0.0,0.0,0.0,0.0,0.0,0.0,0.0,0.0,0.0,0.0,0.0,0.0,0.0,0.0,0.0,0.0,0.0,0.0,0.0,0.0,0.0,0.0,0.0,0.0,0.0,0.0,0.0,0.0,0.0,0.0,0.0,0.0,0.0,0.0,0.0,0.0,0.0,0.0,0.0,0.0,0.0,0.0,0.0,0.0,0.0,0.0,0.0,0.0,0.0,0.0,0.0,0.0,0.0,0.0,0.0,0.0,0.0,0.0,0.0,0.0,0.0,-0.0386,-0.1254,0.0,0.0,0.0,0.0,0.0,0.0,0.0,0.0,0.0,0.0,0.0,0.0,0.0,0.0,0.0,0.0,0.0,0.0,0.0,0.0,0.0,0.0,0.0,0.0,0.0,0.0,0.0,0.0,0.0,0.0,0.0,0.0,0.0,0.0,0.0,0.0,0.0,0.0,0.0,0.0,0.0,0.0,0.0,0.0,0.0,0.0,0.0,0.0,0.0,0.0,0.0,0.0,0.0,0.0,0.0,0.0,0.0,0.0,0.0,0.0,0.0,0.0,0.0,0.0,0.0,0.0,0.0,0.0,0.0,0.0,0.0,0.0,0.0,0.0,0.0,0.0,0.0,0.0,0.0,0.0,0.0,0.0,0.0,0.0,0.0,0.0,0.0,0.0,0.0,0.0,0.0,0.0,0.0,0.0,0.0,0.0,0.0,0.0,0.0,0.0,0.0,0.0,0.0,0.0,0.0,0.0,0.0,0.0,0.0,0.0,-0.035,0.0,0.0,0.0,0.0,0.0,0.0,0.0,0.0,0.0,0.0,0.0,0.0,0.0,0.0,0.0,0.0,0.0,0.0,0.0,0.0,0.0,0.0,0.0,0.0,0.0,0.0,0.0,0.0,0.0,0.0,0.0,0.0,0.0,0.0,0.0,0.0,0.0,0.0,0.0,0.0,0.0,0.0,0.0,0.0,0.0,0.0,0.0,0.0,0.0,0.0,0.0,0.0,0.0,0.0,0.0,0.0,0.0,0.0,0.0,0.0,0.0,0.0,0.0,0.0,0.0,0.0,0.0,0.0,0.0,0.0,0.0,0.0,0.0,0.0,0.0,0.0,0.0,0.0,0.0,0.0,0.0,0.0,0.0,0.0,0.0,0.0,0.0,0.0,0.0,0.0,0.0,0.0,0.0,0.0,0.0,0.0,0.0,0.0,0.0,0.0,0.0,0.0,0.0,0.0,0.0,0.0,0.0,0.0,0.0,0.0,0.0,-0.0117,-0.0379,0.0,0.0,0.0,0.0,0.0,0.0,0.0,0.0,0.0,0.0,0.0,0.0,0.0,0.0,0.0,0.0,0.0,0.0,0.0,0.0,0.0,0.0,0.0,0.0,0.0,0.0,0.0,0.0,0.0,0.0,0.0,0.0,0.0,0.0,0.0,0.0,0.0,0.0,0.0,0.0,0.0,0.0,0.0,0.0,0.0,0.0,0.0,0.0,0.0,0.0,0.0,0.0,0.0,0.0,0.0,0.0,0.0,0.0,0.0,0.0,0.0,0.0,0.0,0.0,0.0,0.0,0.0,0.0,0.0,0.0,0.0,0.0,0.0,0.0,0.0,0.0,0.0,0.0,0.0,0.0,0.0,0.0,0.0,0.0,0.0,0.0,0.0,0.0,0.0,0.0,0.0,0.0,0.0,0.0,0.0,0.0,0.0,0.0,0.0,0.0,0.0,0.0,0.0523,0.0921,0.1044,0.0561,0.0576,0.0471,0.0039,0.0,0.0,0.0,0.0,0.0,0.0,0.0,0.0,0.0,0.0,0.0,0.0,0.0,0.0,0.0,0.0,0.0,0.0,0.0,0.0,0.0,0.0,0.0,0.0,0.0,0.0,0.0,0.0,0.0,0.0,0.0,0.0,0.0,0.0,0.0,0.0,0.0,0.0,0.0,0.0,0.0,0.0,0.0,0.0,0.0,0.0,0.0,0.0,0.0,0.0,0.0,0.0,0.0,0.0,0.0,0.0,0.0,0.0,0.0,0.0,0.0,0.0,0.0,0.0,0.0,0.0,0.0,0.0,0.0,0.0,0.0,0.0,0.0,0.0,0.0,0.0,0.0,0.0,0.0,0.0,0.0,0.0,0.0,0.0,0.0,0.0,0.0,0.0,0.0,0.0,0.0,0.0,0.0,0.0,0.0,0.0,0.0,0.0,0.0,0.0,0.0,0.0,0.0,0.0,0.0,0.1469,0.2431,0.2686,0.1576,0.1637,0.1333,0.0353,0.0275,0.0275,0.0275,0.0,0.0,0.0,0.0,0.0,0.0,0.0,0.0,0.0,0.0,0.0,0.0,0.0,0.0,0.0,0.0,0.0,0.0,0.0,0.0,0.0,0.0,0.0,0.0,0.0,0.0,0.0,0.0,0.0,0.0,0.0,0.0,0.0,0.0,0.0,0.0,0.0,0.0,0.0,0.0,0.0,0.0,0.0,0.0,0.0,0.0,0.0,0.0,0.0,0.0,0.0,0.0,0.0,0.0,0.0,0.0,0.0,0.0,0.0,0.0,0.6457,0.5157,0.0,0.0,0.0,0.0,0.0,0.0,0.0,0.0,0.0,0.0,0.0,0.0,0.0,0.0,0.0,0.0,0.0,0.0,0.0,0.0,0.0,0.0,0.0,0.0,0.0,0.0,0.0,0.0,0.0,0.0,0.0,0.0,0.0,0.0,0.0,0.0,0.0,0.0,0.0,0.0,0.2631,0.2954,0.3013,0.2741,0.2766,0.2696,0.2461,0.2422,0.2422,0.2422,0.1683,0.0,0.0,0.0,0.0,0.0,0.0,0.0,0.0,0.0,0.0,0.0,0.0,0.0,0.0,0.0,0.0,0.0,0.0,0.0,0.0,0.0,0.0,0.0,0.0,0.0,0.0,0.0,0.0,0.0,0.0,0.0,0.0,0.0,0.0,0.0,0.0,0.0,0.0,0.0,0.0,0.0,0.0,0.0,0.0,0.0,0.0,0.0,0.0,0.0,0.0,0.0,0.0,0.0,0.0,0.0,0.0,0.0,0.0,0.0,0.8243,0.7429,0.0,0.0,0.0,0.0,0.0,0.0,0.0,0.0,0.0,0.0,0.0,0.0,0.0,0.0,0.0,0.0,0.0,0.0,0.0,0.0,0.0,0.0,0.0,0.0,0.0,0.0,0.0,0.0,0.0,0.0,0.0,0.0,0.0,0.0,0.0,0.0,0.0,0.0,0.0,0.0,0.3699,0.419,0.4315,0.3812,0.381,0.3669,0.3163,0.3085,0.3085,0.3085,0.2608,0.0,0.0,0.0,0.0,0.0,0.0,0.0,0.0,0.0,0.0,0.0,0.0,0.0,0.0,0.0,0.0,0.0,0.0,0.0,0.0,0.0,0.0,0.0,0.0,0.0,0.0,0.0,0.0,0.0,0.0,0.0,0.0,0.0,0.0,0.0,0.0,0.0,0.0,0.0,0.0,0.0,0.0,0.0,0.0,0.0,0.0,0.0,0.0,0.0,0.0,0.0,0.0,0.0,0.9825,0.9825,0.9825,0.9825,0.9825,0.9825,0.9825,0.9636,0.9221,0.8389,0.0,0.0,0.0,0.0,0.0,0.0,0.0,0.0,0.0,0.0,0.0,0.0,0.0,0.0,0.0,0.0,0.0,0.0,0.0,0.0,0.0,0.0,0.4405,0.3807,0.4259,0.4597,0.3843,0.0,0.0,0.0,0.0,0.0,0.0,0.0,0.0,0.0,0.0,0.0,0.4771,0.5513,0.5697,0.4887,0.4901,0.4608,0.3748,0.3671,0.3671,0.3671,0.3514,0.3402,0.0,0.0,0.0,0.0,0.0,0.0,0.0,0.0,0.0,0.0,0.0,0.0,0.0,0.0,0.0,0.0,0.0,0.0,0.0,0.0,0.0,0.0,0.0,0.0,0.0,0.0,0.0,0.0,0.0,0.0,0.0,0.0,1.3999,1.3864,0.0,0.0,0.0,0.0,0.0,0.0,0.0,0.0,0.0,0.0,0.0,0.0,0.0,1.1905,1.1943,1.1905,1.1885,1.1885,1.1885,1.1885,1.1885,1.1885,1.1885,1.1885,1.1885,0.0,0.9296,0.9145,0.0,0.0,0.0,0.0,0.0,0.0,0.0,0.0,0.0,0.0,0.0,0.0,0.0,0.0,0.0,0.0,0.0,0.0,0.0,0.0,0.0,0.0,0.5982,0.5886,0.5983,0.6031,0.5893,0.4419,0.3117,0.3117,0.3117,0.3102,0.0,0.0,0.0,0.0,0.0,0.0,0.5938,0.6036,0.6006,0.606,0.6089,0.6025,0.5906,0.5867,0.5867,0.5867,0.5116,0.4606,0.4496,0.3567,0.0,0.0,0.0,0.0,0.0,0.0,0.0,0.0,0.0,0.0,0.0,0.0,0.0,0.0,0.0,0.0,0.0,0.0,0.0,0.0,0.0,0.0,0.0,0.0,0.0,0.0,0.0,0.0,0.0,1.4406,1.4328,1.4936,1.4454,1.4088,0.0,0.0,0.0,0.0,0.0,0.0,0.0,0.0,0.0,1.4606,1.4606,1.4313,1.3694,1.3694,1.3404,1.2812,1.2812,1.2812,1.2806,1.2632,1.2589,1.2583,1.2378,1.1811,1.095,1.0383,1.0153,1.0051,0.0,0.0,0.0,0.0,0.8737,0.8818,0.9255,0.9533,0.9614,0.8952,0.0,0.0,0.0,0.0,0.0,0.0,0.0,0.797,0.8058,0.8034,0.8008,0.8194,0.8042,0.7945,0.816,0.7349,0.6235,0.5114,0.4795,0.4806,0.4985,0.4964,0.0,0.0,0.0,0.552,0.6046,0.6071,0.6088,0.6282,0.63,0.63,0.63,0.63,0.6334,0.6416,0.6035,0.5792,0.5811,0.4784,0.421,0.0,0.0,0.0,0.0,0.0,0.0,0.0,0.0,0.0,0.0,0.0,0.0,0.0,0.0,0.0,0.0,0.0,0.0,0.0,0.0,0.0,0.0,0.0,0.0,0.0,0.0,0.0,0.0,1.5428,1.5228,1.6026,1.5387,1.4901,0.0,0.0,0.0,0.0,0.0,0.0,1.5227,1.5962,1.6409,1.6409,1.6409,1.6038,1.5211,1.5211,1.4794,1.4006,1.4006,1.4006,1.3992,1.371,1.3561,1.3547,1.3189,1.3055,1.2945,1.1681,1.1241,1.1208,1.0247,0.9865,0.9858,0.9955,1.0045,1.0202,1.0479,1.0712,1.086,1.0361,1.0027,0.9799,0.9596,0.0,0.0,0.0,0.0,0.9689,0.9689,0.9597,0.9593,0.9787,0.9612,0.9458,0.9758,0.9571,0.8879,0.7365,0.6954,0.6958,0.7249,0.7168,0.0,0.7157,0.6938,0.6816,0.6824,0.6827,0.6866,0.7042,0.7061,0.6945,0.6718,0.6683,0.6744,0.694,0.6984,0.702,0.7143,0.6327,0.5703,0.5349,0.0,0.0,0.0,0.0,0.0,0.0,0.0,0.0,0.0,0.0,0.0,0.0,0.0,0.0,0.0,0.0,0.0,0.0,0.0,0.0,0.0,0.0,0.0,0.0,0.0,0.0,0.0,0.0,0.0,1.7212,1.718,0.0,0.0,0.0,0.0,1.6758,1.6773,1.6685,1.635,1.6371,1.6409,1.6409,1.6409,1.6371,1.6333,1.6333,1.6295,1.622,1.622,1.622,1.6211,1.5819,1.5655,1.5638,1.5248,1.5057,1.4914,1.3018,1.2428,1.2566,1.1408,1.1122,1.1433,1.1677,1.1619,1.1582,1.2941,1.3253,1.2883,1.193,1.0951,1.0181,1.017,1.0165,0.0,0.0,1.0165,1.0165,1.0165,1.016,1.0155,1.0181,1.017,1.0155,1.0181,0.9834,0.9442,0.9183,0.9135,0.9238,0.9506,0.0,0.9253,0.9496,0.9203,0.9002,0.9105,0.902,0.9007,0.9125,0.9145,0.8765,0.7821,0.7706,0.782,0.8084,0.8254,0.8311,0.8319,0.8442,0.7911,0.665,0.6424,0.0,0.0,0.0,0.0,0.0,0.0,0.0,0.0,0.0,0.0,0.0,0.0,0.0,0.0,0.0,0.0,0.0,0.0,0.0,0.0,0.0,0.0,0.0,0.0,0.0,0.0,0.0,0.0,1.831,1.7747,0.0,1.7302,1.7302,1.7244,1.7144,1.7854,1.8197,1.8096,1.8718,1.9104,1.9104,1.9104,1.8786,1.8087,1.8087,1.7695,1.6977,1.6977,1.6977,1.6969,1.6635,1.65,1.6483,1.6109,1.5959,1.5914,1.5207,1.4853,1.4642,1.3791,1.3521,1.3546,1.2974,1.279,1.2913,1.3437,1.366,1.37,1.3093,1.2578,1.2114,1.2114,1.2114,1.2185,1.2357,1.2406,1.2406,1.2406,1.2406,1.2406,1.2406,1.2277,1.2197,1.2329,1.2117,1.1858,1.1825,1.0366,0.927,0.9515,0.9438,0.9327,0.9441,0.9319,0.9229,0.9163,0.9209,0.9248,0.9291,0.9296,0.9243,0.9034,0.9004,0.9187,0.9611,0.9661,0.9387,0.8764,0.8717,0.8116,0.6848,0.6793,0.681,0.0,0.0,0.0,0.0,0.0,0.0,0.0,0.0,0.0,0.0,0.0,0.0,0.0,0.0,0.0,0.0,0.0,0.0,0.0,0.0,0.0,0.0,0.0,0.0,0.0,1.8877,1.8709,1.9441,1.8868,1.8421,1.8421,1.8421,1.8421,1.8421,1.9116,1.952,1.952,2.0196,2.0605,2.0605,2.0605,2.0245,1.9559,1.952,1.9155,1.8421,1.8421,1.8421,1.8412,1.8087,1.7911,1.7884,1.7534,1.7367,1.7375,1.7499,1.7402,1.7042,1.5807,1.5397,1.542,1.47,1.4562,1.4717,1.4832,1.4524,1.4132,1.4255,1.394,1.3507,1.3507,1.3507,1.3547,1.3734,1.3753,1.3753,1.3753,1.3753,1.3753,1.3753,1.3647,1.3561,1.3713,1.352,1.3313,1.3313,1.1778,1.0562,1.0852,1.0723,1.0661,1.0908,1.0756,1.0615,1.0606,1.0631,1.0605,1.0605,1.0605,1.0556,1.0397,1.0444,1.0622,1.097,1.1062,1.0799,1.0091,1.0072,0.949,0.8232,0.8176,0.8158,0.8222,0.0,0.0,0.0,0.0,0.0,0.0,0.0,0.0,0.0,0.0,0.0,0.0,0.0,0.0,0.0,0.0,0.0,0.0,0.0,0.0,0.0,0.0,0.0,2.0605,2.0605,2.0605,2.0605,2.0605,2.0605,2.0605,2.0605,2.0605,2.0605,2.0615,2.0625,2.0625,2.0635,2.0644,2.0644,2.0635,2.0635,2.0644,2.0635,2.0635,2.0644,2.0644,2.0644,2.0635,2.0166,1.998,1.9951,1.9531,1.9346,1.9375,1.9775,1.9932,1.9695,1.7392,1.6668,1.6946,1.6946,1.6907,1.6957,1.721,1.5918,1.437,1.5421,1.5061,1.4208,1.4208,1.4208,1.4173,1.4166,1.413,1.413,1.413,1.4088,1.4088,1.4088,1.4088,1.4088,1.4088,1.382,1.362,1.362,1.3393,1.328,1.3547,1.336,1.3407,1.3975,1.3574,0.0,1.3553,1.3347,1.3213,1.322,1.3227,1.2816,1.1852,1.1998,1.2141,1.2141,1.2469,1.2559,1.2328,1.2612,1.2144,1.0816,1.0657,1.0548,1.0407,0.0,0.0,0.0,0.0,0.0,0.0,0.0,0.0,0.0,0.0,0.0,0.0,0.0,0.0,0.0,0.0,0.0,0.0,0.0,0.0,0.0,2.0859,2.0605,2.0605,2.0605,2.0605,2.0605,2.0605,2.0605,2.0605,2.0605,2.0605,2.0605,2.0869,2.1055,2.1055,2.1357,2.1523,2.1523,2.1211,2.1201,2.1564,2.1211,2.1211,2.1523,2.1523,2.1523,2.1564,2.1396,2.1348,2.1318,2.0889,2.0664,2.0644,2.0469,2.0429,2.0255,1.8825,1.8333,1.8303,1.7506,1.7177,1.7202,1.726,1.6895,1.6486,1.6764,1.6642,1.6404,1.6404,1.6404,1.6239,1.5462,1.5255,1.5095,1.4292,1.4088,1.4088,1.4088,1.4088,1.4088,1.4088,1.4021,1.3968,1.3968,1.3901,1.3734,1.3387,1.3267,1.3267,1.3427,1.3313,1.324,1.332,1.326,1.3287,1.346,1.3487,1.3485,1.3441,1.3532,1.3536,1.3536,1.3649,1.3252,1.2328,1.2392,1.1877,1.0692,1.0712,1.0681,0.0,0.0,0.0,0.0,0.0,0.0,0.0,0.0,0.0,0.0,0.0,0.0,0.0,0.0,0.0,0.0,0.0,0.0,0.0,0.0,0.0,0.0,2.1193,2.1193,2.1193,2.0857,2.0605,2.0605,2.0605,2.0858,2.1494,2.1553,2.1818,2.247,2.2731,2.2897,2.2897,2.3148,2.3304,2.3304,2.3033,2.2783,2.2574,2.2322,2.2089,2.1885,2.1885,2.2154,2.2584,2.2584,2.2584,2.2564,2.2302,2.182,2.1171,2.0957,2.0732,2.0527,0.0,0.0,0.0,0.0,1.839,1.8069,1.855,1.806,1.7374,1.7868,1.7706,1.7302,1.7302,1.7302,1.718,1.656,1.6355,1.6239,1.5594,1.5428,1.5428,1.5428,1.5428,1.5428,1.5428,1.5428,1.5428,1.5428,1.5428,0.0,1.4379,1.3851,1.3621,1.3741,1.3654,1.3621,1.3741,1.3654,1.3641,1.3808,1.3828,1.3901,1.4075,1.4202,0.0,0.0,0.0,1.4008,1.3455,1.3523,0.0,0.0,0.0,1.2401,1.2083,1.2249,0.0,0.0,1.111,1.0641,0.0,0.0,0.0,0.0,0.0,0.0,0.0,0.0,0.0,0.0,0.0,0.0,0.0,0.0,0.0,0.0,2.1986,2.2395,2.2438,2.1753,2.1142,2.0954,2.0917,2.1485,2.2942,2.3105,2.3736,2.5099,2.5228,2.525,2.525,2.5306,0.0,0.0,0.0,2.4802,2.3852,2.3798,2.3296,2.2426,2.2426,2.2931,2.3852,2.3852,2.3852,2.3852,2.3798,2.2895,2.145,2.1401,2.1155,2.075,2.0644,2.0605,2.0605,2.0605,2.0001,1.9323,2.0284,0.0,0.0,1.8829,1.851,1.7658,1.7658,1.7658,1.7658,1.7536,1.7496,1.7455,1.7334,1.7302,1.7302,1.7302,1.7302,1.7302,1.7302,1.7302,1.7302,1.7302,1.7302,1.7009,1.6026,1.4977,1.4338,1.4436,1.4255,1.4182,1.4436,1.4249,1.4095,1.4135,1.4135,0.0,1.4135,1.4369,1.4409,1.4155,1.4409,1.4689,1.4995,1.5211,1.5224,1.5015,1.5008,1.4754,1.4188,1.4442,1.4569,1.4482,1.2281,1.1271,0.0,0.0,0.0,0.0,0.0,0.0,0.0,0.0,0.0,0.0,0.0,0.0,0.0,0.0,0.0,2.2995,2.3924,2.4742,2.5189,2.5076,2.4448,2.3104,2.2931,2.3231,2.3973,2.447,2.4876,2.5171,2.5492,2.5678,2.5678,2.606,2.6233,2.6233,2.588,2.5748,2.5935,2.5547,2.5426,2.5628,2.5628,0.0,2.5905,2.5905,2.5905,2.5924,2.5525,2.4472,2.3026,2.2712,2.2237,2.1669,2.0895,2.0605,2.0605,2.0605,2.0489,2.0323,2.0527,2.0323,2.0001,2.0206,2.0157,1.9962,1.9962,1.9962,0.0,1.8917,1.8669,1.847,1.7545,1.7302,1.7302,1.7302,1.7302,1.7302,1.7302,1.7302,1.7302,1.7302,1.7302,1.7212,1.7009,1.6116,1.5117,1.4282,1.4122,1.4108,1.4162,1.4122,1.4175,1.4409,1.4436,1.4436,1.4436,1.4489,1.4496,1.4442,1.4716,1.4948,1.5008,1.5062,1.5068,1.5008,1.5008,1.4955,1.4841,1.4894,1.4877,1.4877,1.4417,1.4199,0.0,0.0,0.0,0.0,0.0,0.0,0.0,0.0,0.0,0.0,0.0,2.3356,2.345,0.0,2.4763,2.5113,2.6041,2.683,2.7102,2.7307,2.6794,2.495,2.4526,2.4759,2.5804,2.6163,2.6663,2.7451,2.7675,2.7818,2.7818,2.8028,2.8131,2.8131,2.7909,2.7648,2.7279,2.7065,2.6794,2.6524,2.6524,2.676,2.7279,2.7279,2.7279,2.7267,2.7053,2.6092,2.4592,2.3913,2.3248,2.2702,2.2226,2.1745,2.1298,2.1298,2.1001,2.0605,2.0605,2.0605,2.0605,2.0605,2.0605,2.0605,2.0605,2.0605,2.0489,1.9962,1.9805,1.9678,1.9107,1.8948,1.8948,1.8948,1.8948,1.8948,1.8948,1.8948,1.8948,1.8948,1.8948,1.8789,1.823,1.7698,1.6968,1.5876,1.5718,1.5718,1.5718,1.522,1.4951,1.5106,1.4631,1.4362,1.4509,1.4656,1.4743,1.4743,1.5017,1.5177,1.5177,1.5317,1.5331,1.5184,1.5177,1.511,1.5008,1.511,1.5177,1.5184,1.5331,1.5317,0.0,0.0,0.0,0.0,0.0,0.0,0.0,2.3122,2.3374,2.307,2.4166,2.5199,2.5336,2.6213,2.6987,2.719,2.8172,2.8947,2.9044,2.9338,2.8939,2.74,2.6416,2.6461,2.7816,2.7929,2.8484,2.9715,2.9792,2.9792,2.9792,2.9792,2.9792,2.9792,2.9792,2.9365,2.8426,2.8426,2.7988,2.7139,2.7139,2.7585,2.8426,2.8426,2.8426,2.8426,2.8108,2.7268,2.6052,2.5002,2.4354,2.3979,2.407,2.3478,2.2553,2.2366,2.1707,2.0857,2.0857,2.075,2.0605,2.0605,2.0605,2.0605,2.0605,2.0605,2.0605,2.0605,2.0605,2.0605,2.0605,2.0605,2.0605,2.0605,2.0605,2.0605,2.0605,2.0605,2.0605,2.0605,2.0605,2.0323,1.9441,1.9313,1.8829,1.7496,1.7302,1.7302,1.7302,1.656,1.6057,1.6159,1.5356,1.4993,1.5259,1.5396,1.5442,1.5442,1.5448,1.5478,1.5478,1.5705,1.5718,1.5484,1.5709,1.5725,1.5531,1.5725,1.5848,1.5855,1.5812,1.5705,2.207,2.2891,2.3613,2.4092,2.3955,2.3711,0.0,2.4226,2.4787,2.4735,2.5712,2.6603,2.6603,2.7441,2.8262,2.8767,3.0078,3.121,3.1697,3.181,3.1755,3.1547,2.9721,2.8759,2.9484,2.9537,2.96,2.9792,2.9792,2.9792,2.9792,2.9792,2.9792,2.9792,2.9792,2.9753,2.9624,2.9624,2.9546,2.9417,2.9417,2.9495,2.9624,2.9624,2.9624,2.9548,2.8152,2.746,2.7213,2.6107,2.5596,2.5574,2.601,2.5546,2.4564,2.3661,2.2702,2.1849,2.1849,2.1298,2.0605,2.0605,2.0605,2.0605,2.0605,2.0605,2.0605,2.0605,2.0605,2.0605,2.0605,2.0605,2.0605,2.0605,2.0605,2.0605,2.0605,2.0605,2.0605,2.0605,2.0605,2.0566,2.044,2.0401,1.9717,1.7617,1.7302,1.7302,1.7302,1.722,1.7294,1.7705,1.7654,1.7717,1.811,1.7403,1.6928,1.6928,1.6197,1.5785,1.5785,1.5764,1.5764,1.5785,1.6847,1.7431,1.7394,1.7431,1.7453,1.7407,1.6325,1.5764,2.3027,2.3691,2.4199,2.4375,2.4287,2.4254,2.4737,2.5334,2.5903,2.6352,2.7573,2.8637,2.893,2.9851,3.0762,3.1316,3.195,3.2453,3.2679,3.2717,3.2717,3.2717,3.1613,3.0671,3.0305,3.0269,3.0143,2.9817,2.9792,2.9792,2.9792,2.9792,2.9792,2.9792,2.9792,2.9792,2.9792,2.9792,2.9792,2.9792,2.9792,2.9792,2.9792,2.9792,2.9792,2.9779,2.913,2.8641,2.8296,2.7791,2.7225,2.6671,2.6876,2.6519,2.5734,2.4743,2.3745,2.2888,2.2888,2.2226,2.1413,2.1413,2.1039,2.0605,2.0605,2.0605,2.0605,2.0605,2.0605,2.0605,2.0605,2.0605,2.0605,2.0605,2.0605,2.0605,2.0605,2.0605,2.0605,2.0605,2.0605,2.0605,2.0605,2.0605,2.0284,1.9353,1.9234,1.9234,1.9234,1.8865,1.8575,1.8363,1.8511,1.8702,1.8896,1.8649,1.8533,1.8533,1.818,1.794,1.794,1.794,1.794,1.794,1.8495,1.8726,1.8726,1.8726,1.8365,1.7692,1.7131,1.6527,2.3935,2.4365,2.4629,2.4746,2.4687,2.4855,2.593,2.6572,2.7281,2.8314,2.9704,3.0846,3.1234,3.1919,3.2591,3.3048,3.3124,3.3124,3.3124,3.3124,3.3124,3.3124,3.2704,3.2089,3.1148,3.0783,3.0457,3.0043,2.988,2.9792,2.9792,2.9792,2.9792,2.9792,2.9792,2.9792,2.9792,2.9792,2.9792,2.9792,2.9792,2.9792,2.9792,2.9792,2.9792,2.9792,2.9792,2.9553,2.9151,2.8963,2.8461,2.7708,2.7442,2.7065,2.6596,2.5748,2.4779,2.3927,2.3927,2.3257,2.2403,2.2403,2.1962,2.1346,2.1088,2.1011,2.0934,2.0673,2.0605,2.0605,2.0605,2.0605,2.0605,2.0605,2.0605,2.0605,2.0605,2.0605,2.0605,2.0605,2.0605,2.0605,2.0605,2.0605,2.0644,2.0732,2.0752,2.0752,2.0752,2.0557,2.0194,1.9745,1.9992,2.0175,2.0175,2.0061,1.9988,1.9988,1.967,1.9497,1.9497,1.9497,1.9497,1.9497,1.9807,1.9988,1.9988,1.9988,1.9542,1.868,1.8365,1.7723,2.4912,2.5086,2.5146,2.5538,2.5371,2.5526,2.7149,2.8139,2.9148,3.0779,3.2134,3.2988,3.3,3.3056,3.3056,3.3124,3.3124,3.3124,3.3124,3.3124,3.3124,3.3124,3.3056,3.2817,3.2227,3.1223,3.0608,3.0595,3.0093,2.9792,2.9792,2.9792,2.9792,2.9792,2.9792,2.9792,2.9792,2.9792,2.9792,2.9792,2.9792,2.9792,2.9792,2.9792,2.9792,2.9792,2.9792,2.9779,2.9729,2.9126,2.8875,2.8737,2.7708,2.7268,2.7228,2.6653,2.5804,2.4933,2.4933,2.4301,2.3441,2.3441,2.3441,2.322,2.2253,2.1952,2.1773,2.0867,2.0605,2.0605,2.0605,2.0605,2.0605,2.0605,2.0605,2.0605,2.0605,2.0605,2.0605,2.0605,2.0605,2.0605,2.0605,2.0605,2.0752,2.1112,2.1171,2.1171,2.1171,2.1912,2.2386,2.2363,2.2732,2.2984,2.2984,2.1933,2.1248,2.1248,2.0169,1.9497,1.9497,1.9497,1.9497,1.9497,2.0666,2.1248,2.1248,2.1248,2.1248,2.1159,1.9988,1.9405,2.5391,2.5518,2.5547,2.5654,2.5577,2.6104,2.8276,2.9009,2.9805,3.2028,3.2797,3.3194,3.3558,3.3319,3.3206,3.3558,3.3319,3.3124,3.3124,3.3124,3.3124,3.3124,3.3124,3.3006,3.2805,3.2114,3.1524,3.116,3.0633,3.0331,3.0331,2.9993,2.9792,2.9792,2.9792,2.9792,2.9792,2.9792,2.9792,2.9792,2.9792,2.9792,2.9792,2.9792,2.9792,2.9792,2.9792,2.9792,2.9779,2.9578,2.9277,2.8813,2.8109,2.7607,2.7253,2.67,2.628,2.599,2.599,2.5335,2.4492,2.4492,2.4036,2.3441,2.311,2.2999,2.2925,2.2601,2.2038,2.1517,2.1517,2.1088,2.0605,2.0605,2.0605,2.0605,2.0605,2.0605,2.0605,2.0605,2.0605,2.0605,2.0605,2.081,2.125,2.1973,2.1846,2.1768,2.2051,2.2334,2.2617,2.2857,2.3013,2.3091,2.3091,2.2731,2.2492,2.2492,2.2129,2.1908,2.1908,2.1908,2.1908,2.1908,2.2315,2.2492,2.2492,2.2492,2.2076,2.1293,2.089,2.026,2.5615,2.5693,2.5693,2.5693,2.5693,2.6332,2.8808,2.9407,3.009,3.2568,3.3232,3.3483,3.3834,3.3608,3.3558,3.411,3.3734,3.337,3.337,3.337,3.3294,3.3106,3.3124,3.3124,3.3124,3.2742,3.229,3.1725,3.1198,3.0809,3.062,3.0281,2.9993,2.9804,2.9792,2.9792,2.9792,2.9792,2.9792,2.9792,2.9792,2.9792,2.9792,2.9792,2.9792,2.9792,2.9792,2.9792,2.9792,2.9792,2.9578,2.9189,2.8612,2.8059,2.7507,2.6989,2.6663,2.6499,2.6499,2.6094,2.5558,2.5558,2.5099,2.4505,2.4145,2.4036,2.3963,2.3588,2.3036,2.2553,2.2553,2.2075,2.1642,2.1642,2.1642,2.1642,2.1642,2.1642,2.1642,2.1642,2.1642,2.1693,2.1886,2.2137,2.2308,2.2464,2.2412,2.2432,2.2705,2.2691,2.2789,2.3062,2.3091,2.3091,2.3091,2.3091,2.3091,2.3091,2.3091,2.3091,2.3091,2.3091,2.3091,2.3091,2.3091,2.3091,2.3091,2.3091,2.2677,2.1933,2.1933,2.1534,2.5654,2.5674,2.5693,2.5693,2.5732,2.6428,2.8855,2.9453,3.0192,3.2649,3.3533,3.3922,0.0,3.3935,3.4085,3.4625,3.4236,3.3859,3.3859,3.3859,3.3658,3.3144,3.3124,0.0,0.0,3.3124,3.2855,3.2303,3.175,3.1223,3.0721,3.0645,3.0382,2.9854,2.9804,2.9792,2.9792,2.9792,2.9792,2.9792,2.9792,2.9792,2.9792,2.9792,2.9792,2.9792,2.9792,2.9792,2.9792,2.9792,2.9792,2.9729,2.9151,2.8574,2.8084,2.7494,2.7002,2.6575,2.6549,2.6512,2.6499,2.6499,2.6499,2.6314,2.537,2.5075,2.4898,2.3927,2.3635,2.3599,2.3599,2.3551,2.3514,2.3514,2.3514,2.3514,2.3514,2.3514,2.3514,2.3514,2.35,2.3727,2.428,2.4317,2.3929,2.2869,2.2967,2.3178,2.3091,2.3091,2.3091,2.3091,2.3091,2.3091,2.3091,2.3091,2.3091,2.3091,2.3091,2.3091,2.3091,2.3091,2.3091,2.3091,2.3091,2.3091,2.3091,2.3091,2.3091,2.3091,2.3091,2.3091,2.5244,2.5478,2.5693,2.5693,2.6428,2.7542,2.9039,3.009,3.1285,3.3276,3.3796,3.4148,3.4931,3.4449,3.4085,3.4625,3.3909,3.3282,3.3282,3.3282,3.3232,3.3136,0.0,3.3124,3.3124,3.3124,3.3061,3.2867,3.2328,3.1951,3.1813,3.1047,3.0557,3.0407,3.0005,2.9792,2.9792,2.9792,2.9792,2.9792,2.9792,2.9792,2.9792,2.9792,2.9792,2.9792,2.9792,2.9792,2.9792,2.9792,2.9792,2.9729,2.9151,2.8813,2.8562,2.7645,2.7457,2.762,2.7218,2.6839,2.6499,2.6499,2.6499,2.6465,2.6198,2.6129,2.606,2.5804,2.5217,2.4636,2.4636,2.4047,2.3514,2.3514,2.3514,2.3514,2.3514,2.3514,2.3514,2.3514,2.3817,2.4381,2.5245,2.5405,2.5411,2.5454,2.4851,2.4049,2.3222,2.3091,2.3091,2.3091,2.3091,2.3091,2.3091,2.3091,2.3091,2.3091,2.3091,2.3091,2.3091,2.3091,2.3091,2.3091,2.3091,2.3091,2.3091,2.3091,2.3091,2.3091,2.3091,2.3091,2.5312,2.5547,2.5693,2.5693,2.6245,2.7309,2.9305,3.0274,3.138,3.3456,3.4085,3.4449,3.5019,3.4474,3.4161,3.4906,3.4161,3.3432,3.3432,3.3432,3.3345,0.0,3.3124,0.0,3.3124,3.3124,3.3124,3.3124,3.278,3.2478,3.2227,3.1637,3.111,3.0633,3.0319,3.0043,2.9792,2.9792,2.9792,2.9792,2.9792,2.9792,2.9792,2.9792,2.9792,2.9792,2.9792,2.9792,2.9792,2.9792,2.9792,2.9767,2.944,2.9113,2.885,2.8524,2.826,2.8097,2.8034,2.7645,2.7178,2.6939,2.6688,2.6499,2.6499,2.6499,2.6499,2.6499,2.6094,2.5664,2.5664,2.5252,2.4803,2.4803,2.4803,2.4803,2.4803,2.5016,2.524,2.5477,2.5938,2.6356,2.6424,2.6662,2.6754,2.6509,2.5975,2.5305,2.4681,2.3724,2.3299,2.38,2.3387,2.3517,2.452,2.3681,2.3299,2.38,2.3387,2.3091,2.3091,2.3091,2.3091,2.3091,2.3091,2.3091,2.3091,2.3091,2.3091,2.3091,2.3091,2.3091,2.5411,2.5596,2.5693,2.5693,2.583,2.6683,2.9565,3.0278,3.1009,3.3504,3.4324,3.4638,3.4713,3.4274,3.4211,3.5132,0.0,3.3796,3.3796,3.3796,3.3608,3.3174,3.3124,3.3124,3.3124,3.324,3.324,3.3124,3.324,3.3013,3.2353,3.2252,3.1754,3.0831,3.0718,3.0452,2.9972,3.0011,3.0011,3.0011,3.0011,3.0011,2.9972,2.9869,2.9792,2.9792,2.9792,2.9792,2.9792,2.9792,2.9792,2.9792,2.9792,2.9478,2.9063,2.9616,2.9214,2.8499,2.8863,2.8725,2.821,2.7507,2.7002,2.6587,2.6512,2.6499,2.6499,2.6499,2.6499,2.6499,2.6499,2.6499,2.6499,2.6499,2.6549,2.66,2.66,2.704,2.7557,2.8109,2.8562,2.8623,2.7767,2.8008,2.8016,2.7098,2.6812,2.6719,2.6719,2.4851,2.393,2.4914,2.4135,2.4349,2.6348,2.4563,2.3757,2.4745,2.3714,2.3091,2.3091,2.3091,2.3091,2.3091,2.3091,2.3091,2.3091,2.3091,2.3091,2.3091,2.3091,2.3091,2.4629,2.5128,2.5693,2.5693,2.6476,2.7799,2.9753,3.0652,0.0,0.0,3.4299,3.4173,3.4638,3.4274,3.396,3.4161,3.3646,3.3262,3.3262,3.3262,3.3181,0.0,3.3124,3.3124,3.3124,3.3911,3.4037,3.3154,3.3911,3.3985,3.3016,3.2466,3.2057,3.1758,3.1325,3.1037,3.097,3.097,3.097,3.097,3.097,3.097,3.0932,3.0139,2.9792,2.9792,2.9792,2.9792,2.9792,2.9792,2.9792,2.9792,2.9792,2.9729,2.9654,2.9754,2.9955,3.0131,2.9767,2.9578,2.9252,2.777,2.7253,2.709,2.6637,2.6499,2.6499,2.6499,2.6499,2.6499,2.6499,2.6499,2.6499,2.6499,2.6839,2.7178,2.7178,2.757,2.8122,2.865,2.8825,2.9,2.9309,2.9433,2.9456,2.9248,2.845,2.7804,2.7804,2.6707,2.5975,2.6182,2.6016,2.6058,2.6483,2.5252,2.4585,2.4787,2.3714,2.3091,2.3091,2.3091,2.3091,2.3091,2.3091,2.3091,2.3091,2.3091,2.3091,2.3091,2.3091,2.3091,2.4697,2.5234,2.5693,2.5693,2.6159,2.7239,2.9659,0.0,0.0,0.0,3.4085,3.3985,3.4248,3.3847,3.3571,3.3847,3.3432,3.3124,3.3124,3.3124,3.3124,3.3124,3.3124,3.3124,3.3124,3.4079,3.4511,3.3953,3.4884,3.4761,3.3197,3.3078,3.3104,3.3252,3.2732,3.2272,3.1924,3.1924,3.1924,3.1924,3.1924,3.1924,3.1924,3.1476,3.1267,3.1267,3.1267,3.0983,3.052,3.052,3.0241,2.9792,2.9792,2.9792,2.9867,3.0419,3.062,3.0658,3.0947,3.0683,3.0043,2.895,2.7996,2.7231,2.7002,2.6725,2.6499,2.6499,2.6499,2.6499,2.6499,2.6713,2.6927,2.6927,2.7341,2.7795,2.8084,2.8348,2.8699,2.9264,2.9377,2.9465,2.9741,2.9792,2.9792,2.9792,2.9326,2.8976,2.8976,2.8542,2.7999,2.7412,2.6842,2.6976,2.8131,2.6666,2.5911,2.6479,2.5462,2.4851,2.4851,2.4851,2.4851,2.4851,2.4307,2.3963,2.3963,2.3387,2.3091,2.3091,2.3091,2.3091,2.5018,2.54,2.5693,2.5693,2.58,2.6648,2.9532,3.02,0.0,3.338,3.3809,3.3721,3.3721,3.337,3.3262,3.3658,3.3458,3.3206,3.3136,3.3224,3.3206,0.0,3.3181,0.0,3.3441,3.4504,3.5153,3.502,3.5734,3.5507,3.3856,3.4204,3.4537,3.4729,3.4189,3.3575,3.289,3.289,3.289,3.289,3.289,3.289,3.289,3.2713,3.2593,3.2593,3.2593,3.2177,3.1499,3.1278,3.0771,3.0113,3.0113,3.0113,3.0228,3.1193,3.1255,3.0987,3.1656,3.1323,3.052,2.9967,2.8737,2.7457,2.7457,2.7027,2.6549,2.6788,2.6763,2.67,2.6813,2.7165,2.7494,2.7607,2.7959,2.8436,2.895,2.9076,2.9252,2.9704,2.9792,2.9792,2.9792,2.9792,2.9792,2.9792,2.9792,2.9792,2.9792,2.9792,2.9456,2.8557,2.7706,2.7931,2.9663,2.7959,2.7197,2.8056,2.7087,2.6524,2.6524,2.6524,2.6524,2.6524,2.563,2.5168,2.5168,2.4006,2.3464,2.3474,2.3222,2.3091,2.5106,2.54,2.5693,2.5693,2.6164,2.7262,2.9642,0.0,3.1041,3.3408,3.3508,3.3156,3.3156,3.3106,3.3136,3.3187,3.3533,3.3658,3.3156,3.3508,3.3633,3.3174,0.0,0.0,3.4522,3.594,3.6658,3.6081,3.6172,3.6132,3.5934,3.6286,3.629,3.5776,3.5203,3.4556,3.3891,3.3876,3.3876,3.3876,3.3876,3.3876,3.3842,3.2996,3.2593,3.2593,3.2593,3.2558,3.2429,3.1536,3.1143,3.1068,3.1068,3.1068,3.1147,3.174,3.1899,3.1771,3.1014,3.0696,3.052,2.9967,2.9001,2.8034,2.8034,2.7329,2.67,2.767,2.7595,2.7318,2.7821,2.7996,2.816,2.8624,2.8775,2.8976,2.9591,2.9716,2.9729,2.9779,2.9792,2.9792,2.9792,2.9792,2.9792,2.9792,2.9792,2.9792,2.9792,2.9792,2.9753,2.9663,2.9546,2.9585,2.9792,2.8648,2.8016,2.8084,2.7087,2.6524,2.6524,2.6524,2.6524,2.6524,2.64,2.6348,2.6348,2.521,2.4617,2.4628,2.3594,2.3091,2.5047,2.5195,2.5332,2.5332,2.6064,2.7246,2.8944,0.0,3.1352,3.3077,3.3232,3.3124,3.3124,3.3124,3.3124,3.3124,3.3257,3.3445,3.3558,3.3759,3.3822,3.3596,3.3771,3.4094,0.0,3.5818,3.7001,3.8032,3.813,3.813,3.813,3.7659,3.7411,3.739,3.6763,3.6163,3.5495,3.5097,3.4905,3.4905,3.4905,3.4905,3.4872,3.4524,3.4341,3.4341,3.4341,3.4007,3.3415,3.3031,3.2558,3.2033,3.2033,3.2033,3.2028,3.2002,3.2,3.1912,3.1307,3.0871,3.0583,3.0357,2.9515,2.8562,2.8562,2.8059,2.7544,2.7984,2.7946,2.7821,2.8047,2.8348,2.875,2.9315,2.9453,2.9515,2.9741,2.9792,2.9792,2.9792,2.9792,2.9792,2.9792,2.9792,2.9792,2.9792,2.9792,2.9792,2.9792,2.9792,2.9792,2.9792,2.9792,2.9792,2.9792,2.9365,2.9106,2.9106,2.8712,2.8502,2.8502,2.8502,2.8502,2.8502,2.7827,2.7441,2.7441,2.6378,2.5462,2.4787,2.4339,2.3757,2.4951,2.5018,2.4873,2.4873,2.6044,2.748,0.0,0.0,3.1765,3.2634,3.2817,3.2817,3.2817,3.2817,3.288,3.3056,3.3495,3.3938,3.4334,3.4817,3.5137,3.5167,0.0,3.5532,3.5873,3.6652,3.7762,3.9301,3.9388,3.9388,3.9388,3.8671,3.8311,3.8407,3.7749,3.7105,3.6492,3.5833,3.5504,3.5504,3.5504,3.5504,3.5504,3.5504,3.5504,3.5504,3.5504,3.51,3.4428,3.4129,3.3602,3.3031,3.3031,3.3031,3.2967,3.2677,3.2583,3.2489,3.1954,3.1513,3.1203,3.1203,3.047,2.9591,2.9591,2.8872,2.8172,2.8511,2.8599,2.8599,2.8599,2.8888,2.9289,2.9691,2.9792,2.9792,2.9792,2.9792,2.9792,2.9792,2.9792,2.9792,2.9792,2.9792,2.9792,2.9792,2.9792,2.9792,2.9792,2.9792,2.9792,2.9792,2.9792,2.9792,2.9792,2.9792,2.9792,2.9792,2.9792,2.9792,2.9792,2.9792,2.9792,2.9792,2.9028,2.8597,2.8597,2.7493,2.6584,2.5786,2.5452,2.467,2.4951,2.4756,2.4424,2.4424,2.6183,2.8074,0.0,3.0548,3.2173,3.2227,3.2227,3.2227,3.2227,3.2227,3.2403,3.298,3.443,3.5479,3.5563,3.6957,3.7993,0.0,3.8601,3.888,3.8763,3.9113,3.9388,3.9388,3.9388,3.9388,3.9388,3.9388,3.9059,3.8407,3.7749,3.7105,3.6492,3.5833,3.5504,3.5504,3.5504,3.5504,3.5504,3.5504,3.5504,3.5504,3.5504,3.5504,3.5407,3.4394,3.3993,3.3993,3.3993,3.3993,3.3993,3.3993,3.3959,3.3856,3.2904,3.2585,3.2571,3.2571,3.1924,3.1167,3.1167,2.9744,2.8348,2.9465,2.9779,2.9779,2.9779,2.9779,2.9779,2.9792,2.9792,2.9792,2.9792,2.9792,2.9792,2.9792,2.9792,2.9792,2.9792,2.9792,2.9792,2.9792,2.9792,2.9792,2.9792,2.9792,2.9792,2.9792,2.9792,2.9792,2.9792,2.9792,2.9792,2.9792,2.9792,2.9792,2.9792,2.9792,2.9792,2.9792,2.9792,2.9792,2.9792,2.8636,2.8096,2.8044,2.6964,2.5891,2.541,2.5205,2.4863,2.4863,2.6701,2.8577,2.8746,3.058,3.2215,3.2215,3.1913,3.1763,3.2139,3.2215,3.2403,3.298,3.4137,3.526,3.6082,3.6561,0.0,3.701,3.7057,3.737,3.8045,3.89,3.9388,3.9388,3.9388,3.9388,3.9388,3.9388,3.932,3.9095,3.8437,3.7764,3.712,3.6492,3.5953,3.5504,3.5504,3.5504,3.5504,3.5504,3.5504,3.5504,3.5504,3.5504,3.5472,3.5166,3.5019,3.5019,3.5019,3.5019,3.4953,3.4245,3.3993,3.3876,3.2925,3.2593,3.2593,3.2593,3.2393,3.2177,3.2177,3.0795,2.934,2.9691,2.9792,2.9792,2.9792,2.9792,2.9792,2.9792,2.9792,2.9792,2.9792,2.9792,2.9792,2.9792,2.9792,2.9792,2.9792,2.9792,2.9792,2.9792,2.9792,2.9792,2.9792,2.9792,2.9792,2.9792,2.9792,2.9792,2.9792,2.9792,2.9792,2.9792,2.9792,2.9792,2.9792,2.9792,2.9792,2.9792,2.9792,2.9792,2.9792,2.9443,2.8858,2.8084,2.7005,2.6485,2.541,2.5156,2.4955,2.5448,2.7195,2.8868,2.9116,3.0748,3.2102,3.1687,3.1336,3.126,3.18,3.1901,3.2277,3.35,3.4581,3.5695,3.6934,3.7189,0.0,3.8044,3.8159,3.8529,3.9448,3.9891,4.0053,3.9813,4.0023,3.9948,3.9454,3.9649,3.9679,3.9388,3.8751,3.8078,3.7419,3.6791,3.6148,3.5504,3.5504,3.5504,3.5504,3.5504,3.5504,3.5504,3.5504,3.5504,0.0,3.5504,3.5504,3.5504,3.5504,3.5504,3.5424,3.4806,3.4576,3.4476,3.3905,3.3685,3.3685,3.3685,3.3429,3.3066,3.2713,3.1792,3.0771,3.0419,3.0317,3.0241,2.9895,2.9792,2.9792,2.9792,2.9792,2.9792,2.9792,2.9792,2.9792,2.9792,2.9792,2.9792,2.9792,2.9792,2.9792,2.9792,2.9792,2.9792,2.9792,2.9792,2.9792,2.9792,2.9792,2.9792,2.9792,2.9792,2.9792,2.9792,2.9792,2.9792,2.9792,2.9792,2.9792,2.9792,2.9792,2.9792,2.9792,2.9792,2.9456,2.8727,2.8241,2.8011,0.0,2.4775,2.4815,2.6052,2.7631,2.9011,2.9685,3.1038,0.0,3.0821,3.062,3.0771,3.1298,3.1424,3.2186,3.4369,3.5588,3.6707,3.7992,3.8533,0.0,4.057,4.0998,4.1526,4.2276,4.1782,4.113,4.0516,4.0995,4.0801,3.9634,4.0053,4.0068,3.9514,3.8826,3.8138,3.7479,3.6866,3.6222,3.5579,3.5534,3.5504,3.5504,3.5504,3.5504,3.5504,3.5504,3.5504,3.5504,3.5504,3.5504,3.5504,3.5504,3.5504,3.5504,3.5504,3.5504,3.5504,3.5504,3.5504,3.5504,3.5504,3.4872,3.3945,3.3066,3.2713,3.2429,3.1536,3.1278,3.1068,3.0139,2.9895,2.9895,2.983,2.9869,2.9895,2.9895,2.9895,2.9895,2.9895,2.9869,2.9792,2.9792,2.9792,2.983,2.9895,2.9818,2.983,2.9895,2.983,2.9792,2.9792,2.9792,2.9792,2.9792,2.9792,2.9792,2.9792,2.9792,2.9792,2.9792,2.9792,2.9792,2.9792,2.9792,2.9792,2.9792,2.9829,2.9854,2.9867,3.0419,3.0124,2.457,0.0,2.5698,2.6983,2.8291,2.9421,0.0,3.0959,3.1399,3.0758,3.062,3.0771,3.1298,3.1738,3.2603,3.4434,3.5954,3.7348,3.8467,3.8749,0.0,3.9805,3.9619,3.9982,4.1511,4.1512,4.1309,4.116,4.0831,4.0711,4.0905,4.0113,3.9813,4.0157,3.9529,3.8856,3.8167,3.7524,3.6881,3.6252,3.5744,3.5504,3.5504,3.5504,3.5504,3.5504,3.5504,3.5504,3.5504,3.5504,3.5504,3.5504,3.5504,3.5504,3.5504,3.5504,3.5504,3.5504,3.5504,3.5504,3.5504,3.5504,3.5359,3.51,3.4887,3.3788,3.2558,3.2321,3.2285,3.2069,3.1106,3.0871,3.0696,2.9972,3.0343,3.0871,3.0871,3.0871,3.0871,3.0871,3.0279,2.9792,2.9792,2.9792,3.0037,3.0758,3.0241,3.0075,3.0758,3.0241,2.9792,2.9792,2.9792,2.9792,2.9792,2.9792,2.9792,2.9792,2.9792,2.9792,2.9792,2.9792,2.9792,2.9792,2.9792,2.9792,2.9792,3.0218,3.0419,3.0432,3.0959,3.1301,2.4131,2.498,2.618,2.7444,2.8645,2.9671,3.0344,3.0774,3.0947,3.067,3.062,3.0859,3.1625,3.2014,3.2755,3.4419,3.5832,3.7219,0.0,0.0,3.9758,4.0104,4.0047,4.0589,4.2139,4.2013,4.1871,4.1871,4.1773,4.1639,4.1384,4.0711,4.0337,4.0397,3.9768,3.9095,3.8407,3.7749,3.7105,3.6477,3.5818,3.5504,3.5504,3.5504,3.5504,3.5504,3.5504,3.5504,3.5504,3.5504,3.5504,3.5504,3.5504,3.5504,3.5504,3.5504,3.5504,3.5504,3.5504,3.5504,3.5504,3.5504,3.5504,3.5504,3.5504,3.4773,3.3837,3.3394,3.3241,3.3031,3.2105,3.1852,3.1706,3.1206,3.1476,3.1852,3.1852,3.1852,3.1852,3.1852,3.1439,3.1095,3.1095,3.1095,3.1267,3.1792,3.1402,3.1119,3.118,3.0771,3.0279,2.9869,2.9792,2.9792,2.9792,2.9792,2.9792,2.9792,2.9792,2.9792,2.9792,2.9792,2.9792,2.9792,2.9792,2.9917,3.0168,3.047,3.0733,3.0984,3.1524,3.1926,2.3691,2.4779,2.6237,2.759,2.862,2.9588,3.0499,3.0733,3.0733,3.0733,3.0809,3.1135,3.2039,3.2403,3.3094,3.4653,3.5908,3.7219,3.8832,3.9826,4.0546,4.0869,4.1207,4.1893,4.317,4.2836,4.2545,4.2545,4.294,4.2746,4.1728,4.1527,4.113,4.0561,3.9903,3.9245,3.8556,3.7898,3.724,3.6626,3.5968,3.5609,3.5504,3.5504,3.5504,3.5504,3.5504,3.5504,3.5504,3.5504,3.5504,3.5504,3.5504,3.5504,3.5504,3.5504,3.5504,3.5504,3.5504,3.5504,3.5504,3.5504,3.5504,3.5504,3.5504,3.5504,3.5326,3.4461,3.4245,3.3993,3.3066,3.282,3.2784,3.2629,3.2713,3.282,3.282,3.282,3.282,3.282,3.2713,3.2593,3.2593,3.2593,3.2629,3.2784,3.2713,3.2357,3.1706,3.1499,3.1119,3.0317,3.0216,3.0216,3.0216,3.0216,3.019,3.0037,2.9869,2.9792,2.9792,2.9792,2.9792,2.9792,2.988,3.0143,3.062,3.0743,3.1085,3.1537,3.2089,3.234,2.3198,2.4071,2.5487,2.7412,2.8015,2.8726,3.0811,3.1273,3.1273,3.1273,3.1637,3.2014,3.2177,3.3363,3.4668,3.5801,3.761,3.9202,4.0018,3.981,4.0003,4.1179,4.1353,4.1893,4.317,4.32,4.314,4.314,4.2761,4.2671,4.2976,4.1983,4.1324,4.1235,4.0591,3.9933,3.9275,3.8571,3.7913,3.7255,3.6626,3.6043,3.5504,3.5504,3.5504,3.5504,3.5504,3.5504,3.5504,3.5504,3.5504,3.5504,3.5504,3.5504,3.5504,3.5504,3.5504,3.5504,3.5504,3.5504,3.5504,3.5504,3.5504,3.5504,3.5504,3.5504,3.5472,3.5311,3.5279,3.5019,3.4027,3.3774,3.3602,3.2784,3.3206,3.3774,3.3774,3.3774,3.3774,3.3774,3.3136,3.2593,3.2593,3.2593,3.289,3.3671,3.3101,3.282,3.3484,3.289,3.2321,3.2177,3.2177,3.2177,3.2177,3.2177,3.1829,3.1044,3.0241,2.9792,2.9792,2.9792,2.9792,2.9792,3.0256,3.0532,3.062,3.1524,3.2014,3.2102,3.2679,3.2943,2.3091,2.392,2.519,2.6736,2.7596,2.8369,2.9752,3.0294,3.0696,3.1273,3.1599,3.1863,3.2152,3.2822,3.3862,3.5507,3.713,3.8716,4.0189,4.0442,4.0711,4.1347,4.1422,4.1758,4.2716,4.2806,4.2955,4.3275,4.3045,4.3015,4.329,4.2432,4.1782,4.1384,4.0741,4.0083,3.9388,3.9095,3.8601,3.7928,3.6956,3.6327,3.6028,3.5669,3.5504,3.5504,3.5504,3.5504,3.5504,3.5504,3.5504,3.5504,3.5504,3.5504,3.5504,3.5504,3.5504,3.5504,3.5504,3.5504,3.5504,3.5504,3.5504,3.5504,3.5504,3.5504,3.5504,3.5504,3.5504,3.5392,3.4953,3.4806,3.4691,3.4259,3.4491,3.4806,3.4806,3.4806,3.4806,3.4806,3.4476,3.4158,3.4158,3.4158,3.4293,3.4739,3.4442,3.4109,3.4027,3.3636,3.3171,3.2629,3.2593,3.2593,3.2593,3.2593,3.2213,3.1241,3.0317,2.9792,2.9792,2.9792,2.993,3.0231,3.0482,3.0909,3.1486,3.1976,3.2378,3.2692,3.2955,3.3124,2.343,2.4125,2.5126,2.6543,2.7574,2.8459,2.9134,2.9754,3.0394,3.1223,3.1386,3.1631,3.2422,3.3109,3.4139,3.6025,3.7134,3.8278,3.9921,4.0606,4.098,4.113,4.1145,4.1512,4.2321,4.2396,4.2626,4.3245,4.329,4.329,4.329,4.2865,4.2261,4.1452,4.0891,4.0247,3.9388,3.9388,3.9065,3.8377,3.7404,3.6776,3.6477,3.5968,3.5654,3.5504,3.5504,3.5504,3.5504,3.5504,3.5504,3.5504,3.5504,3.5504,3.5504,3.5504,3.5504,3.5504,3.5504,3.5504,3.5504,3.5504,3.5504,3.5504,3.5504,3.5504,3.5504,3.5504,3.5504,3.5504,3.5504,3.5504,3.5504,3.5504,3.5504,3.5504,3.5504,3.5504,3.5504,3.5504,3.5504,3.5504,3.5504,3.5504,3.5504,3.5504,3.5504,3.5213,3.4461,3.4361,3.4075,3.3359,3.329,3.329,3.329,3.3066,3.2629,3.1888,3.0983,3.0355,3.0139,3.0266,3.0403,3.0608,3.0859,3.1399,3.2215,3.2353,3.2641,3.3124,3.3124,3.3124,2.4372,2.4745,2.5326,2.7429,2.8412,2.9148,3.0244,3.0896,3.1298,3.1373,3.1386,3.1863,3.3379,3.5705,3.7757,3.8921,3.9192,3.9288,3.9448,3.9493,3.9783,4.0397,4.0472,4.0965,4.2276,4.2396,4.2626,4.3245,4.329,4.329,4.329,4.3245,4.2686,4.1452,4.1324,4.0711,3.9388,3.9388,3.9065,3.8392,3.8302,3.7629,3.6492,3.6432,3.6088,3.5504,3.5504,3.5504,3.5504,3.5504,3.5504,3.5504,3.5504,3.5504,3.5504,3.5504,3.5504,3.5504,3.5504,3.5504,3.5504,3.5504,3.5504,3.5504,3.5504,3.5504,3.5504,3.5504,3.5504,3.5504,3.5504,3.5504,3.5504,3.5504,3.5504,3.5504,3.5504,3.5504,3.5504,3.5504,3.5504,3.5504,3.5504,3.5504,3.5504,3.5504,3.5504,3.5472,3.5392,3.5392,3.5359,3.5294,3.5279,3.5279,3.5279,3.4442,3.3876,3.3808,3.2925,3.1997,3.1143,3.1594,3.1461,3.062,3.1587,3.2139,3.2215,3.2754,3.3074,3.3124,3.3124,3.3124,2.3637,2.5007,2.6541,2.7379,2.9308,3.0807,3.0253,3.052,3.0997,3.1323,3.1135,3.1523,3.3541,3.4415,3.5638,3.814,3.8472,3.862,3.9301,3.9388,3.9478,3.9768,4.0157,4.0756,4.1707,4.2156,4.2626,4.3245,4.329,4.329,4.329,4.329,4.2731,4.1429,4.1422,4.0756,3.9388,3.9388,3.9254,3.9035,3.8601,3.7928,3.7045,3.6656,3.6133,3.5504,3.5504,3.5504,3.5504,3.5504,3.5504,3.5504,3.5504,3.5504,3.5504,3.5504,3.5504,3.5504,3.5504,3.5504,3.5504,3.5504,3.5504,3.5504,3.5504,3.5504,3.5504,3.5504,3.5504,3.5504,3.5504,3.5504,3.5504,3.5504,3.5504,3.5504,3.5504,3.5504,3.5504,3.5504,3.5504,3.5504,3.5504,3.5504,3.5504,3.5504,3.5504,3.5504,3.5504,3.5504,3.5504,3.5504,3.5504,3.5504,3.5504,3.5133,3.5115,3.5528,3.3711,3.2629,3.2672,3.2904,3.3168,3.359,3.3992,3.4045,3.3783,3.4004,3.3755,3.3124,3.3124,3.3124,2.3551,2.5144,2.6871,2.7622,2.9588,3.1145,3.0265,3.047,3.0871,3.0884,3.1278,3.2184,3.4086,3.4627,3.5585,3.8043,3.8383,3.8546,3.9301,3.9388,3.9388,3.9388,3.9813,4.0427,4.1294,4.1826,4.2402,4.323,4.329,4.329,4.329,4.329,4.2731,4.1429,4.1422,4.0756,3.9388,3.9388,3.9388,3.9373,3.8931,3.8362,3.7689,3.706,3.6432,3.5804,3.5594,3.5504,3.5504,3.5504,3.5504,3.5504,3.5504,3.5504,3.5504,3.5504,3.5504,3.5504,3.5504,3.5504,3.5504,3.5504,3.5504,3.5504,3.5504,3.5504,3.5504,3.5504,3.5504,3.5504,3.5504,3.5504,3.5504,3.5504,3.5504,3.5504,3.5504,3.5504,3.5504,3.5504,3.5504,3.5504,3.5504,3.5504,3.5504,3.5504,3.5504,3.5504,3.5504,3.5504,3.5504,3.5504,3.5504,3.5504,3.5504,3.5699,3.6013,3.6462,3.4984,3.4193,3.4351,3.4526,3.4845,3.538,3.5574,3.5327,3.4705,3.4705,3.415,3.3124,3.3124,3.3124,2.4467,2.5101,2.5968,2.832,2.9273,2.9786,3.044,3.1022,3.1085,3.003,3.1913,3.4113,3.5201,3.7197,3.8832,3.9333,3.9388,3.9388,3.9388,3.9388,3.9388,3.9388,3.9388,3.9933,4.125,4.1422,4.1923,4.3185,4.329,4.329,4.329,4.329,4.2731,4.1429,4.1422,4.0756,3.9388,3.9388,3.9388,3.9388,3.9388,3.905,3.8362,3.7719,3.7075,3.6447,3.5804,3.5504,3.5504,3.5504,3.5504,3.5504,3.5504,3.5504,3.5504,3.5504,3.5504,3.5504,3.5504,3.5504,3.5504,3.5504,3.5504,3.5504,3.5504,3.5504,3.5504,3.5504,3.5504,3.5504,3.5504,3.5504,3.5504,3.5504,3.5504,3.5504,3.5504,3.5504,3.5504,3.5504,3.5504,3.5504,3.5504,3.5504,3.5504,3.5504,3.5504,3.5504,3.5504,3.5504,3.5504,3.5504,3.5504,3.5504,3.5519,3.6118,3.6525,3.6507,3.7075,3.6996,3.6057,3.654,3.6404,3.5471,3.5961,3.5734,3.4705,3.4705,3.415,3.3124,3.3124,3.3124,2.3939,2.5396,2.6991,2.7958,2.9546,3.0914,3.1104,3.1286,3.1298,3.0984,3.1873,3.315,3.4686,3.5739,3.6933,3.8696,3.9203,3.9388,3.9388,3.9388,3.9388,3.9388,3.9388,3.9753,4.0606,4.1115,4.1728,4.2581,4.3075,4.329,4.329,4.329,4.2731,4.1429,4.1422,4.0756,3.9388,3.9388,3.9388,3.9388,3.9388,3.905,3.8377,3.8182,3.7509,3.6477,3.6282,3.5938,3.5504,3.5504,3.5504,3.5504,3.5504,3.5504,3.5504,3.5504,3.5504,3.5504,3.5504,3.5504,3.5504,3.5504,3.5504,3.5504,3.5504,3.5504,3.5504,3.5504,3.5504,3.5504,3.5504,3.5504,3.5504,3.5504,3.5504,3.5504,3.5504,3.5504,3.5504,3.5504,3.5504,3.5504,3.5504,3.5504,3.5504,3.5504,3.5504,3.5504,3.5504,3.5504,3.5504,3.5504,3.5504,3.5684,3.6148,3.6372,3.6866,3.7764,3.7988,3.7988,3.7712,3.7819,3.8037,3.8216,3.8355,3.7572,3.5734,3.5734,3.4843,3.3124,3.3124,3.3124,2.3457,2.4676,2.612,2.711,2.8672,3.0313,3.1456,3.1549,3.1449,3.1675,3.2164,3.3022,3.4487,3.548,3.6579,3.815,3.8958,3.9388,3.9388,3.9388,3.9388,3.9388,3.9388,3.9679,4.0337,4.0995,4.1692,4.2351,4.297,4.329,4.329,4.329,4.2731,4.1429,4.1422,4.0756,3.9388,3.9388,3.9388,3.9388,3.9388,3.92,3.8796,3.8512,3.7823,3.6821,3.6312,3.5863,3.5504,3.5504,3.5504,3.5504,3.5504,3.5504,3.5504,3.5504,3.5504,3.5504,3.5504,3.5504,3.5504,3.5504,3.5504,3.5504,3.5504,3.5504,3.5504,3.5504,3.5504,3.5504,3.5504,3.5504,3.5504,3.5504,3.5504,3.5504,3.5504,3.5504,3.5504,3.5504,3.5504,3.5504,3.5504,3.5504,3.5504,3.5504,3.5504,3.5504,3.5504,3.5504,3.5504,3.5504,3.5744,3.6058,3.6447,3.6956,3.7569,3.8347,3.8646,3.8796,3.8796,3.8796,3.899,3.9373,3.9388,3.8531,3.6852,3.6852,3.5987,3.4332,3.4332,3.4332,2.314,2.3501,2.4323,2.6098,2.7403,2.8919,3.1591,3.1863,3.1687,3.219,3.2717,3.3398,3.4345,3.5817,3.7049,3.7558,3.8546,3.9301,3.9388,3.9388,3.9388,3.9388,3.9388,3.9649,4.0247,4.0965,4.1662,4.2261,4.2925,4.329,4.329,4.329,4.2731,4.1429,4.1422,4.0756,3.9388,3.9388,3.9388,3.9388,3.9388,3.9388,3.9394,3.8766,3.8093,3.7345,3.6133,3.5564,3.5504,3.5504,3.5504,3.5504,3.5504,3.5504,3.5504,3.5504,3.5504,3.5504,3.5504,3.5504,3.5504,3.5504,3.5504,3.5504,3.5504,3.5504,3.5504,3.5504,3.5504,3.5504,3.5504,3.5504,3.5504,3.5504,3.5504,3.5504,3.5504,3.5504,3.5504,3.5504,3.5504,3.5504,3.5504,3.5504,3.5504,3.5504,3.5504,3.5504,3.5504,3.5504,3.5534,3.5594,3.6133,3.6537,3.6656,3.7719,3.8422,3.8482,3.9065,3.9388,3.9388,3.9388,3.9388,3.9388,3.9388,3.887,3.7791,3.7791,3.7266,3.6198,3.6198,3.6158,2.3555,2.4099,2.4965,2.6585,2.8803,3.0922,3.1951,3.2478,3.2797,3.2867,3.2993,3.3154,3.3398,3.4408,3.5521,3.6397,3.7458,3.8435,3.9265,3.9388,3.9388,3.9388,3.9388,3.9448,3.9619,4.0696,4.1482,4.1617,4.2671,4.329,4.329,4.329,4.2731,4.1429,4.1422,4.0756,3.9388,3.9388,3.9388,3.9388,3.9388,3.9388,3.9388,3.9275,3.8542,3.736,3.6611,3.5983,3.5504,3.5504,3.5504,3.5504,3.5504,3.5504,3.5504,3.5504,3.5504,3.5504,3.5504,3.5504,3.5504,3.5504,3.5504,3.5504,3.5504,3.5504,3.5504,3.5504,3.5504,3.5504,3.5504,3.5504,3.5504,3.5504,3.5504,3.5504,3.5504,3.5504,3.5504,3.5504,3.5504,3.5504,3.5504,3.5504,3.5504,3.5504,3.5504,3.5504,3.5504,3.5504,3.5699,3.6222,3.6402,3.6896,3.7898,3.8227,3.8616,3.917,3.9298,3.9388,3.9388,3.9388,3.9388,3.9388,3.9388,3.887,3.7791,3.7791,3.7266,3.6198,3.6198,3.5774,2.3359,2.373,2.4537,2.6983,2.9127,3.0954,3.2344,3.2855,3.3124,3.3124,3.3124,3.3124,3.3124,3.3995,3.502,3.6053,3.7098,3.8182,3.9265,3.9388,3.9388,3.9388,3.9388,3.9388,3.9388,4.0322,4.104,4.1392,4.2297,4.3015,4.3275,4.329,4.2731,4.1429,4.1422,4.0756,3.9388,3.9388,3.9388,3.9388,3.9388,3.9388,3.9373,3.908,3.8362,3.7375,3.6746,3.6118,3.5504,3.5504,3.5504,3.5504,3.5504,3.5504,3.5504,3.5504,3.5504,3.5504,3.5504,3.5504,3.5504,3.5504,3.5504,3.5504,3.5504,3.5504,3.5504,3.5504,3.5504,3.5504,3.5504,3.5504,3.5504,3.5504,3.5504,3.5504,3.5504,3.5504,3.5504,3.5504,3.5504,3.5504,3.5504,3.5504,3.5504,3.5504,3.5504,3.5504,3.5504,3.5774,3.6103,3.6447,3.703,3.7674,3.8332,3.8691,3.9035,3.9394,3.9388,3.9388,3.9388,3.9388,3.9388,3.9388,3.9388,3.9104,3.8583,3.8583,3.8294,3.7724,3.7724,3.7458,2.2896,2.3207,2.4122,2.7204,2.8885,3.0362,3.2466,3.3048,3.3124,3.3124,3.3124,3.3124,3.3124,3.3839,3.4746,3.5774,3.6813,3.7904,3.898,3.9265,3.9388,3.9388,3.9388,3.9388,3.9388,4.0023,4.0666,4.1324,4.2036,4.2641,4.326,4.3185,4.2611,4.1452,4.1265,4.0636,3.9388,3.9388,3.9388,3.9388,3.9388,3.9388,3.9394,3.8826,3.8138,3.7375,3.6866,3.6207,3.5504,3.5504,3.5504,3.5504,3.5504,3.5504,3.5504,3.5504,3.5504,3.5504,3.5504,3.5504,3.5504,3.5504,3.5504,3.5504,3.5504,3.5504,3.5504,3.5504,3.5504,3.5504,3.5504,3.5504,3.5504,3.5504,3.5504,3.5504,3.5504,3.5504,3.5504,3.5504,3.5415,3.5295,3.5175,3.525,3.5325,3.5325,3.5519,3.5669,3.5669,3.6252,3.6686,3.6806,3.7764,3.8437,3.8556,3.9095,3.9388,3.9388,3.9388,3.9388,3.9388,3.9388,3.9388,3.9388,3.9388,3.9388,3.9388,3.9388,3.9388,3.9388,3.9388,3.9301,2.2578,2.3551,2.5041,2.6943,2.8618,3.0224,3.1913,3.2717,3.3124,3.3124,3.3124,3.3124,3.3124,3.324,3.367,3.4746,3.5748,3.6774,3.7866,3.8819,3.9388,3.9388,3.9388,3.9388,3.9388,4.0023,4.0666,4.1324,4.2036,4.2641,4.326,4.2791,4.2186,4.1399,4.0831,4.0172,3.9388,3.9388,3.9388,3.9388,3.9388,3.9388,3.9388,3.9334,3.8586,3.7404,3.7315,3.6611,3.5504,3.5504,3.5504,3.5504,3.5504,3.5504,3.5504,3.5504,3.5504,3.5504,3.5504,3.5504,3.5504,3.5504,3.5504,3.5504,3.5504,3.5504,3.5504,3.5504,3.5504,3.5504,3.5504,3.5504,3.5504,3.5504,3.5504,3.5504,3.5504,3.5504,3.5504,3.5504,3.5026,3.4459,3.3858,3.4233,3.4638,3.4638,3.5609,3.6357,3.6357,3.6896,3.7509,3.8078,3.8287,3.8631,3.923,3.9364,3.9388,3.9388,3.9388,3.9388,3.9388,3.9388,3.9388,3.9388,3.9388,3.9388,3.9388,3.9388,3.9388,3.9388,3.9388,3.8907,2.2383,2.3146,2.4237,2.5926,2.7357,2.8904,3.084,3.1967,3.2692,3.3048,3.3124,3.3124,3.3124,3.3124,3.3441,3.4553,3.5547,3.6565,3.7663,3.8708,3.9388,3.9388,3.9388,3.9388,3.9388,3.9679,4.0277,4.1309,4.1692,4.2267,4.3245,4.2716,4.2096,4.1399,4.0741,4.0083,3.9388,3.9388,3.9388,3.9388,3.9388,3.9388,3.9388,3.9388,3.8886,3.7943,3.7569,3.6896,3.6028,3.5654,3.5504,3.5504,3.5504,3.5504,3.5504,3.5504,3.5504,3.5504,3.5504,3.5504,3.5504,3.5504,3.5504,3.5504,3.5504,3.5504,3.5504,3.5504,3.5814,3.6023,3.5619,3.5814,3.6006,3.5587,3.5504,3.5504,3.5504,3.5504,3.5385,3.4996,3.4382,3.3844,3.3544,3.3739,3.4084,3.4444,3.5013,3.5672,3.6387,3.703,3.7659,3.8317,3.8736,3.9095,3.9358,3.9388,3.9388,3.9388,3.9388,3.9388,3.9388,3.9388,3.9388,3.9388,3.9388,3.9388,3.9388,3.9388,3.9388,3.9388,3.9388,3.9141,2.2148,2.2656,2.3278,2.4732,2.6202,2.7793,2.9586,3.1026,3.2127,3.2566,3.2696,3.2696,3.2696,3.2767,3.3178,3.4124,3.5022,3.5993,3.7238,3.8308,3.9104,3.9373,3.9388,3.9388,3.9388,3.9388,3.9963,4.128,4.1422,4.1953,4.323,4.2716,4.2096,4.1399,4.0741,4.0083,3.9388,3.9388,3.9388,3.9388,3.9388,3.9388,3.9388,3.9388,3.914,3.8601,3.7778,3.706,3.6432,3.5774,3.5504,3.5504,3.5504,3.5504,3.5504,3.5504,3.5504,3.5504,3.5504,3.5504,3.5504,3.5504,3.5504,3.5504,3.5504,3.5504,3.5504,3.5504,3.6023,3.6446,3.5701,3.6054,3.6415,3.5668,3.5504,3.5504,3.5504,3.537,3.504,3.4399,3.3694,3.3185,3.3021,3.3275,3.3664,3.4189,3.4857,3.5723,3.6902,3.778,3.8552,3.9242,3.9756,3.997,3.9737,3.9737,3.9646,3.9409,3.9388,3.9388,3.9388,3.9388,3.9388,3.9388,3.9388,3.9388,3.9388,3.9388,3.9388,3.9388,3.9388,3.9388,2.1797,2.2227,2.2685,2.343,2.5461,2.752,2.8253,3.0003,3.1436,3.1474,3.1474,3.1474,3.1474,3.1901,3.2428,3.3066,3.3586,3.446,3.6036,3.7214,3.8271,3.9265,3.9388,3.9388,3.9388,3.9388,3.9963,4.128,4.1422,4.1953,4.323,4.2716,4.2096,4.1399,4.0741,4.0083,3.9388,3.9388,3.9388,3.9388,3.9388,3.9388,3.9388,3.9388,3.9394,3.929,3.7973,3.706,3.6432,3.5774,3.5504,3.5504,3.5504,3.5504,3.5504,3.5504,3.5504,3.5504,3.5504,3.5504,3.5504,3.5504,3.5504,3.5504,3.5504,3.5504,3.5504,3.5504,3.6023,3.6446,3.5701,3.6054,3.6415,3.5668,3.5504,3.5504,3.5504,3.4996,3.4369,3.3679,3.3021,3.2333,3.1705,3.2677,3.3499,3.3544,3.5766,3.7729,3.8489,3.985,4.0992,4.1741,4.1837,4.1543,4.069,4.0622,4.0274,3.9445,3.9388,3.9388,3.9388,3.9388,3.9388,3.9388,3.9388,3.9388,3.9388,3.9388,3.9388,3.9388,3.9388,3.9388,2.1426,2.1787,2.2411,2.3638,2.4655,2.5917,2.8151,2.9261,3.0098,3.1188,3.1386,3.1386,3.1386,3.1549,3.175,3.1964,3.3013,3.398,3.458,3.6459,3.7956,3.8345,3.898,3.9388,3.9388,3.9388,3.9783,4.0681,4.1145,4.1773,4.2656,4.2126,4.1662,4.1384,4.0337,3.9649,3.9388,3.9388,3.9388,3.9388,3.9388,3.9388,3.9388,3.9388,3.9388,3.9328,3.8437,3.7674,3.703,3.6387,3.5893,3.5504,3.5504,3.5504,3.5504,3.5504,3.5504,3.5504,3.5504,3.5504,3.5504,3.5504,3.5504,3.5504,3.5504,3.5504,3.5504,3.5504,3.6023,3.6446,3.5701,3.6415,3.716,3.6399,3.5831,3.5504,3.5504,3.4966,3.4309,3.3619,3.3305,3.2931,3.2243,3.2901,3.3803,3.4728,3.569,3.6907,3.8556,3.9623,4.0511,4.123,4.171,4.1869,4.1576,4.1528,4.1147,4.0274,4.0239,3.999,3.9409,3.9388,3.9388,3.9388,3.9388,3.9388,3.9388,3.9388,3.9388,3.9388,3.9388,3.9388,2.1016,2.1328,2.1966,2.3151,2.4083,2.5286,2.7371,2.857,2.9471,3.0361,3.057,3.062,3.0821,3.0696,3.0746,3.1298,3.2162,3.2985,3.37,3.5634,3.7206,3.7738,3.8745,3.9388,3.9388,3.9388,3.9694,4.0352,4.101,4.1564,4.2051,4.1871,4.1542,4.107,3.9993,3.9388,3.9388,3.9388,3.9388,3.9388,3.9388,3.9388,3.9388,3.9388,3.9388,3.9394,3.8931,3.8227,3.736,3.6746,3.6088,3.5504,3.5504,3.5504,3.5504,3.5504,3.5504,3.5504,3.5504,3.5504,3.5504,3.5504,3.5504,3.5504,3.5504,3.5668,3.5863,3.5863,3.643,3.6828,3.607,3.6446,3.6981,3.6676,3.6023,3.5504,3.5504,3.4966,3.4384,3.3903,3.3879,3.3758,3.3319,3.3996,3.4919,3.5869,3.6411,3.7329,3.9024,4.0092,4.0985,4.1659,4.2407,4.2738,4.2458,4.2426,4.2062,4.118,4.0844,4.0432,3.9864,3.9538,3.9388,3.9388,3.9388,3.9388,3.9388,3.9388,3.9388,3.9388,3.9388,3.9388,0.0,0.0,0.0,2.1946,2.3928,2.5797,2.5867,2.7863,2.9565,2.9026,2.8913,2.9126,2.9691,2.934,2.9439,3.1085,3.0934,3.132,3.3421,3.4666,3.5962,3.7553,3.8708,3.9373,3.9388,3.9388,3.9694,4.0322,4.098,4.1354,4.1354,4.1991,4.1752,4.0412,3.9753,3.9388,3.9388,3.9388,3.9388,3.9388,3.9388,3.9388,3.9388,3.9388,3.9388,3.9388,3.9388,3.8646,3.736,3.6761,3.6118,3.5504,3.5504,3.5504,3.5504,3.5504,3.5504,3.5504,3.5504,3.5504,3.5504,3.5504,3.5504,3.5504,3.5537,3.6023,3.66,3.663,3.7203,3.7632,3.6873,3.6117,3.5718,3.6508,3.6086,3.5537,3.5552,3.506,3.458,3.4518,3.4652,3.4767,3.4736,3.5897,3.6834,3.6862,3.8057,3.9232,4.0029,4.1412,4.2608,4.3308,4.4113,4.4253,4.3396,4.3336,4.2986,4.2093,4.1213,4.0724,4.069,3.9864,3.9388,3.9388,3.9388,3.9388,3.9388,3.9388,3.9388,3.9388,3.9388,3.9388,2.0605,0.0,0.0,0.0,0.0,0.0,2.753,2.802,2.8307,2.9337,2.9553,2.9603,2.9767,2.9666,2.9704,3.0168,3.0444,3.0926,3.1934,3.3302,3.4844,3.6456,3.7587,3.8546,3.9301,3.9388,3.9499,3.9679,4.0307,4.0666,4.0666,4.0846,4.0561,3.9709,3.9514,3.9388,3.9388,3.9388,3.9388,3.9388,3.9388,3.9388,3.9388,3.9388,3.9388,3.9388,3.9388,3.8646,3.7404,3.7225,3.6507,3.5504,3.5504,3.5504,3.5504,3.5504,3.5504,3.5504,3.5504,3.5504,3.5504,3.5504,3.5504,3.5587,3.6134,3.6446,3.6722,3.7293,3.7632,3.7863,3.8173,3.7277,3.6615,3.7958,3.7247,3.6444,3.6904,3.6921,3.6349,3.481,3.5736,3.6491,3.5529,3.655,3.7701,3.8242,3.9155,4.0034,4.0795,4.2169,4.3156,4.3375,4.4113,4.4514,4.4253,4.4224,4.3873,4.3017,4.2125,4.1379,4.0724,3.9864,3.9388,3.9388,3.9388,3.9388,3.9388,3.9388,3.9388,3.9388,3.9388,3.9388,2.0712,2.1603,2.2841,2.3761,0.0,0.0,2.7457,2.7915,2.8131,2.865,2.8925,2.9164,2.939,2.9239,2.9252,2.9716,3.0068,3.0532,3.1286,3.2587,3.4139,3.5983,3.7137,3.8234,3.9301,3.9388,3.9388,3.9388,4.0023,4.0397,4.0397,4.0142,3.9813,3.9388,3.9388,3.9388,3.9388,3.9388,3.9388,3.9388,3.9388,3.9388,3.9388,3.9388,3.9388,3.9388,3.9388,3.8646,3.7404,3.7404,3.6656,3.5504,3.5504,3.5504,3.5504,3.5504,3.5504,3.5504,3.5504,3.5504,3.5554,3.5863,3.5943,3.6086,3.6859,3.7306,3.7642,3.8133,3.8246,3.829,3.8414,3.7774,3.7233,3.7815,3.7468,3.7033,3.7114,3.7878,3.7991,3.6162,3.7327,3.838,3.7597,3.8452,3.9473,4.0207,4.0721,4.1184,4.1591,4.2692,4.3392,4.3392,4.4113,4.4615,4.4615,4.4615,4.4384,4.3873,4.3031,4.2316,4.1804,4.0603,3.992,3.992,3.9574,3.9388,3.9388,3.9388,3.9388,3.9388,3.9388,3.9388,2.1175,2.2264,2.3672,2.3672,2.477,0.0,2.6489,2.7695,2.8499,2.7645,2.7858,2.8373,2.8888,2.8574,2.8549,2.9616,2.9691,3.0005,3.1148,3.2119,3.3567,3.5845,3.689,3.7947,3.9286,3.9313,3.9298,3.9373,3.9963,4.0292,4.0292,3.9738,3.9388,3.9388,3.9388,3.9388,3.9388,3.9388,3.9388,3.9388,3.9388,3.9388,3.9388,3.9388,3.9388,3.9388,3.9388,3.8646,3.7404,3.7404,3.6656,3.5504,3.5504,3.5504,3.5504,3.5504,3.5504,3.5504,3.5504,3.5504,3.5619,3.6244,3.6523,3.6752,3.7544,3.8302,3.8908,3.9005,3.8962,3.8745,3.8092,3.7921,3.7719,3.6904,3.725,3.7542,3.6869,3.8389,3.946,3.8214,3.9248,4.0315,4.0216,4.0822,4.1542,4.2202,4.2354,4.2422,4.2422,4.3081,4.3511,4.3511,4.4164,4.4615,4.4615,4.4615,4.4615,4.4615,4.3785,4.3306,4.3306,4.1642,4.069,4.069,3.9829,3.9388,3.9388,3.9388,3.9388,3.9388,3.9388,3.9388,2.3108,2.3781,2.4719,2.4719,2.5549,0.0,2.7007,2.7369,2.7795,0.0,2.865,2.89,2.9515,2.9151,2.9001,2.9679,2.9026,2.8976,3.0545,3.0918,3.2188,3.5176,3.5256,3.6234,3.9124,3.8916,3.8826,3.9379,3.9508,3.9619,3.9619,3.9448,3.9388,3.9388,3.9388,3.9388,3.9388,3.9388,3.9388,3.9388,3.9388,3.9388,3.9388,3.9388,3.9388,3.9388,3.9388,3.8646,3.7404,3.7404,3.6656,3.5504,3.5504,3.5504,3.5504,3.5504,3.5504,3.5504,3.5504,3.5504,3.5537,3.5668,3.6117,3.6752,3.7544,3.8302,3.9032,3.9688,3.9394,3.8881,3.8718,3.869,3.8497,3.7732,3.8084,3.8508,3.8253,3.9531,4.0658,4.0324,4.1077,4.1622,4.1073,4.1592,4.2117,4.2269,4.2811,4.32,4.32,4.3876,4.4378,4.4378,4.4513,4.4615,4.4615,4.4615,4.4615,4.4615,4.3785,4.3306,4.3306,4.1642,4.069,4.069,3.9829,3.9388,3.9388,3.9388,3.9388,3.9388,3.9388,3.9388,2.3796,2.4588,2.5629,2.5123,0.0,0.0,0.0,2.7115,2.7281,2.7268,2.772,2.8197,2.8486,2.8524,2.8699,2.9264,2.9126,2.9139,2.9704,3.0018,3.1384,3.4544,3.4596,3.5436,3.8156,3.8108,3.8182,3.8856,3.923,3.9388,3.9388,3.9388,3.9388,3.9388,3.9388,3.9388,3.9388,3.9388,3.9388,3.9388,3.9388,3.9388,3.9388,3.9388,3.9388,3.9388,3.9388,3.8646,3.7404,3.7404,3.6656,3.5504,3.5504,3.5504,3.5504,3.5504,3.5504,3.5504,3.5504,3.5718,3.6117,3.6508,3.716,3.7901,3.8707,3.9226,3.9568,3.9995,3.9808,3.9315,3.8553,3.8635,3.8606,3.7433,3.7951,3.878,3.9082,4.037,4.1612,4.2002,4.2792,4.3175,4.2423,4.2583,4.298,4.3369,4.3758,4.3995,4.3995,4.4333,4.4615,4.4615,4.4615,4.4615,4.4615,4.4615,4.4615,4.4615,4.4196,4.3948,4.3948,4.2284,4.0961,4.008,3.961,3.9388,3.9388,3.9388,3.9388,3.9388,3.9388,3.9388,0.0,0.0,0.0,0.0,0.0,2.6499,0.0,0.0,0.0,0.0,0.0,0.0,0.0,0.0,0.0,2.8499,0.0,0.0,0.0,2.9176,0.0,3.3847,3.4053,3.4836,3.7188,3.7644,3.7913,3.8182,3.908,3.9499,3.923,3.9313,3.9388,3.9388,3.9388,3.9388,3.9388,3.9388,3.9388,3.9388,3.9388,3.9388,3.9388,3.9388,3.9388,3.9373,3.9239,3.8527,3.7404,3.7285,3.6552,3.5504,3.5504,3.5504,3.5504,3.5504,3.5504,3.5504,3.5504,3.5894,3.6508,3.7308,3.8161,3.9059,3.9876,4.0096,4.0096,4.0096,4.0096,3.9782,3.8374,3.8442,3.852,3.7053,3.7676,3.8797,3.9528,4.0907,4.2252,4.3139,4.4006,4.4384,4.3741,4.3639,4.3859,4.4513,4.4615,4.4615,4.4615,4.4615,4.4615,4.4615,4.4615,4.4615,4.4615,4.4615,4.4615,4.4615,4.4615,4.4615,4.4615,4.2923,4.1346,3.9935,3.9737,3.9631,3.9631,3.9631,3.9574,3.9388,3.9388,3.9388,0.0,0.0,0.0,0.0,2.6418,0.0,0.0,0.0,2.6688,2.7052,0.0,0.0,0.0,0.0,0.0,0.0,0.0,0.0,2.8072,2.826,0.0,3.3248,3.2769,3.3492,3.7054,3.8497,3.8721,3.7599,3.9245,3.9768,3.8571,3.9095,3.9388,3.9388,3.9388,3.9388,3.9388,3.9388,3.9388,3.9388,3.9388,3.9388,3.9388,3.9388,3.9388,3.9394,3.8766,3.8093,3.736,3.6821,3.6163,3.5504,3.5504,3.5504,3.5504,3.5504,3.5504,3.5504,3.5504,3.5554,3.5765,3.6477,3.7729,3.9059,3.9876,4.0096,4.0096,4.0096,4.0096,3.9901,3.9005,3.8827,3.866,3.7701,3.8052,3.8797,3.9528,4.0907,4.2252,4.3139,4.4006,4.4581,4.4496,4.4479,4.4496,4.4598,4.4615,4.4615,4.4615,4.4615,4.4615,4.4615,4.4615,4.4615,4.4615,4.4615,4.4615,4.4615,4.4615,4.4615,4.4615,4.2923,4.1901,4.1707,4.0961,4.0554,4.0554,4.0554,4.015,3.9388,3.9388,3.9388,0.0,0.0,0.0,0.0,0.0,0.0,2.6499,0.0,2.6461,0.0,0.0,0.0,0.0,0.0,0.0,0.0,2.7356,0.0,0.0,0.0,0.0,0.0,0.0,0.0,3.6041,3.7494,3.7868,3.6941,3.8721,3.9409,3.8437,3.8661,3.9005,3.9373,3.9388,3.9388,3.9388,3.9388,3.9388,3.9388,3.9388,3.9388,3.9388,3.9388,3.9388,3.9343,3.8691,3.8018,3.736,3.6746,3.6353,3.6134,3.6134,3.5863,3.5554,3.5975,3.6134,3.6196,3.6677,3.6829,3.6951,3.7687,3.869,3.9662,3.9995,4.0096,4.0096,4.0096,4.0096,3.9825,3.8596,3.8246,3.812,3.7594,3.7704,3.8491,4.0571,4.1533,4.241,4.3785,4.4355,4.4615,4.4615,4.4615,4.4615,4.4615,4.4615,4.4615,4.4615,4.4615,4.4615,4.4615,4.4615,4.4615,4.4615,4.4615,4.4615,4.4615,4.4615,4.4384,4.3873,4.3139,4.252,4.1997,4.1642,4.1213,4.069,4.069,4.0239,3.9388,3.9388,3.9388,2.9051,0.0,0.0,0.0,0.0,0.0,0.0,0.0,0.0,0.0,0.0,0.0,0.0,0.0,2.704,2.6841,0.0,2.7519,0.0,0.0,0.0,0.0,0.0,0.0,0.0,3.6745,3.7479,3.6312,3.8377,3.9155,3.7928,3.8197,3.8616,3.9125,3.932,3.9388,3.9388,3.9388,3.9502,3.9758,3.9502,3.9517,3.9737,3.9517,3.9412,3.9436,3.8756,3.8198,3.7748,3.7107,3.6892,3.6934,3.6934,3.6615,3.6196,3.6722,3.6934,3.6994,3.7602,3.7921,3.8177,3.8497,3.9262,4.0096,4.0096,4.0096,4.0096,4.0096,3.9952,3.9506,3.8402,3.7806,3.7566,3.7995,3.7901,3.8586,4.1693,4.2363,4.28,4.4327,4.4615,4.4615,4.4615,4.4615,4.4615,4.4615,4.4615,4.4615,4.4615,4.4615,4.4615,4.4615,4.4615,4.4615,4.4615,4.4615,4.4615,4.4615,4.4615,4.4327,4.368,4.3426,4.3108,4.2707,4.2489,4.1933,4.1046,4.1046,4.0481,3.9388,3.9388,3.9388,2.9051,2.8863,2.8712,2.821,2.8059,2.7908,0.0,0.0,2.714,0.0,0.0,0.0,0.0,0.0,2.6336,2.5737,0.0,0.0,0.0,0.0,0.0,0.0,0.0,0.0,0.0,0.0,3.8287,0.0,3.8542,3.9245,3.6686,3.7719,3.8407,3.8422,3.9065,3.9388,3.9388,3.9388,3.9829,4.0656,3.9793,3.9829,4.0622,3.9758,3.9481,3.9565,3.8886,3.867,3.8681,3.8025,3.7751,3.7748,3.7748,3.7764,3.7735,3.7748,3.7748,3.7764,3.7777,3.829,3.8745,3.8064,3.8859,4.0096,4.0096,4.0096,4.0096,4.0096,3.9542,3.8935,3.8881,3.7758,3.7186,3.9306,3.9235,3.9501,4.2598,4.3246,4.3532,4.4412,4.4615,4.4615,4.4615,4.4615,4.4615,4.4615,4.4615,4.4615,4.4615,4.4615,4.4615,4.4615,4.4615,4.4615,4.4615,4.4615,4.4615,4.4615,4.4615,4.4587,4.4542,4.3756,4.368,4.4514,4.368,4.2816,4.1965,4.1965,4.1095,3.9388,3.9388,3.9388,3.0608,2.9754,2.885,2.8662,2.8373,2.8059,2.7871,0.0,0.0,0.0,0.0,0.0,0.0,2.6499,2.6436,2.6235,2.6361,0.0,0.0,0.0,0.0,0.0,0.0,0.0,0.0,0.0,0.0,0.0,0.0,0.0,3.6552,3.6896,3.7524,3.8362,3.8616,3.896,3.9388,3.9388,3.9538,3.9829,3.9538,3.9538,3.9864,4.0115,4.0009,3.9586,3.9487,3.9198,3.8754,3.8081,3.8092,3.8525,3.8525,3.8843,3.9252,3.8734,3.8525,3.8469,3.7978,3.8624,3.9463,3.8206,3.8832,4.0096,4.0096,4.0096,4.0096,4.0096,3.9901,3.9584,3.9059,3.8472,3.8224,3.8874,3.9196,3.992,4.198,4.2878,4.3562,4.4412,4.4615,4.4615,4.4615,4.4615,4.4615,4.4615,4.4615,4.4615,4.4615,4.4615,4.4615,4.4615,4.4615,4.4615,4.4615,4.4615,4.4615,4.4615,4.4615,4.4615,4.4615,4.4327,4.4298,4.4598,4.4327,4.3739,4.2847,4.2284,4.1412,4.0239,3.9681,3.9649,3.1173,3.0344,2.9439,2.9289,2.8963,2.8649,2.8448,2.8361,2.8247,0.0,0.0,0.0,0.0,0.0,2.6725,2.6524,0.0,0.0,0.0,0.0,0.0,0.0,0.0,0.0,0.0,0.0,0.0,0.0,0.0,0.0,0.0,3.6357,3.6866,3.7689,3.8153,3.8601,3.905,3.929,3.9538,3.9864,3.9538,3.9581,3.9937,4.018,4.0088,3.9692,3.9845,3.9648,3.9222,3.8792,3.8914,3.9315,3.9315,3.9636,4.0045,3.9516,3.9315,3.9183,3.8149,3.8805,3.985,3.829,3.8832,4.0096,4.0096,4.0096,4.0096,4.0096,3.9705,3.9209,3.8978,3.8447,3.8169,3.8873,3.9626,4.0592,4.2139,4.3139,4.3948,4.4485,4.4615,4.4615,4.4615,4.4615,4.4615,4.4615,4.4615,4.4615,4.4615,4.4615,4.4615,4.4615,4.4615,4.4615,4.4615,4.4615,4.4615,4.4615,4.4615,4.4615,4.4615,4.4615,4.4615,4.4615,4.4615,4.4167,4.3306,4.2754,4.1869,4.069,4.0375,4.0592]}]]